[[{"header":{"parameterUnit":"m.s-1","parameterCategory":1,"la1":30.6,"la2":28.766,"lo1":-90.7593,"lo2":-88.6598,"dx":0.0162,"dy":0.0183,"nx":116,"ny":114,"refTime":"2022-12-30T06:00:00:Z","depth":0,"parameterNumber":2,"parameterNumberName":"U-component_of_WINDS"},"data":[0.0,0.0,0.0,0.0,0.0,0.0,0.0,0.0,0.0,0.0,0.0,0.0,0.0,0.0,0.0,0.0,0.0,0.0,0.0,0.0,0.0,0.0,0.0,0.0,0.0,0.0,0.0,0.0,0.0,0.0,0.0,0.0,0.0,0.0,0.0,0.0,0.0,0.0,0.0,0.0,0.0,0.0,0.0,0.0,0.0,0.0,0.0,0.0,0.0,0.0,0.0,0.0,0.0,0.0,0.0,0.0,0.0,0.0,0.0,0.0,0.0,0.0,0.0,0.0,0.0,0.0,0.0,0.0,0.0,0.0,0.0,0.0,0.0,0.0,0.0,0.0,0.0,0.0,0.0,0.0,0.0,0.0,0.0,0.0,0.0,0.0,0.0,0.0,0.0,0.0,0.0,0.0,0.0,0.0,0.0,0.0,0.0,0.0,0.0,0.0,0.0,0.0,0.0,0.0,0.0,0.0,0.0,0.0,0.0,0.0,0.0,0.0,0.0,0.0,0.0,0.0,0.0,0.0,0.0,0.0,0.0,0.0,0.0,0.0,0.0,0.0,0.0,0.0,0.0,0.0,0.0,0.0,0.0,0.0,0.0,0.0,0.0,0.0,0.0,0.0,0.0,0.0,0.0,0.0,0.0,0.0,0.0,0.0,0.0,0.0,0.0,0.0,0.0,0.0,0.0,0.0,0.0,0.0,0.0,0.0,0.0,0.0,0.0,0.0,0.0,0.0,0.0,0.0,0.0,0.0,0.0,0.0,0.0,0.0,0.0,0.0,0.0,0.0,0.0,0.0,0.0,0.0,0.0,0.0,0.0,0.0,0.0,0.0,0.0,0.0,0.0,0.0,0.0,0.0,0.0,0.0,0.0,0.0,0.0,0.0,0.0,0.0,0.0,0.0,0.0,0.0,0.0,0.0,0.0,0.0,0.0,0.0,0.0,0.0,0.0,0.0,0.0,0.0,0.0,0.0,0.0,0.0,0.0,0.0,0.0,0.0,0.0,0.0,0.0,0.0,0.0,0.0,0.0,0.0,0.0,0.0,0.0,0.0,0.0,0.0,0.0,0.0,0.0,0.0,0.0,0.0,0.0,0.0,0.0,0.0,0.0,0.0,0.0,0.0,0.0,0.0,0.0,0.0,0.0,0.0,0.0,0.0,0.0,0.0,0.0,0.0,0.0,0.0,0.0,0.0,0.0,0.0,0.0,0.0,0.0,0.0,0.0,0.0,0.0,0.0,0.0,0.0,0.0,0.0,0.0,0.0,0.0,0.0,0.0,0.0,0.0,0.0,0.0,0.0,0.0,0.0,0.0,0.0,0.0,0.0,0.0,0.0,0.0,0.0,0.0,0.0,0.0,0.0,0.0,0.0,0.0,0.0,0.0,0.0,0.0,0.0,0.0,0.0,0.0,0.0,0.0,0.0,0.0,0.0,0.0,0.0,0.0,0.0,0.0,0.0,0.0,0.0,0.0,0.0,0.0,0.0,0.0,0.0,0.0,0.0,0.0,0.0,0.0,0.0,0.0,0.0,0.0,0.0,0.0,0.0,0.0,0.0,0.0,0.0,0.0,0.0,0.0,0.0,0.0,0.0,0.0,0.0,0.0,0.0,0.0,0.0,0.0,0.0,0.0,0.0,0.0,0.0,0.0,0.0,0.0,0.0,0.0,0.0,0.0,0.0,0.0,0.0,0.0,0.0,0.0,0.0,0.0,0.0,0.0,0.0,0.0,0.0,0.0,0.0,0.0,0.0,0.0,0.0,0.0,0.0,0.0,0.0,0.0,0.0,0.0,0.0,0.0,0.0,0.0,0.0,0.0,0.0,0.0,0.0,0.0,0.0,0.0,0.0,0.0,0.0,0.0,0.0,0.0,0.0,0.0,0.0,0.0,0.0,0.0,0.0,0.0,0.0,0.0,0.0,0.0,0.0,0.0,0.0,0.0,0.0,0.0,0.0,0.0,0.0,0.0,0.0,0.0,0.0,0.0,0.0,0.0,0.0,0.0,0.0,0.0,0.0,0.0,0.0,0.0,0.0,0.0,0.0,0.0,0.0,0.0,0.0,0.0,0.0,0.0,0.0,0.0,0.0,0.0,0.0,0.0,0.0,0.0,0.0,0.0,0.0,0.0,0.0,0.0,0.0,0.0,0.0,0.0,0.0,0.0,0.0,0.0,0.0,0.0,0.0,0.0,0.0,0.0,0.0,0.0,0.0,0.0,0.0,0.0,0.0,0.0,0.0,0.0,0.0,0.0,0.0,0.0,0.0,0.0,0.0,0.0,0.0,0.0,0.0,0.0,0.0,0.0,0.0,0.0,0.0,0.0,0.0,0.0,0.0,0.0,0.0,0.0,0.0,0.0,0.0,0.0,0.0,0.0,0.0,0.0,0.0,0.0,0.0,0.0,0.0,0.0,0.0,0.0,0.0,0.0,0.0,0.0,0.0,0.0,0.0,0.0,0.0,0.0,0.0,0.0,0.0,0.0,0.0,0.0,0.0,0.0,0.0,0.0,0.0,0.0,0.0,0.0,0.0,0.0,0.0,0.0,0.0,0.0,0.0,0.0,0.0,0.0,0.0,0.0,0.0,0.0,0.0,0.0,0.0,0.0,0.0,0.0,0.0,0.0,0.0,0.0,0.0,0.0,0.0,0.0,0.0,0.0,0.0,0.0,0.0,0.0,0.0,0.0,0.0,0.0,0.0,0.0,0.0,0.0,0.0,0.0,0.0,0.0,0.0,0.0,0.0,0.0,0.0,0.0,0.0,0.0,0.0,0.0,0.0,0.0,0.0,0.0,0.0,0.0,0.0,0.0,0.0,0.0,0.0,0.0,0.0,0.0,0.0,0.0,0.0,0.0,0.0,0.0,0.0,0.0,0.0,0.0,0.0,0.0,0.0,0.0,0.0,0.0,0.0,0.0,0.0,0.0,0.0,0.0,0.0,0.0,0.0,0.0,0.0,0.0,0.0,0.0,0.0,0.0,0.0,0.0,0.0,0.0,0.0,0.0,0.0,0.0,0.0,0.0,0.0,0.0,0.0,0.0,0.0,0.0,0.0,0.0,0.0,0.0,0.0,0.0,0.0,0.0,0.0,0.0,0.0,0.0,0.0,0.0,0.0,0.0,0.0,0.0,0.0,0.0,0.0,0.0,0.0,0.0,0.0,0.0,0.0,0.0,0.0,0.0,0.0,0.0,0.0,0.0,0.0,0.0,0.0,0.0,0.0,0.0,0.0,0.0,0.0,0.0,0.0,0.0,0.0,0.0,0.0,0.0,0.0,0.0,0.0,0.0,0.0,0.0,0.0,0.0,0.0,0.0,0.0,0.0,0.0,0.0,0.0,0.0,0.0,0.0,0.0,0.0,0.0,0.0,0.0,0.0,0.0,0.0,0.0,0.0,0.0,0.0,0.0,0.0,0.0,0.0,0.0,0.0,0.0,0.0,0.0,0.0,0.0,0.0,0.0,0.0,0.0,0.0,0.0,0.0,0.0,0.0,0.0,0.0,0.0,0.0,0.0,0.0,0.0,0.0,0.0,0.0,0.0,0.0,0.0,0.0,0.0,0.0,0.0,0.0,0.0,0.0,0.0,0.0,0.0,0.0,0.0,0.0,0.0,0.0,0.0,0.0,0.0,0.0,0.0,0.0,0.0,0.0,0.0,0.0,0.0,0.0,0.0,0.0,0.0,0.0,0.0,0.0,0.0,0.0,0.0,0.0,0.0,0.0,0.0,0.0,0.0,0.0,0.0,0.0,0.0,0.0,0.0,0.0,0.0,0.0,0.0,0.0,0.0,0.0,0.0,0.0,0.0,0.0,0.0,0.0,0.0,0.0,0.0,0.0,0.0,0.0,0.0,0.0,0.0,0.0,0.0,0.0,0.0,0.0,0.0,0.0,0.0,0.0,0.0,0.0,0.0,0.0,0.0,0.0,0.0,0.0,0.0,0.0,0.0,0.0,0.0,0.0,0.0,0.0,0.0,0.0,0.0,0.0,0.0,0.0,0.0,0.0,0.0,0.0,0.0,0.0,0.0,0.0,0.0,0.0,0.0,0.0,0.0,0.0,0.0,0.0,0.0,0.0,0.0,0.0,0.0,0.0,0.0,0.0,0.0,0.0,0.0,0.0,0.0,0.0,0.0,0.0,0.0,0.0,0.0,0.0,0.0,0.0,0.0,0.0,0.0,0.0,0.0,0.0,0.0,0.0,0.0,0.0,0.0,0.0,0.0,0.0,0.0,0.0,0.0,0.0,0.0,0.0,0.0,0.0,0.0,0.0,0.0,0.0,0.0,0.0,0.0,0.0,0.0,0.0,0.0,0.0,0.0,0.0,0.0,0.0,0.0,0.0,0.0,0.0,0.0,0.0,0.0,0.0,0.0,0.0,0.0,0.0,0.0,0.0,0.0,0.0,0.0,0.0,0.0,0.0,0.0,0.0,0.0,0.0,0.0,0.0,0.0,0.0,0.0,0.0,0.0,0.0,0.0,0.0,0.0,0.0,0.0,0.0,0.0,0.0,0.0,0.0,0.0,0.0,0.0,0.0,0.0,0.0,0.0,0.0,0.0,0.0,0.0,0.0,0.0,0.0,0.0,0.0,0.0,0.0,0.0,0.0,0.0,0.0,0.0,0.0,0.0,0.0,0.0,0.0,0.0,0.0,0.0,0.0,0.0,0.0,0.0,0.0,0.0,0.0,0.0,0.0,0.0,0.0,0.0,0.0,0.0,0.0,0.0,0.0,0.0,0.0,0.0,0.0,0.0,0.0,0.0,0.0,0.0,0.0,0.0,0.0,0.0,0.0,0.0,0.0,0.0,0.0,0.0,0.0,0.0,0.0,0.0,0.0,0.0,0.0,0.0,0.0,0.0,0.0,0.0,0.0,0.0,0.0,0.0,0.0,0.0,0.0,0.0,0.0,0.0,0.0,0.0,0.0,0.0,0.0,0.0,0.0,0.0,0.0,0.0,0.0,0.0,0.0,0.0,0.0,0.0,0.0,0.0,0.0,0.0,0.0,0.0,0.0,0.0,0.0,0.0,0.0,0.0,0.0,0.0,0.0,0.0,0.0,0.0,0.0,0.0,0.0,0.0,0.0,0.0,0.0,0.0,0.0,0.0,0.0,0.0,0.0,0.0,0.0,0.0,0.0,0.0,0.0,0.0,0.0,0.0,0.0,0.0,0.0,0.0,0.0,0.0,0.0,0.0,0.0,0.0,0.0,0.0,0.0,0.0,0.0,0.0,0.0,0.0,0.0,0.0,0.0,0.0,0.0,0.0,0.0,0.0,0.0,0.0,0.0,0.0,0.0,0.0,0.0,0.0,0.0,0.0,0.0,0.0,0.0,0.0,0.0,0.0,0.0,0.0,0.0,0.0,0.0,0.0,0.0,0.0,0.0,0.0,0.0,0.0,0.0,0.0,0.0,0.0,0.0,0.0,0.0,0.0,0.0,0.0,0.0,0.0,0.0,0.0,0.0,0.0,0.0,0.0,0.0,0.0,0.0,0.0,0.0,0.0,0.0,0.0,0.0,0.0,0.0,0.0,0.0,0.0,0.0,0.0,0.0,0.0,0.0,0.0,0.0,0.0,0.0,0.0,0.0,0.0,0.0,0.0,0.0,0.0,0.0,0.0,0.0,0.0,0.0,0.0,0.0,0.0,0.0,0.0,0.0,0.0,0.0,0.0,0.0,0.0,0.0,0.0,0.0,0.0,0.0,0.0,0.0,0.0,0.0,0.0,0.0,0.0,0.0,0.0,0.0,0.0,0.0,0.0,0.0,0.0,0.0,0.0,0.0,0.0,0.0,0.0,0.0,0.0,0.0,0.0,0.0,0.0,0.0,0.0,0.0,0.0,0.0,0.0,0.0,0.0,0.0,0.0,0.0,0.0,0.0,0.0,0.0,0.0,0.0,0.0,0.0,0.0,0.0,0.0,0.0,0.0,0.0,0.0,0.0,0.0,0.0,0.0,0.0,0.0,0.0,0.0,0.0,0.0,0.0,0.0,0.0,0.0,0.0,0.0,0.0,0.0,0.0,0.0,0.0,0.0,0.0,0.0,0.0,0.0,0.0,0.0,0.0,0.0,0.0,0.0,0.0,0.0,0.0,0.0,0.0,0.0,-2.7087,0.0,0.0,0.0,0.0,0.0,0.0,0.0,0.0,0.0,0.0,0.0,0.0,0.0,0.0,0.0,0.0,0.0,0.0,0.0,0.0,0.0,0.0,0.0,0.0,0.7731,0.7795,0.7795,0.7795,0.0,0.0,0.0,0.0,0.0,0.0,0.0,0.0,0.0,0.8549,0.9023,0.9012,0.9216,0.9615,0.8818,0.8328,0.8121,0.0,0.0,0.0,0.0,0.0,0.0,0.0,0.0,0.0,0.0,0.0,0.0,0.0,0.0,0.0,0.0,0.0,0.0,0.0,0.0,0.0,0.0,0.0,0.0,0.0,0.0,0.0,0.0,0.0,0.0,0.0,0.0,0.0,0.0,0.0,0.0,0.0,0.0,0.0,0.0,0.0,0.0,0.0,0.0,0.0,0.0,0.0,0.0,0.0,0.0,0.0,0.0,0.0,0.0,0.0,0.0,0.0,0.0,0.0,0.0,0.0,0.0,0.0,0.0,0.0,0.0,0.0,0.0,0.0,0.0,0.0,-2.8294,0.0,0.0,0.0,0.0,0.0,0.0,0.0,0.0,0.0,0.0,0.0,0.0,0.0,0.0,0.0,0.0,0.0,0.0,0.0,0.0,0.0,0.7666,0.7903,0.7925,0.7957,0.8032,0.8011,0.8,0.8043,0.8104,0.0,0.0,0.0,0.0,0.8754,0.8872,0.9195,0.9766,0.9956,0.9695,0.9026,0.8739,0.8255,0.7583,0.718,0.0,0.0,0.0,0.0,0.0,0.0,0.0,0.0,0.0,0.0,0.0,0.0,0.0,0.0,0.0,0.0,0.0,0.0,0.0,0.0,0.0,0.0,0.0,0.0,0.0,0.0,0.0,0.0,0.0,0.0,0.0,0.0,0.0,0.0,0.0,0.0,0.0,0.0,0.0,0.0,0.0,0.0,0.0,0.0,0.0,0.0,0.0,0.0,0.0,0.0,0.0,0.0,0.0,0.0,0.0,0.0,0.0,0.0,0.0,0.0,0.0,0.0,0.0,-2.9733,-3.034,-3.1015,-3.1121,-3.1407,-3.1675,-3.1111,-3.0844,-3.0641,-3.0043,0.0,0.0,0.0,0.0,0.0,0.0,0.0,0.0,0.0,0.0,0.0,0.0,0.0,0.0,0.0,0.0,0.0,0.0,0.0,0.8151,0.8398,0.842,0.8581,0.898,0.884,0.8807,0.9001,0.9171,0.0,0.0,0.0,0.0,0.9723,0.9357,0.9604,1.0498,1.0463,0.9531,0.7773,0.7942,0.7744,0.7105,0.7638,0.7629,0.7202,0.0,0.0,0.0,0.0,0.0,0.0,0.0,0.0,0.0,0.0,0.0,0.0,0.0,0.0,0.0,0.0,0.0,0.0,0.0,0.0,0.0,0.0,0.0,0.0,0.0,0.0,0.0,0.0,0.0,0.0,0.0,0.0,0.0,0.0,0.0,0.0,0.0,0.0,0.0,0.0,0.0,-1.5758,-1.6177,0.0,0.0,0.0,0.0,0.0,0.0,0.0,0.0,0.0,0.0,0.0,0.0,0.0,-2.7227,-2.8164,-2.9563,-3.039,-3.05,-3.1228,-3.1873,-3.2431,-3.2929,-3.3379,-3.3835,-3.3979,0.0,-3.1077,-3.102,0.0,0.0,0.0,0.0,0.0,0.0,0.0,0.0,0.0,0.0,0.0,0.0,0.0,0.0,0.0,0.0,0.0,0.0,0.0,0.0,0.0,0.8963,0.9182,0.9389,0.9707,0.9728,0.9421,0.9742,0.0,0.0,0.0,1.0187,1.0315,1.0379,1.0418,1.0552,1.0241,0.9268,0.7738,0.739,0.7018,0.6816,0.7125,0.6982,0.6513,0.6139,0.0,0.0,0.0,0.0,0.0,0.0,0.0,0.0,0.0,0.0,0.0,0.0,0.0,0.0,0.0,0.0,0.0,0.0,0.0,0.0,0.0,0.0,0.0,0.0,0.0,0.0,0.0,0.0,0.0,0.0,0.0,0.0,0.0,0.0,0.0,0.0,0.0,0.0,0.0,-1.3468,-1.4665,-1.6405,-1.673,-1.6892,0.0,0.0,0.0,0.0,0.0,0.0,0.0,0.0,0.0,-2.3444,-2.6379,-2.8329,-2.924,-3.0771,-3.1709,-3.2209,-3.2506,-3.2955,-3.3519,-3.3781,-3.4139,-3.4444,-3.4707,-3.4148,-3.3193,-3.2938,-3.3431,-3.4081,0.0,0.0,0.0,0.0,-3.3204,-3.3233,0.0,0.0,0.0,0.0,0.0,0.0,0.0,0.0,0.0,0.0,0.0,0.0,0.9226,0.9574,0.9902,1.0132,1.0451,1.054,1.0286,1.0415,1.0545,1.0466,1.0746,1.0939,1.0993,1.1142,1.079,1.0175,0.9551,0.878,0.7744,0.7055,0.6817,0.685,0.685,0.6584,0.6127,0.6067,0.5904,0.5681,0.0,0.0,0.0,0.0,0.0,0.0,0.0,0.0,0.0,0.0,0.0,0.0,0.0,0.0,0.0,0.0,0.0,0.0,0.0,0.0,0.0,0.0,0.0,0.0,0.0,0.0,0.0,0.0,0.0,0.0,0.0,0.0,0.0,0.0,0.0,0.0,0.0,-1.3551,-1.4404,-1.6869,-1.7541,-1.7817,0.0,0.0,0.0,0.0,0.0,0.0,-2.1044,-2.244,-2.3621,-2.4276,-2.723,-2.9241,-2.9816,-3.1443,-3.2611,-3.3155,-3.3535,-3.3841,-3.4375,-3.4508,-3.4774,-3.5039,-3.5156,-3.5195,-3.5195,-3.4696,-3.4948,-3.5684,-3.4948,-3.5123,-3.582,-3.5371,-3.5195,-3.5273,0.0,0.0,0.0,0.0,0.0,0.0,0.0,0.0,0.0,0.0,0.0,0.969,1.0193,1.026,1.0627,1.1512,1.0999,1.0972,1.1893,1.1527,1.1497,1.1999,1.1758,1.1747,1.2064,1.1278,1.026,0.914,0.8642,0.8068,0.7232,0.7241,0.7361,0.7475,0.7475,0.7209,0.6741,0.6507,0.6464,0.6524,0.6187,0.0,0.0,0.0,0.0,0.0,0.0,0.0,0.0,0.0,0.0,0.0,0.0,0.0,0.0,0.0,0.0,0.0,0.0,0.0,0.0,0.0,0.0,0.0,0.0,0.0,0.0,0.0,0.0,0.0,0.0,0.0,0.0,0.0,0.0,0.0,0.0,0.0,0.0,-1.7843,-1.8931,0.0,0.0,0.0,0.0,-2.0928,-2.0732,-2.107,-2.2311,-2.3672,-2.4759,-2.5251,-2.8429,-3.0292,-3.0208,-3.2123,-3.3175,-3.3193,-3.4265,-3.4846,-3.4846,-3.5549,-3.5957,-3.5976,-3.6387,-3.6582,-3.6504,-3.5703,-3.5859,-3.6562,-3.6113,-3.6465,-3.7148,-3.6719,-3.6582,-3.6641,0.0,0.0,0.0,0.7289,0.7341,0.749,0.7849,0.8172,0.8474,0.8711,0.9222,0.9717,1.0034,1.0584,1.1101,1.1449,1.1923,1.2204,1.2076,1.2327,1.2378,1.2323,1.2357,1.2204,1.1648,1.1325,1.0397,0.8784,0.8742,0.8163,0.7154,0.7198,0.7241,0.7285,0.7285,0.7187,0.7024,0.6937,0.679,0.6605,0.648,0.6339,0.0,0.0,0.0,0.0,0.0,0.0,0.0,0.0,0.0,0.0,0.0,0.0,0.0,0.0,0.0,0.0,0.0,0.0,0.0,0.0,0.0,0.0,0.0,0.0,0.0,0.0,0.0,0.0,0.0,0.0,0.0,0.0,0.0,0.0,0.0,0.0,0.0,-1.8614,-1.9762,0.0,-2.0579,-2.0929,-2.1437,-2.2231,-2.235,-2.2696,-2.3527,-2.4748,-2.5754,-2.6398,-2.9126,-3.0857,-3.1097,-3.3206,-3.4557,-3.4695,-3.5933,-3.6682,-3.6823,-3.7397,-3.7656,-3.7676,-3.7832,-3.7891,-3.7891,-3.7851,-3.7539,-3.7109,-3.75,-3.7851,-3.8164,-3.8594,-3.875,-3.873,0.0,0.0,0.0,0.7351,0.7458,0.7731,0.8204,0.8474,0.8775,0.9174,0.9634,1.0111,1.0594,1.1168,1.1706,1.2117,1.2638,1.296,1.278,1.298,1.2991,1.2819,1.2856,1.2552,1.17,1.1223,1.0225,0.8736,0.8504,0.8045,0.7339,0.7339,0.7361,0.7394,0.7394,0.7377,0.7339,0.7296,0.7116,0.6855,0.6817,0.6709,0.6551,0.0,0.0,0.0,0.0,0.0,0.0,0.0,0.0,0.0,0.0,0.0,0.0,0.0,0.0,0.0,0.0,0.0,0.0,0.0,0.0,0.0,0.0,0.0,0.0,0.0,0.0,0.0,0.0,0.0,0.0,0.0,0.0,0.0,0.0,-1.5301,-1.7063,-1.9195,-2.0436,-2.128,-2.1582,-2.2133,-2.2691,-2.3153,-2.3447,-2.3794,-2.4182,-2.4856,-2.5583,-2.622,-2.847,-2.9997,-3.0324,-3.3195,-3.47,-3.5152,-3.6846,-3.7711,-3.8,-3.8437,-3.8574,-3.8574,-3.873,-3.8789,-3.8828,-3.9258,-3.8945,-3.8223,-3.8789,-3.9023,-3.9101,-3.9687,-3.9902,-3.9824,0.0,0.0,0.716,0.7362,0.7645,0.7968,0.8452,0.8721,0.912,0.983,1.0286,1.0941,1.1935,1.2037,1.2533,1.3716,1.3254,1.3228,1.4162,1.3471,1.321,1.3448,1.3254,1.273,1.22,1.094,0.9836,0.8817,0.78,0.747,0.7709,0.7709,0.7763,0.7872,0.7872,0.7812,0.7698,0.7578,0.7459,0.7339,0.7214,0.716,0.7111,0.0,0.0,0.0,0.0,0.0,0.0,0.0,0.0,0.0,0.0,0.0,0.0,0.0,0.0,0.0,0.0,0.0,0.0,0.0,0.0,0.0,0.0,0.0,0.0,0.0,0.0,0.0,0.0,0.0,0.0,0.0,0.0,0.0,-1.4471,-1.6943,-1.8799,-1.9725,-2.1346,-2.2417,-2.2461,-2.3293,-2.3781,-2.3781,-2.4062,-2.4235,-2.4249,-2.4249,-2.4502,-2.5241,-2.6574,-2.7759,-2.8359,-3.1993,-3.3988,-3.4371,-3.6812,-3.8028,-3.8028,-3.8506,-3.8672,-3.8652,-3.9082,-3.9258,-3.9258,-3.9707,-3.9902,-3.9902,-3.9902,-3.9902,-3.9922,-3.9922,-3.9922,-3.9844,0.7085,0.7085,0.7214,0.7634,0.7752,0.8021,0.8667,0.8818,0.912,0.983,1.0272,1.0751,1.1288,1.1893,1.2406,1.28,1.2905,1.3182,1.3622,1.3505,1.338,1.3459,1.2729,1.1875,1.0992,0.9868,0.883,0.8072,0.7718,0.7676,0.7823,0.7823,0.7839,0.7872,0.7872,0.7856,0.7823,0.779,0.7752,0.7698,0.7404,0.7285,0.7279,0.0,0.0,0.0,0.0,0.0,0.0,0.0,0.0,0.0,0.0,0.0,0.0,0.0,0.0,0.0,0.0,0.0,0.0,0.0,0.0,0.0,0.0,0.0,0.0,0.0,0.0,0.0,0.0,0.0,0.0,0.0,-1.2455,-1.4309,-1.596,-1.7022,-1.8769,-2.1645,-2.2403,-2.2953,-2.3333,-2.3861,-2.4088,-2.4088,-2.4556,-2.493,-2.5144,-2.5157,-2.5772,-2.7349,-2.7821,-2.9396,-3.2259,-3.4018,-3.5876,-3.7521,-3.9067,-3.9829,-3.9849,-4.0625,-4.0586,-4.0019,-4.0449,-4.0273,-3.9726,-3.9844,-3.9902,-3.9902,-3.9902,-4.0078,-4.0351,-4.0351,-4.0351,-4.0332,0.7214,0.7235,0.7354,0.7731,0.7881,0.8183,0.8894,0.8926,0.9184,1.01,1.0466,1.0799,1.1412,1.2004,1.2484,1.2723,1.3077,1.3351,1.3454,1.3545,1.3314,1.3016,1.2394,1.1437,1.0092,0.9509,0.8747,0.7774,0.7774,0.7807,0.7872,0.7872,0.7899,0.7948,0.7948,0.7948,0.7948,0.7948,0.7948,0.7932,0.76,0.7461,0.7491,0.7513,0.7355,0.7133,0.7149,0.7018,0.6839,0.659,0.0,0.0,0.0,0.0,0.0,0.0,0.0,0.0,0.0,0.0,0.0,0.0,0.0,0.0,0.0,0.0,0.0,0.0,0.0,0.0,0.0,0.0,0.0,0.0,-1.3087,-1.5017,-1.716,-1.8217,-1.9876,-2.2704,-2.3273,-2.3567,-2.3915,-2.4436,-2.4703,-2.4583,-2.5117,-2.5464,-2.5504,-2.5625,-2.6289,-2.7339,-2.8259,-2.9974,-3.2561,-3.4847,-3.6723,-3.846,-4.0067,-4.0703,-4.0547,-4.1035,-4.0898,-4.0273,-4.0723,-4.0625,-4.0176,-4.0351,-4.043,0.0,0.0,0.0,0.0,0.0,-4.041,-4.0273,0.7394,0.7437,0.7512,0.7795,0.8072,0.844,0.9066,0.8969,0.9249,1.0444,1.0595,1.0957,1.1937,1.2281,1.2618,1.3088,1.3301,1.3487,1.3535,1.3373,1.2975,1.2309,1.2055,1.1101,0.9578,0.9367,0.884,0.7872,0.7872,0.7872,0.7872,0.7883,0.7948,0.8051,0.8068,0.8084,0.8095,0.8095,0.8095,0.8095,0.7607,0.7604,0.7632,0.7525,0.7397,0.7268,0.7274,0.722,0.7182,0.6874,0.0,0.0,0.0,0.0,0.0,0.0,0.0,0.0,0.0,0.0,0.0,0.0,0.0,0.0,0.0,0.0,0.0,0.0,0.0,0.0,0.0,0.0,0.0,0.0,-1.3368,-1.5186,-1.8216,-1.9924,-2.1418,-2.3253,-2.3888,-2.4235,-2.4289,-2.501,-2.5371,-2.5144,-2.5638,-2.5852,-2.5625,0.0,0.0,0.0,0.0,-3.0215,-3.1447,-3.497,-3.7414,-3.8286,-4.0158,-4.0898,-4.0527,-4.0566,-4.0332,-3.9922,-4.0391,-4.0547,-4.0488,-4.0859,-4.1055,-4.1074,-4.0723,-4.0332,-4.0019,-4.0449,-4.0351,-4.0098,0.772,0.7731,0.7806,0.8104,0.818,0.8386,0.8851,0.8732,0.9012,1.0207,1.0358,1.0627,1.1338,1.2064,1.2472,1.2584,1.2973,1.3247,1.3496,1.2675,1.2162,1.22,1.0858,0.9849,0.9466,0.863,0.8088,0.7872,0.7872,0.7872,0.7872,0.7728,0.778,0.8057,0.7907,0.8001,0.8345,0.7951,0.7951,0.7961,0.7661,0.7572,0.7754,0.7733,0.747,0.7286,0.7621,0.7611,0.7448,0.7091,0.4711,0.1701,-0.0227,-0.1229,0.0,0.0,0.0,0.0,0.0,0.0,0.0,0.0,0.0,0.0,0.0,0.0,0.0,0.0,0.0,0.0,0.0,0.0,0.0,-1.2972,-1.4526,-1.6606,-1.902,-2.0712,-2.2344,-2.3877,-2.4128,-2.4396,-2.4863,-2.5064,-2.5237,-2.5411,-2.5758,-2.6039,-2.6213,-2.6493,-2.6787,-2.7081,-2.9143,-3.1417,-3.4067,-3.6178,-3.8481,-4.101,0.0,0.0,-4.0527,-4.0879,-4.0625,-3.9941,-4.0723,-4.0664,-4.0019,-4.0117,-4.0351,-4.0684,-4.0937,-4.0781,-4.0449,-4.0898,-4.0996,-4.0937,0.8161,0.8054,0.8072,0.8191,0.831,0.8452,0.8874,0.8667,0.8904,0.997,1.0218,1.0476,1.0856,1.1844,1.2264,1.2079,1.2617,1.2936,1.2779,1.2269,1.154,1.0811,0.9895,0.9268,0.8738,0.8204,0.7872,0.7872,0.7872,0.7872,0.7877,0.7687,0.7668,0.798,0.7898,0.8005,0.8056,0.8056,0.7922,0.765,0.7388,0.7227,0.7436,0.7461,0.7449,0.7301,0.7426,0.748,0.7373,0.715,0.5152,0.2253,-0.0584,-0.1725,-0.1922,0.0,0.0,0.0,0.0,0.0,0.0,0.0,0.0,0.0,0.0,0.0,0.0,0.0,0.0,-1.0798,-1.175,0.0,-1.3043,-1.3451,-1.4635,-1.6434,-1.9096,-2.0396,-2.1912,-2.4341,-2.4636,-2.481,-2.5251,-2.5424,-2.5638,-2.5932,-2.6226,-2.652,-2.6814,-2.7094,-2.7402,-2.7696,-3.0451,-3.2796,-3.4915,-3.717,-3.9187,-4.1152,-4.0508,-4.0098,-3.9883,-4.0332,-4.0176,-3.959,-4.0469,-4.0605,-4.0234,-4.0449,-4.0781,-4.1191,-4.1406,-4.123,-4.0879,-4.1094,-4.1308,-4.1523,0.8517,0.8355,0.8278,0.8278,0.8388,0.8581,0.8764,0.8635,0.8818,0.9669,0.996,1.0229,1.0595,1.1532,1.2059,1.1855,1.2215,1.2333,1.202,1.1557,1.0639,0.934,0.9157,0.8708,0.7867,0.7872,0.7872,0.7872,0.7872,0.7872,0.7877,0.7723,0.775,0.7862,0.7957,0.7942,0.7844,0.8006,0.7878,0.7589,0.708,0.6944,0.6979,0.7071,0.7071,0.7112,0.7241,0.7226,0.7184,0.7151,0.5598,0.3092,-0.0241,-0.1544,-0.1877,-0.184,-0.1831,0.0,0.0,0.0,0.0,0.0,0.0,0.0,0.0,-0.5485,-0.6545,-0.9557,-1.0287,-1.0864,-1.2342,-1.3043,-1.3571,-1.4026,-1.5007,-1.6514,-1.9276,-2.0524,-2.2188,-2.4921,-2.5197,-2.5277,-2.5571,-2.5865,-2.6159,-2.6453,-2.6747,-2.7068,-2.7415,-2.7602,-2.7869,-2.8217,-3.1632,-3.3836,-3.4916,-3.7873,-3.9643,-4.0491,-4.0137,-3.9746,-3.9473,-3.9844,-3.9805,-3.9492,-4.0293,-4.0703,-4.0801,-4.1152,-4.1543,-4.1914,-4.1914,-4.1758,-4.1523,-4.1445,-4.1621,-4.1973,0.8517,0.8495,0.8474,0.8474,0.8495,0.8528,0.8549,0.8528,0.87,0.9217,0.9303,0.9658,1.0541,1.0939,1.1467,1.2264,1.1712,1.1468,1.1709,0.9997,0.9106,0.934,0.8455,0.7873,0.7867,0.7872,0.7872,0.7872,0.7872,0.7872,0.7872,0.764,0.7759,0.8135,0.7715,0.8053,0.866,0.7781,0.7677,0.795,0.7008,0.6651,0.6714,0.661,0.6647,0.6832,0.722,0.7288,0.7203,0.6801,0.4865,0.2559,0.1915,-0.0127,-0.2029,-0.1973,-0.1956,-0.1943,-0.1881,-0.2126,-0.2401,-0.2438,-0.371,-0.5408,0.0,-0.8666,-1.0373,-1.2288,-1.3125,-1.3467,-1.3633,-1.4091,-1.4408,-1.4586,-1.7029,-1.9298,-2.0027,-2.2736,-2.4961,-2.5798,-2.5625,-2.5585,-2.5879,-2.6172,-2.6466,-2.6747,-2.7054,-2.7455,-2.8016,-2.7829,-2.7963,-2.8537,-3.1753,-3.3724,-3.4229,-3.7571,-3.9796,-4.0608,-4.0121,-4.0059,-4.0371,-4.043,-4.043,-4.041,-4.0898,-4.1308,-4.166,-4.1699,-4.1973,-4.2363,-4.2363,-4.2558,-4.2812,-4.2422,-4.2324,-4.2363,0.8517,0.8517,0.8517,0.8517,0.8517,0.8517,0.8517,0.8517,0.8635,0.8958,0.9249,0.9572,0.9981,1.0724,1.1467,1.2145,1.1566,1.095,1.0423,0.9242,0.8484,0.8082,0.7791,0.7725,0.7769,0.7839,0.7872,0.7872,0.7872,0.7872,0.7877,0.7566,0.7424,0.7601,0.7294,0.7337,0.7612,0.7377,0.7292,0.7196,0.6823,0.6623,0.6578,0.6488,0.6564,0.6664,0.6797,0.6731,0.0,0.6523,0.5185,0.3344,0.2446,0.0769,-0.1014,-0.1988,-0.236,-0.2375,-0.2614,-0.2872,-0.3147,-0.2941,-0.363,-0.4994,-0.7626,-0.8633,-0.9968,-1.292,-1.3742,-1.3961,-1.4172,-1.4416,-1.4619,-1.4692,-1.6839,-1.8876,-1.9981,-2.2413,-2.4572,-2.5919,-2.6146,-2.6319,-2.6453,-2.6573,-2.6827,-2.7295,-2.7442,-2.7696,-2.8123,-2.803,-2.815,-2.8591,-3.0607,-3.2523,-3.4343,-3.6202,-3.8205,-4.0257,-3.9736,-3.9658,-4.0156,-4.041,-4.0664,-4.0918,-4.1348,-4.1641,-4.1816,-4.207,-4.2422,-4.2812,-4.2812,-4.3066,-4.3398,-4.2969,-4.2969,-4.3164,0.8517,0.8517,0.8517,0.8517,0.8517,0.8517,0.8517,0.8517,0.8581,0.8743,0.9066,0.9378,0.9647,1.0616,1.1413,1.1822,1.1338,1.0545,0.9429,0.8713,0.7993,0.7254,0.7442,0.7633,0.7698,0.7812,0.7872,0.7872,0.7872,0.7872,0.7755,0.7426,0.7263,0.7174,0.6963,0.6827,0.6787,0.6974,0.6902,0.6819,0.6619,0.659,0.6578,0.6488,0.6439,0.6415,0.6415,0.6374,0.6317,0.6317,0.5082,0.3477,0.2459,0.0901,-0.0892,-0.2144,-0.266,-0.2817,-0.3107,-0.3384,-0.3665,-0.3457,-0.4042,-0.5318,-0.7996,-0.8872,-1.0095,-1.3309,-1.4058,-1.4205,-1.4456,-1.4659,-1.4781,-1.4781,-1.641,-1.8338,-2.0099,-2.2171,-2.407,-2.5909,-2.652,-2.6854,-2.6934,-2.7014,-2.7241,-2.7669,-2.7776,-2.7949,-2.8257,-2.819,-2.8243,-2.847,-3.0101,-3.1655,-3.3241,-3.5295,-3.7294,-3.8956,-3.9432,-3.9814,-4.0254,-4.0566,-4.0937,-4.1367,-4.166,-4.1933,-4.2168,-4.248,-4.2871,-4.3242,-4.3242,-4.3437,-4.3672,-4.3359,-4.3437,-4.3711,0.8517,0.8517,0.8517,0.8517,0.8517,0.8517,0.8517,0.8517,0.8517,0.8528,0.8538,0.8894,0.9809,1.0562,1.1101,1.1348,1.08,1.0108,0.9148,0.8259,0.7595,0.7243,0.7279,0.7459,0.7698,0.7812,0.7872,0.7872,0.7872,0.775,0.7388,0.7393,0.7331,0.706,0.6787,0.702,0.7393,0.6787,0.6864,0.7137,0.6727,0.659,0.6578,0.6488,0.6398,0.6321,0.6321,0.6321,0.6317,0.6317,0.4429,0.2194,0.2226,-0.0,-0.2503,-0.2632,-0.2896,-0.3163,-0.3163,-0.3459,-0.3775,-0.383,-0.5256,-0.7,-0.8786,-1.0327,-1.2043,-1.3833,-1.444,-1.4684,-1.47,-1.4838,-1.496,-1.496,-1.649,-1.8387,-2.0468,-2.2287,-2.4132,-2.6175,-2.664,-2.6934,-2.7228,-2.7509,-2.7682,-2.7696,-2.7963,-2.827,-2.8577,-2.831,-2.815,-2.8163,-3.1123,-3.1764,-2.9837,-3.5659,-3.8056,-3.6831,-3.922,-4.0723,-4.1133,-4.1152,-4.1387,-4.1777,-4.1797,-4.2266,-4.3047,-4.3047,-4.3301,-4.3691,-4.3691,-4.3691,-4.3711,-4.3691,-4.3691,-4.3711,0.8517,0.8517,0.8517,0.8517,0.8517,0.8517,0.8517,0.8322,0.8247,0.8452,0.8646,0.0,0.0,0.0,0.0,0.0,0.9225,0.847,0.8623,0.7502,0.6731,0.6665,0.7024,0.7252,0.7339,0.7616,0.772,0.7638,0.7595,0.7355,0.7164,0.6875,0.6687,0.6602,0.6337,0.6311,0.6404,0.6398,0.6485,0.6544,0.661,0.65,0.6504,0.6533,0.6488,0.6406,0.0,0.6329,0.6114,0.5837,0.4496,0.2884,0.1477,-0.0134,-0.1739,-0.2837,-0.3523,-0.3939,-0.37,-0.4023,-0.4358,-0.4416,-0.4907,-0.613,-0.8846,-0.9934,-1.1038,-1.3893,-1.438,-1.4303,-1.4389,-1.4381,-1.4373,-1.4645,-1.7526,-1.9958,-2.0656,-2.3538,-2.5909,-2.6507,-2.7108,-2.7442,-2.7549,-2.7642,-2.7776,-2.7976,-2.8083,-2.819,-2.8297,-2.8203,-2.8136,-2.8136,-2.8994,-2.9756,-3.044,-3.364,-3.594,-3.7162,-3.9698,-4.1035,-4.1191,-4.1465,-4.166,-4.1836,-4.2402,-4.2812,-4.3105,-4.3379,-4.3574,-4.3711,-4.3711,-4.3711,-4.3711,-4.3711,-4.3711,-4.3711,0.0,0.8517,0.8517,0.8517,0.8517,0.0,0.0,0.0,0.0,0.0,0.0,0.0,0.0,0.0,0.0,0.0,0.0,0.7819,0.7731,0.6857,0.6255,0.6168,0.6505,0.6721,0.6806,0.7074,0.7101,0.7106,0.7062,0.696,0.6696,0.6414,0.6204,0.609,0.5914,0.5851,0.5912,0.6002,0.6145,0.6313,0.6276,0.6341,0.6447,0.6374,0.6313,0.0,0.63,0.6255,0.6074,0.5562,0.4229,0.2621,0.094,-0.0539,-0.2157,-0.3283,-0.3999,-0.4169,-0.4246,-0.4292,-0.448,-0.4709,-0.4609,-0.5391,-0.8576,-0.9376,-1.0335,-1.362,-1.4057,-1.3945,-1.4168,-1.4114,-1.4252,-1.4423,-1.6921,-1.9411,-2.0748,-2.3246,-2.5501,-2.6812,-2.7402,-2.7696,-2.7696,-2.7789,-2.7936,-2.8123,-2.8136,-2.8136,-2.8136,-2.8136,-2.8096,-2.7989,-2.8454,-2.8991,-2.9963,-3.3178,-3.6131,-3.8669,-4.0529,-4.1387,-4.1406,-4.1836,-4.2109,-4.2285,-4.2832,-4.3164,-4.332,-4.3594,-4.3711,-4.3711,-4.3711,-4.3711,-4.373,-4.3887,-4.3945,-4.3926,0.0,0.0,0.8517,0.0,0.0,0.0,0.0,0.0,0.0,0.0,0.0,0.0,0.0,0.0,0.0,0.0,0.0,0.0,0.6536,0.6398,0.6133,0.5644,0.5669,0.5824,0.5927,0.6148,0.6303,0.6497,0.6502,0.6327,0.6076,0.6085,0.5852,0.5614,0.5631,0.5635,0.5643,0.5741,0.5978,0.6268,0.6019,0.6121,0.639,0.6051,0.5921,0.5929,0.6023,0.61,0.6054,0.5363,0.339,0.1164,0.0525,-0.1334,-0.3384,-0.4118,-0.4175,-0.3956,-0.4493,-0.4376,-0.4109,-0.467,-0.4548,-0.4996,-0.8159,-0.9142,-1.0134,-1.2885,-1.3465,-1.3722,-1.3752,-1.406,-1.4423,-1.4751,-1.5536,-1.727,-2.0996,-2.1949,-2.343,-2.6928,-2.7535,-2.7722,-2.7722,-2.7976,-2.8136,-2.8136,0.0,-2.8136,-2.8136,-2.8136,-2.8016,-2.7736,-2.9335,-2.9514,-2.84,-3.3852,-3.8199,-4.1211,-4.1621,-4.1816,-4.1836,-4.2266,-4.2695,-4.3086,-4.3105,-4.334,-4.3711,-4.373,-4.373,-4.375,-4.3769,-4.3769,-4.3828,-4.4258,-4.4433,-4.4375,0.0,0.0,0.0,0.0,0.0,0.0,0.0,0.0,0.0,0.0,0.0,0.0,0.0,0.0,0.0,0.0,0.0,0.0,0.5946,0.5571,0.5323,0.5218,0.5485,0.5649,0.5708,0.5887,0.5969,0.594,0.5817,0.562,0.547,0.5397,0.5356,0.5251,0.5451,0.5541,0.5553,0.5712,0.5835,0.5916,0.5916,0.5974,0.6051,0.6027,0.5978,0.5929,0.6023,0.6023,0.5757,0.4109,0.1573,-0.107,-0.2328,-0.3064,-0.3531,-0.3723,-0.3601,-0.3624,-0.3535,-0.3844,-0.4164,-0.4423,-0.4606,-0.5228,-0.6965,-0.8329,-0.9698,-1.1484,-1.2443,-1.3036,-1.3389,-1.3671,-1.4454,-1.5996,-1.8144,-2.04,-2.2688,-2.4628,-2.6259,-2.7268,-2.7722,-2.803,-2.803,-2.8096,-2.8136,-2.8136,-2.8136,-2.8136,-2.8136,-2.8136,-2.811,-2.803,-2.8519,-2.8701,-2.8714,-3.3254,-3.7649,-4.1641,-4.1758,-4.1973,-4.2285,-4.2715,-4.2969,-4.3105,-4.3418,-4.3613,-4.373,-4.4082,-4.4219,-4.4258,-4.457,-4.4687,-4.4707,-4.4824,-4.4863,-4.4844,0.0,0.0,0.0,0.0,0.0,0.0,0.0,0.0,0.0,0.0,0.0,0.0,0.0,0.0,0.0,0.0,0.0,0.0,0.0,0.4656,0.4534,0.4678,0.4885,0.5038,0.5129,0.5282,0.5354,0.5336,0.5337,0.5257,0.5205,0.5147,0.5002,0.4797,0.5158,0.5222,0.5008,0.533,0.5578,0.0,0.0,0.5655,0.5786,0.568,0.5631,0.5635,0.5725,0.4976,0.3959,0.2933,0.0525,-0.2159,-0.3289,-0.349,-0.3408,-0.3435,-0.3339,-0.3244,-0.3285,-0.361,-0.3944,-0.4022,-0.4815,-0.591,-0.7189,-0.8712,-1.0252,-1.1622,-1.2313,-1.2762,-1.3089,-1.417,-1.5433,-1.666,-1.9264,-2.1689,-2.3572,-2.5163,-2.6618,-2.7455,-2.7749,-2.8003,-2.8136,-2.803,-2.8003,-2.8136,-2.8136,-2.8136,-2.8136,-2.8136,-2.8136,-2.8136,-2.8318,-2.9467,-3.1587,-3.4523,-3.781,-4.1797,-4.2187,-4.248,-4.2734,-4.3164,-4.3476,-4.3672,0.0,-4.4121,-4.4297,-4.457,-4.4668,-4.4687,-4.4941,-4.5019,-4.5039,-4.5234,-4.5312,-4.5332,0.0,0.0,0.0,0.0,0.0,0.0,0.0,0.0,0.0,0.0,0.0,0.7149,0.7591,0.7121,0.0,0.0,0.0,0.0,0.0,0.0,0.3969,0.4128,0.423,0.4361,0.4532,0.4626,0.4712,0.4802,0.4879,0.492,0.492,0.4906,0.474,0.4215,0.4763,0.4669,0.4245,0.4786,0.5178,0.543,0.5235,0.5296,0.5537,0.0,0.5157,0.5239,0.5328,0.3835,0.1844,0.1901,-0.0,-0.2281,-0.2965,-0.3158,-0.3225,-0.3231,-0.3177,-0.2982,-0.347,-0.3513,-0.3711,-0.4068,-0.5173,-0.6573,-0.7808,-0.9351,-1.0934,-1.2011,-1.2494,-1.2691,-1.2868,-1.4805,-1.6607,-1.7271,-1.9403,-2.19,-2.4118,-2.4943,-2.5929,-2.7423,-2.7655,-2.7802,-2.8056,-2.7856,-2.7816,-2.8123,-2.8136,-2.8136,-2.8136,-2.8136,-2.8136,-2.8305,-2.8824,-3.0969,-3.5399,-3.6225,-3.8401,-4.1973,-4.2715,-4.3144,-4.3262,-4.3633,-4.4043,-4.4492,-4.4492,-4.4687,-4.5039,-4.5098,-4.5117,-4.5117,-4.5176,-4.5195,-4.5234,-4.5625,-4.5762,-4.582,0.0,0.0,0.0,0.0,0.0,0.0,0.0,0.0,0.0,0.0,0.8193,0.7372,0.0,0.0,0.0,0.0,0.0,0.0,0.0,0.0,0.0,0.3944,0.4104,0.4242,0.4344,0.4434,0.4528,0.4618,0.4634,0.4643,0.4643,0.4237,0.4079,0.3983,0.4212,0.406,0.3647,0.4654,0.4931,0.455,0.4919,0.5145,0.5194,0.5132,0.5116,0.0,0.5235,0.3746,0.1668,0.1719,-0.0,-0.2258,-0.2719,-0.2632,-0.253,-0.2842,-0.2763,-0.2533,-0.3019,-0.3209,-0.3558,-0.5474,-0.6111,-0.6559,-0.7731,-0.9178,-1.0352,-1.0326,-1.134,-1.2264,-1.2528,-1.3312,-1.5168,-1.8465,-1.9799,-2.1804,-2.5448,-2.6475,-2.6914,-2.7001,-2.7402,-2.7722,-2.7762,-2.7722,-2.7816,-2.8123,-2.8136,-2.8136,-2.8136,-2.8136,-2.8318,-2.8655,-2.9495,-3.1919,-3.5786,-3.6345,-3.8671,-4.2851,-4.3008,-4.3457,-4.418,-4.4238,-4.4512,-4.4922,-4.4922,0.0,-4.5058,-4.541,-4.5566,-4.5605,-4.5937,-4.6074,-4.6094,-4.6172,-4.6191,-4.6211,0.0,0.0,0.0,0.0,0.0,0.0,0.0,0.9628,0.9729,1.0244,0.9745,0.9053,0.8156,0.7417,0.6861,0.0,0.0,0.0,0.0,0.0,0.0,0.3895,0.403,0.4144,0.423,0.4365,0.4434,0.443,0.0,0.4573,0.4573,0.4372,0.4139,0.398,0.4358,0.4085,0.3375,0.4431,0.4656,0.4143,0.4759,0.4965,0.4965,0.4965,0.4994,0.0,0.5141,0.3675,0.1634,0.1686,-0.0,-0.2099,-0.2448,-0.2498,-0.253,-0.2566,-0.2477,-0.2384,-0.2718,-0.3513,-0.4629,-0.5272,-0.7014,-0.8566,-0.8716,-1.005,-1.1283,-1.1194,-1.1618,-1.2244,-1.2461,-1.3708,-1.5705,-1.8426,-2.0451,-2.2642,-2.5505,-2.664,-2.7215,-2.7068,-2.7308,-2.7589,-2.7896,-2.7655,-2.7655,-2.811,-2.8136,-2.8136,-2.8136,-2.8487,-2.8655,-2.916,-2.983,-3.1798,-3.4932,-3.6254,-3.8612,-4.1739,-4.3041,-4.3984,-4.4414,-4.4629,-4.4961,-4.5371,-4.5371,0.0,-4.5703,-4.5918,-4.5996,-4.6016,-4.623,-4.6308,-4.6308,-4.6308,-4.6308,-4.6308,0.0,0.0,0.0,0.0,0.0,0.0,0.0,1.0402,1.0605,1.1341,1.1232,1.0632,0.9601,0.8277,0.7371,0.0,0.0,0.0,0.0,0.0,0.0,0.0,0.0,0.0,0.414,0.0,0.0,0.4328,0.4491,0.0,0.0,0.0,0.0,0.0,0.4399,0.4107,0.321,0.4325,0.4533,0.0,0.0,0.4834,0.4834,0.0,0.0,0.0,0.0,0.3392,0.16,0.1425,-0.0247,-0.2053,-0.2158,-0.2352,-0.2668,-0.2407,-0.2322,-0.2532,-0.2857,-0.4257,-0.552,-0.5819,-0.8184,-1.0372,-1.0122,-1.1195,-1.2182,-1.2155,-1.2121,-1.2142,-1.2284,-1.3793,-1.5761,-1.799,-2.0382,-2.2948,-2.514,-2.6547,-2.7215,-2.7094,-2.7188,-2.7455,-2.7909,-2.7535,-2.7509,-2.8096,-2.8136,0.0,-2.8136,-2.8655,-2.9019,-2.9579,-3.0097,-3.1446,-3.4175,-3.6258,-3.8469,-4.0657,-4.3208,-4.4492,-4.4687,-4.5019,-4.541,-4.582,-4.582,0.0,0.0,-4.6308,-4.6308,-4.6308,-4.6308,-4.6308,-4.6308,-4.6308,-4.6308,-4.6308,0.0,0.0,0.0,0.0,0.0,0.0,0.0,1.048,1.0967,1.2437,1.1517,1.0734,1.0899,0.9771,0.8574,0.0,0.0,0.0,0.0,0.0,0.0,0.0,0.0,0.0,0.0,0.0,0.0,0.4422,0.4524,0.0,0.0,0.0,0.0,0.0,0.0,0.3638,0.315,0.4303,0.0,0.0,0.0,0.0,0.0,0.0,0.0,0.0,0.0,0.2696,0.1551,0.0472,-0.0846,-0.1969,-0.2113,-0.2199,-0.224,-0.2215,-0.2289,-0.2823,-0.4604,-0.4948,-0.56,-0.891,-0.9753,-1.0235,-1.1321,-1.1717,-1.1837,-1.1708,-1.1572,-1.1518,-1.1674,-1.1962,-1.3466,-1.7356,-1.8836,-2.0979,-2.4777,-2.6547,-2.7068,-2.6533,-2.6947,-2.7281,-2.7348,-2.7295,-2.7509,-2.8096,-2.8136,0.0,-2.8136,-2.8655,-2.9116,-2.9901,-3.0425,-3.1889,-3.489,-3.6777,-3.9014,-4.1482,-4.3476,-4.4805,-4.5566,-4.5605,-4.584,-4.625,-4.625,0.0,0.0,-4.6308,-4.6308,-4.6308,-4.6308,-4.6308,-4.6308,-4.6308,-4.6308,-4.6308,0.0,0.0,0.0,0.0,0.0,0.0,1.045,1.0386,1.0619,1.1805,1.1394,1.0913,1.0744,1.0086,0.9207,0.7949,0.0,0.0,0.0,0.0,0.0,0.0,0.0,0.0,0.0,0.0,0.4157,0.4193,0.4336,0.0,0.0,0.0,0.0,0.0,0.0,0.4146,0.3692,0.4518,0.0,0.0,0.0,0.0,0.0,0.0,0.0,0.0,0.0,0.0,0.0542,0.0115,-0.083,-0.1941,-0.2001,-0.2099,-0.2199,-0.2243,-0.2984,-0.3891,-0.4717,-0.6248,-0.7923,-0.9484,-1.0595,-1.1314,-1.1623,-1.1701,-1.1633,-1.1396,-1.1294,-1.1545,-1.244,-1.218,-1.3321,-1.7689,-1.8713,-2.0259,-2.425,-2.5948,-2.6782,-2.6694,-2.7014,-2.7335,-2.7509,-2.7362,-2.7509,-2.8096,-2.8136,0.0,-2.8136,-2.8819,-2.9322,-2.9943,-3.0652,-3.164,-3.3293,-3.655,-3.8785,-4.0031,-4.35,-4.5351,-4.5683,-4.5937,-4.6152,-4.6308,-4.6308,0.0,0.0,-4.6308,-4.6308,-4.6308,-4.6308,-4.6308,-4.6308,-4.6308,-4.6308,-4.6308,0.0,0.0,0.0,0.0,0.0,0.9385,1.0434,1.0169,1.0211,1.1344,1.1086,1.069,1.0334,0.9877,0.9165,0.8268,0.7032,0.0,0.0,0.0,0.0,0.0,0.0,0.0,0.0,0.0,0.405,0.4075,0.4251,0.4357,0.0,0.0,0.4491,0.4589,0.0,0.0,0.0,0.0,0.0,0.0,0.0,0.0,0.0,0.0,0.0,0.0,0.0,0.0,0.0,0.0,0.0,-0.1921,-0.1939,-0.2018,-0.2252,-0.2762,-0.3645,-0.4811,-0.5818,-0.7632,-0.9584,-1.0121,-1.1038,-1.1864,-1.1606,-1.1518,-1.155,-1.1696,-1.174,-1.2127,-1.3526,-1.334,-1.4239,-1.8143,-1.9169,-2.0637,-2.3778,-2.5723,-2.6822,-2.6854,-2.7241,-2.7575,-2.7682,-2.7589,-2.7696,-2.811,0.0,0.0,-2.8136,-2.8852,-2.9583,-3.0083,-3.0736,-3.1453,-3.2559,-3.6047,-3.8129,-3.9303,-4.305,-4.5203,-4.5879,-4.6172,-4.6308,-4.6308,-4.6308,0.0,0.0,-4.6308,-4.6308,-4.6308,-4.6308,-4.6308,-4.6308,-4.6308,-4.6308,-4.6308,0.0,0.0,0.0,0.0,0.0,0.0,1.0434,0.9944,0.9846,1.122,1.0323,0.9755,1.014,0.908,0.8292,0.8284,0.6659,0.0,0.0,0.0,0.0,0.0,0.0,0.0,0.0,0.0,0.4079,0.4173,0.4349,0.4389,0.4304,0.4393,0.4389,0.4312,0.0,0.0,0.0,0.0,0.0,0.0,0.0,0.0,0.0,0.0,0.0,0.0,0.0,0.0,0.0,0.0,0.0,0.0,0.0,-0.1977,-0.2245,-0.3774,-0.4382,-0.5276,-0.8257,-0.9198,-0.9729,-1.1188,-1.1626,-1.1586,-1.143,-1.1274,-1.153,-1.2712,-1.2938,-1.3269,-1.4769,-1.5241,-1.6137,-1.8496,-2.023,-2.1952,-2.4035,-2.6042,-2.7148,-2.6854,-2.7602,-2.8016,-2.7722,-2.7963,-2.8136,0.0,0.0,0.0,-2.8136,-2.8711,-2.9379,-3.0405,-3.0699,-3.1692,-3.3232,-3.5149,-3.7418,-4.0077,-4.1904,-4.4078,-4.6289,-4.6308,-4.6308,-4.6308,0.0,0.0,0.0,-4.6308,-4.6308,-4.6308,-4.6308,-4.6308,-4.6308,-4.6308,-4.6308,-4.6308,0.0,0.0,0.0,0.0,0.0,0.0,0.0,0.8765,0.8739,0.9362,0.9066,0.8927,0.9426,0.8738,0.8292,0.8292,0.7075,0.0,0.0,0.0,0.0,0.0,0.0,0.0,0.0,0.405,0.4173,0.4259,0.4377,0.4451,0.4487,0.4516,0.4549,0.4581,0.4638,0.4696,0.0,0.0,0.0,0.0,0.0,0.0,0.0,0.0,0.0,0.0,0.0,0.0,0.0,0.0,0.0,0.0,0.0,0.0,0.0,-0.6202,-0.6419,-0.6361,-0.827,-0.959,-1.0461,-1.102,-1.1084,-1.1023,-1.1077,-1.0968,-1.1242,-1.2648,-1.2856,-1.3524,-1.6237,-1.6294,-1.6937,-2.0078,-2.0934,-2.2163,-2.4604,-2.5801,-2.6598,-2.6827,-2.7255,-2.7509,-2.7415,-2.7856,-2.8136,0.0,0.0,0.0,-2.8444,-2.9163,-2.9727,-3.0419,-3.0909,-3.192,-3.3246,-3.5397,-3.7679,-4.0094,-4.2173,-4.436,-4.6308,-4.6308,-4.6308,0.0,0.0,0.0,0.0,-4.6308,-4.6308,-4.6308,-4.6308,-4.6308,-4.6308,-4.6308,-4.6308,-4.6308,0.0,0.0,0.0,0.0,0.0,0.0,0.0,0.8069,0.8015,0.8369,0.8203,0.83,0.8836,0.8349,0.8065,0.8276,0.7236,0.0,0.0,0.0,0.0,0.0,0.0,0.0,0.3702,0.4042,0.419,0.4124,0.4466,0.4651,0.4671,0.4741,0.4753,0.4708,0.4741,0.4769,0.0,0.0,0.0,0.0,0.0,0.0,0.1512,0.0,0.0,0.0,0.0,0.0,0.0,0.0,0.0,0.0,0.0,0.0,0.0,0.0,-0.7602,-0.7542,-0.9012,-1.0084,-1.0975,-1.109,-1.0914,-1.0772,-1.0982,-1.127,-1.1916,-1.3426,-1.4289,-1.5471,-1.7973,-1.8259,-1.8823,-2.139,-2.2019,-2.2889,-2.5033,-2.5922,-2.6584,-2.7121,-2.7321,-2.7468,-2.7589,-2.7923,0.0,0.0,0.0,0.0,-2.8591,-2.9217,-2.9941,-3.0587,-3.1352,-3.219,-3.3422,-3.4985,-3.7285,-4.0138,-4.1638,-4.3745,-4.6308,-4.6308,-4.6308,0.0,0.0,0.0,0.0,-4.6308,-4.6308,-4.6308,-4.6308,-4.6308,-4.6308,-4.6308,-4.6308,-4.6308,0.0,0.0,0.0,0.0,0.0,0.0,0.0,0.788,0.7594,0.7918,0.7829,0.7935,0.8438,0.7886,0.7683,0.8102,0.0,0.0,0.0,0.0,0.0,0.0,0.0,0.0,0.3381,0.397,0.4231,0.3919,0.4649,0.4941,0.4867,0.5047,0.499,0.4749,0.4822,0.4802,0.4716,0.0,0.0,0.0,0.3062,0.238,0.0,0.0,0.0,0.0,0.0,0.0,0.0,0.0,0.0,0.0,0.0,0.0,0.0,0.0,0.0,0.0,0.0,-1.0792,-1.0968,-1.1253,-1.1016,-1.0778,-1.1214,-1.2135,0.0,-1.5081,-1.6758,-1.835,-2.0007,-2.0762,-2.1436,-2.2422,-2.3416,-2.4278,-2.5309,-2.6162,-2.7028,-2.7602,-2.7669,-2.7789,-2.811,-2.8136,0.0,0.0,0.0,0.0,-2.8617,-2.9403,-3.0038,-3.0881,-3.2048,-3.288,-3.3729,-3.4051,-3.6358,-4.0481,-4.0481,-4.2479,-4.6308,-4.6308,-4.6308,0.0,0.0,0.0,0.0,-4.6308,-4.6308,-4.6308,-4.6308,-4.6308,-4.6308,-4.6308,-4.6308,-4.6308,0.0,0.0,0.0,0.0,0.0,0.0,0.0,0.0,0.0,0.0,0.7488,0.7594,0.7724,0.7586,0.7382,0.0,0.0,0.0,0.0,0.0,0.0,0.0,0.0,0.0,0.4156,0.4426,0.4566,0.4571,0.4874,0.51,0.5149,0.5263,0.5247,0.5116,0.5067,0.4953,0.4806,0.4806,0.0,0.0,0.2005,0.0804,0.0,0.0,0.0,0.0,-0.1516,-0.1636,0.0,0.0,0.0,0.0,0.0,0.0,0.0,0.0,-0.9348,-0.9718,-1.0196,0.0,-1.048,-1.0656,-1.0622,-1.0885,0.0,-1.2941,-1.3906,-1.6974,-1.7791,-1.865,-2.0507,-2.1317,-2.1995,-2.298,-2.3832,-2.4854,-2.5896,-2.6413,-2.6961,-2.7321,-2.7362,-2.7575,-2.8096,-2.8136,0.0,0.0,0.0,-2.8377,-2.8911,-2.9859,-3.0657,-3.1189,-3.2556,-3.3474,-3.3729,-3.4051,-3.6358,-4.0481,-4.0481,-4.2479,-4.6308,-4.6308,-4.6308,0.0,0.0,0.0,-4.6308,-4.6308,-4.6308,-4.6308,-4.6308,-4.6308,-4.6308,-4.6308,-4.6308,-4.6308,0.0,0.0,0.0,0.0,0.0,0.0,0.0,0.0,0.0,0.0,0.0,0.7399,0.0,0.0,0.0,0.0,0.0,0.0,0.0,0.0,0.0,0.0,0.0,0.4222,0.4212,0.4574,0.473,0.4652,0.5038,0.5279,0.5365,0.5414,0.5394,0.53,0.5124,0.499,0.4892,0.4307,0.3099,0.1512,0.0999,0.0,0.0,0.0,0.0,0.0,-0.1617,-0.1931,0.0,-0.3271,-0.4193,-0.5364,0.0,0.0,0.0,0.0,-0.9659,-0.9978,-1.0134,-1.027,-1.0555,-1.1425,-1.1687,-1.2103,-1.3914,-1.4882,-1.5992,-1.7994,-1.9089,-2.0121,-2.1366,-2.2092,-2.2854,-2.3844,-2.4494,-2.5361,-2.6413,-2.6773,-2.7081,-2.7241,-2.7388,-2.7589,0.0,0.0,0.0,0.0,0.0,-2.8404,-2.9005,-2.99,-3.0755,-3.1511,-3.2923,-3.3729,-3.3729,-3.4197,-3.5959,-3.9209,-4.0118,-4.212,-4.5021,-4.5939,-4.6308,0.0,0.0,0.0,-4.6308,-4.6308,-4.6308,-4.6308,-4.6308,-4.6308,-4.6308,-4.6308,-4.6308,-4.6308,0.0,0.0,0.0,0.0,0.0,0.0,0.0,0.0,0.0,0.0,0.0,0.0,0.0,0.0,0.0,0.0,0.0,0.0,0.0,0.0,0.0,0.0,0.4246,0.4246,0.4046,0.4606,0.4775,0.4511,0.5123,0.5488,0.5569,0.5586,0.5524,0.539,0.5128,0.4894,0.4652,0.3592,0.2481,0.1309,0.0297,0.0,0.0,0.0,0.0,0.0,0.0,0.0,0.0,-0.377,-0.5341,-0.705,-0.7304,0.0,0.0,0.0,0.0,0.0,-1.0315,-1.0742,-1.1461,-1.2775,-1.3261,-1.3776,-1.5508,-1.7179,-1.856,-1.8942,-2.0542,-2.1812,-2.2445,-2.3015,-2.3641,-2.4608,-2.5244,-2.5938,-2.6747,-2.7041,-2.7228,-2.7321,-2.7509,0.0,0.0,0.0,0.0,0.0,0.0,-2.8457,-2.9005,-2.9941,-3.0881,-3.1763,-3.3009,-3.3758,-3.3802,-3.4402,-3.56,-3.7575,-3.9573,-4.1581,-4.3389,-4.5392,-4.6308,-4.6308,0.0,0.0,-4.6308,-4.6308,-4.6308,-4.6308,-4.6308,-4.6308,-4.6308,-4.6308,-4.6308,-4.6308,0.0,0.0,0.0,0.0,0.0,0.0,0.0,0.0,0.0,0.0,0.0,0.0,0.0,0.0,0.0,0.0,0.0,0.0,0.0,0.0,0.0,0.4251,0.4434,0.4651,0.4802,0.4982,0.5126,0.523,0.5594,0.5765,0.5855,0.5933,0.5798,0.548,0.5288,0.4585,0.3621,0.3341,0.2009,0.0201,0.01,0.0,0.0,0.0,0.0,0.0,0.0,0.0,0.0,-0.556,-0.6442,-0.6911,-0.8113,0.0,0.0,0.0,0.0,0.0,-1.1869,-1.307,-1.3821,-1.3464,-1.4222,-1.5662,-1.7493,-1.8485,-1.9448,-2.1038,-2.1953,-2.2712,-2.3322,-2.3562,-2.4007,-2.5114,-2.6043,-2.672,-2.6814,-2.6867,-2.7081,-2.7575,0.0,0.0,0.0,0.0,0.0,0.0,0.0,-2.8684,-2.9018,-3.0134,-3.1105,-3.1763,-3.3009,-3.3861,-3.4139,-3.4519,-3.56,-3.7575,-3.9573,-4.1581,-4.3389,-4.5392,-4.6308,-4.6308,0.0,-4.6308,-4.6308,-4.6308,-4.6308,-4.6308,-4.6308,-4.6308,-4.6308,-4.6308,-4.6308,-4.6483,0.0,0.0,0.0,0.0,0.0,0.0,0.0,0.0,0.0,0.0,0.0,0.0,0.0,0.0,0.0,0.0,0.0,0.0,0.0,0.0,0.0,0.4361,0.4594,0.4818,0.5043,0.5177,0.5337,0.5524,0.5696,0.5855,0.599,0.5982,0.581,0.55,0.47,0.4019,0.336,0.2062,0.0915,-0.0101,0.0,0.0,0.0,0.0,0.0,0.0,0.0,0.0,0.0,0.0,-0.7264,-0.7987,-0.8474,0.0,0.0,0.0,0.0,0.0,-1.3204,-1.481,-1.6205,-1.6333,-1.7323,-1.866,-2.0472,-2.1293,-2.1798,-2.2533,-2.29,-2.3409,-2.3823,-2.4028,-2.4634,-2.5872,-2.6746,-2.7241,-2.7081,-2.7335,-2.7575,0.0,0.0,0.0,0.0,0.0,0.0,0.0,0.0,0.0,-2.9366,-3.035,-3.1409,-3.2379,-3.3278,-3.3978,-3.4475,-3.4636,-3.5069,-3.6143,-3.9043,-4.1023,-4.1941,-4.4845,-4.6308,-4.6308,0.0,-4.6308,-4.6308,-4.6308,-4.6308,-4.6308,-4.6308,-4.6308,-4.6308,-4.6308,-4.6658,-4.7181,0.0,0.0,0.0,0.0,0.0,0.0,0.0,0.0,0.0,0.0,0.0,0.0,0.0,0.0,0.0,0.0,0.0,0.0,0.0,0.0,0.4136,0.4365,0.4651,0.492,0.5165,0.5279,0.5471,0.5741,0.5831,0.5945,0.608,0.599,0.5682,0.5073,0.4082,0.3316,0.2566,0.0732,-0.0103,-0.0507,0.0,0.0,0.0,0.0,0.0,0.0,0.0,0.0,0.0,0.0,0.0,0.0,0.0,0.0,0.0,-1.1269,-1.2113,-1.3056,-1.4683,-1.6567,-1.8182,-1.9301,-2.0169,-2.1043,-2.2759,-2.3286,-2.3479,-2.3454,-2.3778,-2.4053,-2.4346,-2.4748,-2.5425,-2.6573,-2.7321,-2.7615,-2.7402,-2.7749,-2.7949,-2.7722,0.0,0.0,0.0,0.0,0.0,0.0,0.0,0.0,-2.9713,-3.0594,-3.1727,-3.2942,-3.3547,-3.4036,-3.4695,-3.471,-3.471,-3.471,-3.8143,-4.0118,-4.0662,-4.4118,-4.5939,-4.6308,-4.6308,-4.6308,-4.6308,-4.6308,-4.6308,-4.6308,-4.6308,-4.6308,-4.6308,-4.6308,-4.6832,-4.7701,0.0,0.0,0.0,0.0,0.0,0.0,0.0,0.0,0.0,0.0,0.0,0.0,0.0,0.0,0.0,0.0,0.0,0.0,0.0,0.0,0.4083,0.4189,0.4528,0.492,0.5353,0.5529,0.5749,0.6023,0.6108,0.6157,0.617,0.6084,0.5284,0.3989,0.3807,0.2361,0.0218,0.0105,-0.0622,-0.1553,-0.1628,0.0,0.0,0.0,0.0,0.0,0.0,0.0,0.0,0.0,0.0,0.0,0.0,0.0,-1.0899,-1.1831,-1.3216,-1.4894,-1.675,-1.8347,-1.9838,-2.1424,-2.1322,-2.1059,-2.2683,-2.3141,-2.3454,-2.4035,-2.4685,-2.499,-2.5205,-2.5858,-2.6453,-2.6774,-2.7321,-2.7696,-2.7669,0.0,-2.7722,0.0,0.0,0.0,0.0,0.0,0.0,0.0,0.0,0.0,-2.9727,-3.1155,-3.2312,-3.2956,-3.3547,-3.4036,-3.4695,-3.471,-3.471,-3.471,-3.6869,-3.8661,-4.0481,-4.2658,-4.4649,-4.6308,-4.6308,-4.6308,-4.6308,-4.6308,-4.6308,-4.6308,-4.6308,-4.6308,-4.6308,-4.6308,-4.6832,-4.7701,0.0,0.0,0.0,0.0,0.0,0.0,0.0,0.0,0.0,0.0,0.0,0.0,0.0,0.0,0.0,0.0,0.0,0.0,0.0,0.4018,0.4185,0.4328,0.4679,0.5006,0.5288,0.5524,0.5806,0.6133,0.6223,0.6235,0.6178,0.5199,0.4548,0.388,0.2219,0.091,-0.0,-0.0746,-0.1258,-0.1659,-0.1629,-0.1617,0.0,0.0,0.0,0.0,0.0,0.0,0.0,0.0,-0.8418,-0.8642,-0.8866,-0.9979,-1.167,-1.2968,-1.4644,-1.6392,-1.8479,-1.9835,-2.0907,-2.1914,-2.2013,-2.2248,-2.4134,-2.4405,-2.4406,-2.471,-2.5135,-2.5568,-2.5609,-2.6439,-2.7175,-2.7108,-2.7589,-2.7909,-2.7722,-2.7856,0.0,0.0,0.0,0.0,0.0,0.0,0.0,0.0,0.0,0.0,-3.0336,-3.1458,-3.252,-3.3336,-3.3547,-3.4036,-3.4695,-3.471,-3.471,-3.471,-3.6684,-3.8677,-4.0481,-4.2479,-4.3763,-4.4491,-4.5763,-4.5568,-4.4668,-4.5763,-4.6308,-4.6308,-4.6308,-4.6308,-4.6308,-4.6308,-4.6832,-4.7701,0.0,0.0,0.0,0.0,0.0,0.0,0.0,0.0,0.0,0.0,0.0,0.0,0.0,0.0,0.0,0.0,0.0,0.0,0.3887,0.4071,0.4238,0.4385,0.4736,0.5026,0.5239,0.5508,0.5806,0.6141,0.6231,0.5968,0.5496,0.4533,0.3556,0.2605,0.0825,-0.0115,-0.0665,-0.1401,-0.1693,-0.1671,-0.1633,-0.1817,0.0,0.0,0.0,0.0,0.0,0.0,0.0,0.0,-0.8513,-0.8886,-0.9608,-1.0847,-1.2548,-1.4583,-1.637,-1.8081,-1.9881,-2.0872,-2.1632,-2.2425,-2.2581,-2.3116,-2.4816,-2.5035,-2.4907,-2.5332,-2.5687,-2.6017,-2.6294,-2.6919,-2.7415,-2.7402,-2.7816,-2.807,0.0,0.0,0.0,0.0,0.0,0.0,0.0,0.0,0.0,0.0,0.0,0.0,0.0,-3.1883,-3.2699,-3.3715,-3.3729,-3.4036,-3.4695,-3.471,-3.471,-3.471,-3.5957,-3.7959,-4.0481,-4.1941,-4.2836,-4.3567,-4.5392,-4.5216,-4.3567,-4.4845,-4.5392,-4.5392,-4.6114,-4.6308,-4.6308,-4.6308,-4.6832,-4.7701,0.0,0.0,0.0,0.0,0.0,0.0,0.0,0.0,0.6416,0.6416,0.5947,0.0,0.0,0.0,0.0,0.0,0.0,0.0,0.3895,0.4071,0.421,0.4295,0.4643,0.4961,0.523,0.55,0.5658,0.593,0.6137,0.5492,0.4025,0.3965,0.244,-0.0,-0.0,-0.0583,-0.1834,-0.1742,-0.1704,-0.1699,-0.164,-0.2219,-0.3321,0.0,0.0,0.0,0.0,0.0,0.0,0.0,-0.8391,-0.8744,-1.102,-1.2259,-1.3591,-1.637,-1.8291,-1.9819,-2.0922,-2.1418,-2.1957,-2.3248,-2.3154,-2.3304,-2.4609,-2.4585,-2.4752,-2.6109,-2.6159,-2.6226,-2.7108,-2.7028,-2.7014,-2.7602,-2.7949,-2.8136,0.0,0.0,0.0,0.0,0.0,0.0,0.0,0.0,0.0,0.0,0.0,0.0,0.0,-3.2426,-3.3071,-3.3715,-3.3729,-3.4036,-3.4695,-3.471,-3.471,-3.471,-3.471,-3.6699,-4.0481,-4.0481,-4.1581,-4.3389,-4.5392,-4.5216,-4.3389,-4.3389,-4.3389,-4.3567,-4.5568,-4.6308,-4.6308,-4.6308,-4.6832,-4.7701,0.0,0.0,0.0,0.0,0.0,0.0,0.0,0.0,0.6284,0.5881,0.5352,0.0,0.0,0.0,0.0,0.0,0.0,0.0,0.3985,0.4108,0.421,0.4295,0.3912,0.4058,0.4769,0.4296,0.4328,0.4734,0.4703,0.4025,0.2725,0.1586,0.0717,-0.0,-0.0812,-0.1492,-0.1804,-0.1734,-0.1704,-0.1805,-0.2457,-0.2899,-0.3257,0.0,0.0,0.0,0.0,0.0,0.0,0.0,0.0,0.0,-1.0882,-1.2427,-1.4025,-1.6202,-1.815,-1.9674,-2.0561,-2.1703,-2.2746,-2.3041,-2.3604,-2.4147,-2.4814,-2.474,-2.4879,-2.6095,-2.6147,-2.6386,-2.7175,-2.7362,-2.7495,-2.7669,-2.7949,0.0,0.0,0.0,0.0,0.0,0.0,0.0,0.0,0.0,0.0,0.0,0.0,0.0,0.0,-3.2543,-3.2968,-3.3378,-3.3612,-3.3934,-3.4358,-3.4592,-3.471,-3.471,-3.471,-3.6699,-4.0481,-4.0481,-4.0843,-4.1581,-4.4845,-4.4473,-4.1581,-4.4296,-4.4668,-4.3567,-4.5568,-4.6308,-4.6308,-4.6308,-4.6832,-4.7701,0.0,0.0,0.0,0.0,0.0,0.0,0.6416,0.6218,0.5947,0.5617,0.4948,0.4422,0.0,0.0,0.0,0.3671,0.3732,0.3826,0.3973,0.3755,0.3682,0.3757,0.3014,0.291,0.3603,0.3173,0.2748,0.2585,0.3069,0.2674,0.1318,0.0361,-0.0238,-0.0696,-0.152,-0.1859,-0.1827,-0.1765,-0.1949,-0.2467,-0.3127,-0.3751,-0.4449,0.0,0.0,0.0,0.0,0.0,0.0,0.0,0.0,0.0,-1.1502,-1.2912,-1.4429,-1.7412,-1.9114,-2.0389,-2.157,-2.2582,-2.3593,-2.383,-2.4454,-2.4892,-2.5166,-2.5283,-2.5479,-2.6213,-2.6492,-2.6624,-2.7362,-2.7575,-2.7696,-2.7696,0.0,0.0,0.0,0.0,0.0,0.0,0.0,0.0,0.0,0.0,0.0,0.0,0.0,0.0,0.0,-3.2232,-3.2732,-3.3232,-3.3568,-3.389,-3.4212,-3.4549,-3.471,-3.471,-3.471,-3.6328,-3.9391,-3.9391,-3.9391,-3.9391,-4.1761,-4.1941,-4.0662,-4.3941,-4.3941,-4.2479,-4.5216,-4.6308,-4.6308,-4.6483,-4.7007,-4.7701,0.0,0.0,0.0,0.0,0.0,0.0,0.635,0.5881,0.555,0.5484,0.4622,0.4041,0.0,0.0,0.0,0.3748,0.3765,0.3722,0.381,0.3037,0.2616,0.2774,0.205,0.1744,0.181,0.1826,0.1233,0.0114,0.128,0.1282,-0.0115,-0.0119,-0.0835,-0.1883,-0.2029,-0.2026,-0.1877,-0.2043,-0.2656,-0.3477,-0.374,-0.4878,-0.642,-0.652,0.0,0.0,0.0,0.0,0.0,0.0,0.0,0.0,-1.2621,-1.3721,-1.4892,-1.909,-2.0642,-2.1373,-2.3015,-2.3637,-2.4175,-2.5179,-2.5383,-2.5518,-2.5806,-2.5962,-2.6092,-2.6694,-2.6827,-2.7001,-2.7589,-2.7696,-2.7696,0.0,0.0,0.0,0.0,0.0,0.0,0.0,0.0,0.0,0.0,0.0,0.0,0.0,0.0,0.0,0.0,-3.2054,-3.2361,-3.3188,-3.3539,-3.3875,-3.4168,-3.4534,-3.471,-3.471,-3.471,-3.56,-3.7407,-3.7575,-3.7759,-3.7759,-3.7759,-3.8677,-4.03,-4.23,-4.212,-4.0843,-4.4668,-4.6114,-4.6308,-4.6832,-4.7354,-4.7701,0.0,0.0,0.0,0.0,0.0,0.0,0.5815,0.5683,0.5286,0.4422,0.4161,0.391,0.3695,0.3572,0.0,0.3748,0.3136,0.2771,0.2834,0.213,0.169,0.1696,0.149,0.1163,0.0604,0.0409,0.0211,-0.0,0.0346,-0.0117,-0.1523,-0.1534,-0.1644,-0.185,-0.278,-0.2665,-0.1961,-0.3786,-0.4127,-0.3524,-0.5339,-0.6098,-0.6295,-0.7174,-0.7561,0.0,0.0,0.0,0.0,0.0,0.0,0.0,-1.2766,-1.429,-1.6143,-1.8697,-1.9936,-2.0747,-2.1835,-2.3049,-2.4136,-2.4625,-2.508,-2.5524,-2.583,-2.5825,-2.5684,-2.6174,-2.6653,-2.7001,-2.7589,-2.7696,0.0,0.0,0.0,0.0,0.0,0.0,0.0,0.0,0.0,0.0,0.0,0.0,0.0,0.0,0.0,0.0,-3.2054,-3.2409,-3.263,-3.2866,-3.3436,-3.3758,-3.3832,-3.4417,-3.471,0.0,-3.471,-3.4882,-3.5428,-3.6869,-3.8494,-3.9755,-3.831,-3.7759,-3.831,-4.03,-4.0843,-4.0662,-4.3033,-4.5021,-4.6308,-4.6832,-4.7354,-4.7701,0.0,0.0,0.0,0.0,0.0,0.0,0.0,0.0,0.4763,0.411,0.3761,0.3551,0.3489,0.3475,0.0,0.0,0.2727,0.2366,0.1993,0.1209,0.05,0.0088,-0.0,-0.0187,-0.0573,-0.0792,-0.0819,-0.0737,-0.0776,-0.1137,-0.1821,-0.185,-0.2193,-0.2612,-0.277,-0.3137,-0.3709,-0.4292,-0.4779,-0.5389,-0.6424,-0.7021,-0.7406,-0.7885,-0.7984,-0.7923,-0.7923,0.0,0.0,0.0,0.0,0.0,0.0,0.0,-1.673,-1.8896,-2.0047,-2.0946,-2.219,-2.34,-2.4534,-2.5251,-2.567,-2.5972,-2.6132,-2.6039,-2.6066,-2.6202,-2.668,-2.7175,-2.7615,0.0,0.0,0.0,0.0,0.0,0.0,0.0,0.0,0.0,0.0,0.0,0.0,0.0,0.0,0.0,0.0,-3.1151,-3.1685,-3.2054,-3.2586,-3.2763,-3.3393,-3.3729,-3.3729,-3.4373,-3.471,-3.471,-3.471,-3.471,-3.4695,-3.5786,-3.7223,-3.9026,-3.7054,-3.6684,-3.7759,-3.8677,-3.9573,-4.0662,-4.2658,-4.4668,-4.6308,-4.7007,-4.7528,-4.7874,0.0,0.0,0.0,0.0,0.0,0.0,0.0,0.0,0.0,0.3919,0.3493,0.3262,0.3352,0.3299,0.3018,0.0,0.0,0.0,0.1096,0.0241,-0.0665,-0.138,-0.1505,-0.1438,-0.1442,-0.1547,-0.1606,-0.1617,-0.1696,-0.1848,-0.2078,-0.1925,-0.2395,-0.36,-0.2778,-0.364,-0.5651,-0.4868,-0.575,-0.7453,-0.7365,-0.7913,-0.8723,-0.8479,-0.8384,-0.8377,-0.8296,-0.8336,-0.8549,-0.8934,0.0,0.0,0.0,0.0,-1.7145,-1.9249,-2.0278,-2.1109,-2.2885,-2.3844,-2.4888,-2.5962,-2.6319,-2.6333,-2.6373,-2.6386,-2.64,-2.6453,-2.6894,-2.7335,0.0,0.0,0.0,0.0,0.0,0.0,0.0,0.0,0.0,0.0,0.0,0.0,0.0,0.0,0.0,0.0,0.0,0.0,-3.1315,-3.1863,-3.2409,-3.2778,-3.3393,-3.3729,-3.3729,-3.4373,-3.471,-3.471,-3.471,-3.471,-3.471,-3.471,-3.5615,-3.7054,-3.5428,-3.56,-3.7038,-3.7038,-3.8494,-4.0662,-4.23,-4.4296,-4.6483,-4.7354,-4.7701,-4.7874,0.0,0.0,0.0,0.0,0.0,0.0,0.0,0.0,0.0,0.0,0.3226,0.3262,0.3352,0.2795,0.2354,0.2414,0.1159,0.0313,0.0157,0.0,0.0,-0.1689,-0.1757,-0.1719,-0.1751,-0.1611,-0.1564,-0.1617,-0.1655,-0.2229,-0.3275,-0.2263,-0.241,-0.3659,-0.4589,-0.5253,-0.5988,-0.7886,-0.8183,-0.7713,-0.8608,-0.9024,-0.8906,-0.8866,-0.8852,-0.8879,-0.9117,-0.913,-0.93,-1.0616,-1.2043,0.0,0.0,0.0,-1.8101,-1.8686,-1.9585,-2.065,-2.1645,-2.3382,-2.5085,-2.5919,-2.6012,-2.6079,-2.6333,-2.6386,-2.6466,-2.6707,-2.7028,0.0,0.0,0.0,0.0,0.0,0.0,0.0,0.0,0.0,0.0,0.0,0.0,0.0,0.0,0.0,0.0,0.0,0.0,0.0,-3.1315,-3.2232,-3.2778,-3.2778,-3.3393,-3.3729,-3.3729,-3.4373,-3.471,-3.471,-3.471,-3.471,-3.471,-3.471,-3.4882,-3.5069,-3.4882,-3.4882,-3.5069,-3.5069,-3.7238,-4.0481,-4.0843,-4.3371,-4.7007,-4.7528,-4.8047,-4.8372,0.0,0.0,0.0,0.0,0.0,0.0,0.0,0.0,0.0,0.0,0.0,0.3182,0.2788,0.249,0.1942,0.1058,0.0386,-0.0235,-0.0706,-0.12,-0.1548,-0.1651,-0.1599,-0.1555,-0.1696,-0.1569,-0.1523,-0.1566,-0.224,-0.294,-0.3552,-0.3642,-0.4372,-0.5535,-0.5373,-0.6308,-0.8039,-0.8266,-0.8573,-0.9004,-0.9248,-0.9551,-0.9754,-0.9252,-0.9367,-0.9781,-0.9585,-0.9517,-0.9766,-1.1106,-1.2368,-1.376,-1.5056,0.0,0.0,0.0,-1.9504,-2.0527,-2.2074,-2.3497,-2.4914,-2.5838,-2.6079,-2.6239,-2.636,-2.652,-2.6667,-2.68,0.0,0.0,0.0,0.0,0.0,0.0,0.0,0.0,0.0,0.0,0.0,0.0,0.0,0.0,0.0,0.0,0.0,0.0,0.0,-3.1329,-3.1685,-3.2409,-3.2851,-3.3027,-3.3495,-3.3817,-3.4007,-3.4475,-3.471,-3.471,-3.471,-3.471,-3.471,-3.471,-3.471,-3.471,-3.471,-3.471,-3.471,-3.471,-3.7054,-4.0498,-4.0703,-4.354,-4.7364,-4.7889,-4.8412,-4.8892,0.0,0.0,0.0,0.0,0.0,0.0,0.0,0.0,0.0,0.0,0.0,0.3132,0.233,0.0,0.0,0.0,-0.0232,-0.0627,-0.1257,-0.1414,-0.1583,-0.1934,-0.1614,-0.1648,-0.2065,-0.1877,-0.1849,-0.1907,-0.3097,-0.383,-0.4358,-0.5145,-0.6216,-0.7482,-0.6179,-0.7022,-0.9432,-0.8561,-0.8877,-1.0086,-0.9869,-1.0086,-1.0487,-1.0372,-1.082,-1.1388,-1.1328,-1.1039,-1.1016,-1.2525,-1.3341,-1.4188,-1.5883,-1.7283,0.0,0.0,0.0,-2.0355,-2.2137,-2.3382,-2.4337,-2.5291,-2.5856,-2.6135,-2.6373,-2.6613,-2.6827,0.0,0.0,0.0,0.0,0.0,0.0,0.0,0.0,0.0,0.0,0.0,0.0,0.0,0.0,0.0,0.0,0.0,0.0,0.0,0.0,-3.1507,-3.2054,-3.2409,-3.2732,-3.3232,-3.3568,-3.389,-3.4212,-3.4549,-3.471,-3.471,-3.471,-3.471,-3.471,-3.471,-3.4753,-3.4812,-3.4739,-3.4753,-3.4827,-3.4827,-3.7241,-4.0789,-4.1063,-4.3942,-4.7997,-4.821,-4.8696,-4.9332,0.0,0.0,0.0,0.0,0.0,0.0,0.0,0.0,0.0,0.0,0.0,0.3132,0.233,0.1562,0.0831,-0.0,-0.0775,-0.1257,-0.1335,-0.1651,-0.2199,-0.2982,-0.228,0.0,-0.3109,-0.2841,-0.2869,-0.3044,-0.4078,-0.5244,-0.6679,-0.6676,-0.7452,-0.8712,-0.7593,-0.785,-0.9408,-0.956,-0.9854,-1.0304,-1.0704,-1.0806,-1.0864,-1.2712,-1.3654,-1.4121,-1.5512,-1.4925,-1.3944,-1.6236,-1.5772,-1.4759,-1.738,-1.8444,-1.8674,0.0,0.0,0.0,-2.1195,-2.2206,-2.3242,-2.4298,-2.5085,-2.5583,-2.6333,-2.6613,-2.6827,-2.6827,0.0,0.0,0.0,0.0,0.0,0.0,0.0,0.0,0.0,0.0,0.0,0.0,0.0,0.0,0.0,0.0,0.0,0.0,0.0,-3.1507,-3.2054,-3.2054,-3.2376,-3.3232,-3.3568,-3.389,-3.4212,-3.4549,-3.471,-3.471,-3.471,-3.471,-3.471,-3.471,-3.4856,-3.5119,-3.4827,-3.4871,-3.5134,-3.5134,-3.7727,-4.1542,-4.156,-4.4526,-4.8929,-4.8506,-4.8871,-4.968,0.0,0.0,0.0,0.0,0.0,0.0,0.0,0.0,0.0,0.0,0.0,0.0,0.0,0.0923,0.0077,-0.0775,-0.1172,-0.1335,-0.1492,-0.2118,-0.2507,-0.2507,-0.3132,-0.3418,-0.3203,-0.371,-0.3961,-0.3914,-0.5165,-0.6073,-0.678,-0.7541,-0.8171,-0.8648,-0.831,-0.8562,-0.9401,-0.9693,-0.9998,-1.0317,-1.0765,-1.109,-1.1427,-1.3239,-1.4241,-1.4656,-1.6157,-1.6155,-1.5538,-1.7224,-1.6936,-1.635,-1.8277,-1.8746,-1.8746,-1.9084,-1.9591,-2.0257,-2.1108,-2.1901,-2.2965,-2.3987,-2.4775,-2.5518,-2.6079,-2.648,-2.6827,-2.6827,0.0,0.0,0.0,0.0,0.0,0.0,0.0,0.0,0.0,0.0,0.0,0.0,0.0,0.0,0.0,0.0,0.0,0.0,0.0,0.0,-3.2395,-3.2612,-3.3038,-3.3554,-3.3875,-3.4197,-3.4534,-3.4651,-3.471,-3.471,-3.471,-3.471,-3.471,-3.49,-3.5061,-3.5163,-3.5266,-3.5368,-3.547,-3.547,-3.7961,-4.1628,-4.2242,-4.5169,-4.9009,-4.9182,-4.9466,-4.968,0.0,0.0,0.0,0.0,0.0,0.0,0.0,0.0,0.4101,0.372,0.0,0.0,0.0,0.0,-0.0395,-0.1337,-0.1414,-0.1571,-0.2042,-0.2429,-0.2741,-0.3054,-0.3597,-0.3872,-0.3645,-0.4466,-0.4928,-0.4881,-0.6214,-0.6959,-0.7232,-0.8053,-0.8438,-0.8492,-0.8696,-0.8981,-0.9327,-0.9673,-0.9998,-1.0458,-1.1731,-1.2013,-1.183,-1.4557,-1.5345,-1.5138,-1.7308,-1.7513,-1.7164,-1.9027,-1.8913,-1.8228,-1.9496,-1.9431,-1.9,-1.9253,-1.9531,-1.9978,-2.07,-2.1414,-2.2236,-2.3387,-2.4324,-2.5179,-2.5657,-2.6253,-2.6707,-2.68,0.0,0.0,0.0,0.0,0.0,0.0,0.0,0.0,0.0,0.0,0.0,0.0,0.0,0.0,0.0,0.0,0.0,0.0,0.0,0.0,-3.2749,-3.2892,-3.327,-3.3875,-3.4212,-3.449,-3.4695,-3.471,-3.471,-3.471,-3.4812,-3.4871,-3.4871,-3.5178,-3.5383,-3.55,-3.5705,-3.5807,-3.5807,-3.5807,-3.8306,-4.1988,-4.2672,-4.5556,-4.921,-4.942,-4.9661,-4.968,0.0,0.0,0.0,0.0,0.0,0.0,0.3709,0.3785,0.3899,0.3826,0.0,0.0,0.0,0.0,0.0,-0.1501,-0.1655,-0.2046,-0.3057,-0.2588,-0.2976,-0.4608,-0.3752,-0.3557,-0.4442,-0.5331,-0.5835,-0.5974,-0.7184,-0.797,-0.8262,-0.8269,-0.8343,-0.8486,-0.8804,-0.9022,-0.9191,-0.9639,-1.0005,-1.0614,-1.3579,-1.3491,-1.2052,-1.6536,-1.7086,-1.5861,-1.9139,-1.943,-1.8821,-2.2019,-2.1882,-2.0392,-2.0992,-2.0515,-1.9422,-1.9169,-1.9289,-1.9555,0.0,0.0,0.0,-2.238,-2.3438,-2.4572,-2.5352,-2.5972,-2.648,0.0,0.0,0.0,0.0,0.0,0.0,0.0,0.0,0.0,0.0,0.0,0.0,0.0,0.0,0.0,0.0,0.0,0.0,0.0,0.0,-3.1535,-3.2763,-3.2563,-3.3024,-3.4212,-3.4534,-3.471,-3.471,-3.471,-3.471,-3.4724,-3.5031,-3.5192,-3.5178,-3.5514,-3.5822,-3.6114,-3.6129,-3.6129,-3.6129,-3.6129,-3.8791,-4.269,-4.2863,-4.5723,-4.9572,-4.9216,-4.9394,-4.968,0.0,0.0,0.0,0.0,0.0,0.4448,0.3893,0.3867,0.3699,0.0,0.0,0.0,0.0348,-0.0699,-0.1385,-0.1695,-0.2534,-0.316,-0.3378,-0.3926,-0.4372,-0.4691,-0.5002,-0.5096,-0.505,-0.631,-0.6946,-0.6751,-0.7528,-0.8018,-0.8106,-0.8214,-0.8289,-0.835,-0.8866,-0.9178,-0.9347,-0.9795,-1.0161,-1.0623,-1.1855,-1.3174,-1.4513,-1.726,-1.8988,-2.0109,-2.2325,-2.2538,-2.1882,-2.2844,-2.2203,-2.0955,-2.0379,-2.0087,-1.976,-1.9688,-1.9845,-2.0074,-2.0146,0.0,0.0,0.0,0.0,0.0,-2.5312,0.0,-2.66,0.0,0.0,0.0,0.0,0.0,0.0,0.0,0.0,0.0,0.0,0.0,0.0,0.0,0.0,0.0,0.0,0.0,0.0,0.0,-3.0892,-3.1582,-3.3071,-3.346,-3.3954,-3.4563,-3.4651,-3.471,-3.471,-3.471,-3.4812,-3.5031,-3.5119,-3.528,-3.5529,-3.5836,-3.6041,-3.6129,-3.6363,-3.6466,-3.6466,-3.6466,-3.9189,-4.3244,-4.3222,-4.5886,-4.9643,-4.962,-4.9535,-4.9245,0.0,0.0,0.5676,0.4732,0.4446,0.4299,0.3948,0.363,0.327,0.0,0.0,0.0,-0.0619,-0.1249,-0.169,-0.1741,-0.2517,-0.3099,-0.3384,-0.3768,-0.4121,-0.4588,-0.4946,-0.5235,-0.5393,-0.6642,-0.7204,-0.7238,-0.7712,-0.7977,-0.8038,-0.8133,-0.8174,-0.8201,-0.8798,-0.9184,-0.9422,-1.0059,-1.0432,-1.0781,-1.3316,-1.4796,-1.5509,-1.887,-2.034,-2.0827,-2.2794,-2.2953,-2.2705,-2.3992,-2.3546,-2.2287,-2.1567,-2.0845,-2.0195,-2.0086,-2.0074,-2.0134,-2.0243,-2.0719,-2.1352,-2.2064,0.0,0.0,-2.4953,0.0,0.0,0.0,0.0,0.0,0.0,0.0,0.0,0.0,0.0,0.0,0.0,0.0,0.0,0.0,0.0,0.0,0.0,0.0,0.0,-3.0181,-3.0866,-3.1757,-3.3393,-3.3751,-3.4187,-3.4695,-3.4578,-3.4563,-3.471,-3.4578,-3.4724,-3.5163,-3.5295,-3.5529,-3.5851,-3.6173,-3.6319,-3.6334,-3.6524,-3.6809,-3.7007,-3.7007,-3.9399,-4.3208,-4.335,-4.5932,-4.9372,-4.9465,-4.9287,-4.9059,0.0,0.0,0.537,0.4778,0.4316,0.4063,0.4091,0.3387,0.2739,0.0,0.0918,-0.0464,-0.1337,-0.1448,-0.1544,-0.169,-0.2042,-0.2583,-0.3239,-0.2925,-0.3296,-0.4559,-0.4472,-0.4747,-0.5624,-0.6492,-0.7122,-0.7373,-0.7685,-0.7909,-0.8038,-0.8038,-0.8052,-0.8092,-0.8676,-0.911,-0.9462,-1.0344,-1.0877,-1.1531,-1.6301,-1.7127,-1.6068,-2.0832,-2.1619,-2.0221,-2.2036,-2.2317,-2.22,-2.4816,-2.4953,-2.3868,-2.3451,-2.2219,-2.0804,-2.0573,-2.0306,-2.016,-2.0391,-2.0897,-2.1358,-2.181,-2.2872,0.0,-2.4475,0.0,0.0,0.0,0.0,0.0,0.0,0.0,0.0,0.0,0.0,0.0,0.0,0.0,0.0,0.0,0.0,0.0,0.0,-2.8338,-2.9157,-2.9929,-3.0722,-3.1987,-3.3489,-3.3712,-3.4016,-3.4636,-3.4373,-3.4358,-3.4651,-3.4402,-3.4592,-3.5207,-3.5544,-3.5866,-3.6187,-3.6466,-3.6597,-3.6597,-3.6612,-3.7007,-3.7401,-3.775,-3.982,-4.3047,-4.3385,-4.5934,-4.9005,-4.9073,-4.9059,-4.9059,0.6683,0.5745,0.4784,0.4238,0.4168,0.4218,0.4434,0.3565,0.2592,0.1887,-0.0,-0.1441,-0.1613,-0.1839,-0.1947,-0.191,-0.2907,-0.3445,-0.3393,-0.4212,-0.4954,-0.5561,-0.5709,-0.6091,-0.6583,-0.7161,-0.7434,-0.7373,-0.7787,-0.8011,-0.8038,-0.8038,-0.8106,-0.8248,-0.8723,-0.9171,-0.9612,-1.0392,-1.1858,-1.3792,-1.5603,-1.7067,-1.8591,-2.1505,-2.3569,-2.4636,-2.4879,-2.4657,-2.441,-2.4071,-2.3875,-2.3439,-2.2708,-2.2174,-2.181,-2.148,-2.1131,-2.1071,-2.1396,-2.1308,-2.1408,-2.2318,-2.3014,0.0,-2.4382,-2.5144,-2.5545,0.0,0.0,0.0,0.0,0.0,0.0,0.0,0.0,0.0,0.0,0.0,0.0,0.0,0.0,0.0,0.0,-2.8696,-2.9207,-2.9446,-3.1338,-3.2713,-3.3153,-3.3915,-3.4333,-3.4314,-3.4256,-3.4256,-3.4314,-3.4505,-3.4929,-3.5558,-3.5866,-3.6202,-3.6509,-3.6583,-3.6597,-3.6597,-3.7007,-3.7204,-3.7568,-3.9772,-4.1849,-4.3963,-4.3754,-4.6114,-4.9527,-4.9245,-4.9059,-4.9059,0.6381,0.5532,0.4734,0.4172,0.4255,0.4246,0.384,0.292,0.1886,0.0824,-0.0743,-0.1716,-0.1686,-0.1816,-0.1935,-0.1919,-0.2744,-0.3021,-0.266,-0.391,-0.4873,-0.5055,-0.5828,-0.6479,-0.7156,-0.7373,-0.7522,-0.759,-0.7814,-0.7963,-0.8038,-0.8038,-0.878,-1.0198,-0.9304,-0.9925,-1.1557,-1.108,-1.1703,-1.3247,-1.6387,-1.8856,-2.1131,-2.3815,-2.5361,-2.6132,-2.5838,-2.5545,-2.5224,-2.4337,-2.3987,-2.3903,-2.3472,-2.2898,-2.2501,-2.235,-2.2111,-2.1898,-2.2179,-2.2078,-2.2141,-2.2701,-2.3117,0.0,0.0,-2.4877,-2.5291,-2.5291,-2.5651,0.0,0.0,0.0,0.0,0.0,0.0,0.0,0.0,0.0,0.0,0.0,0.0,0.0,0.0,-2.8446,-2.935,-3.0167,-3.1507,-3.2631,-3.335,-3.3669,-3.4042,-3.4212,-3.4066,-3.4051,-3.4212,-3.4549,-3.5017,-3.5646,-3.5968,-3.629,-3.6597,-3.6597,-3.6809,-3.7007,-3.7204,-3.7795,-3.8353,-3.9339,-4.1798,-4.4724,-4.5018,-4.6894,-4.939,-4.9162,-4.9204,-4.9411,0.618,0.5405,0.4699,0.4272,0.425,0.3978,0.3075,0.2067,0.0955,-0.0316,-0.1523,-0.2328,-0.2295,-0.2666,-0.2923,-0.2923,-0.3342,-0.3331,-0.2796,-0.4233,-0.5047,-0.5086,-0.6116,-0.6936,-0.759,-0.7529,-0.7604,-0.7814,-0.7841,-0.7916,-0.8038,-0.8072,-0.9257,-1.1492,-1.0204,-1.0894,-1.278,-1.209,-1.2277,-1.339,-1.7844,-2.0393,-2.1894,-2.5034,-2.6026,-2.5779,-2.5923,-2.5798,-2.5558,-2.4809,-2.4557,-2.4393,-2.4479,-2.3868,-2.3116,-2.3248,-2.3062,-2.2755,-2.2806,-2.2898,-2.2972,-2.2972,-2.3439,-2.3848,0.0,0.0,0.0,0.0,0.0,0.0,0.0,0.0,0.0,0.0,0.0,0.0,0.0,0.0,0.0,0.0,0.0,0.0,0.0,-2.8555,-2.9501,-3.0736,-3.1549,-3.2407,-3.3532,-3.3365,-3.3495,-3.411,-3.3875,-3.389,-3.4212,-3.4607,-3.5105,-3.5734,-3.6056,-3.6348,-3.6597,-3.6809,-3.7007,-3.7401,-3.7598,-3.8142,-3.8847,-3.9146,-4.1403,-4.5169,-4.5972,-4.7482,-4.9328,-4.9328,-4.9556,-4.9887,0.6428,0.5189,0.436,0.4283,0.3715,0.3243,0.3252,0.1484,-0.0323,-0.144,-0.3123,-0.4275,-0.4266,-0.5835,-0.6922,-0.6922,-0.7117,-0.6969,-0.6436,-0.739,-0.773,-0.7372,-0.7917,-0.8267,-0.8357,-0.8099,-0.7916,-0.7814,-0.7943,-0.8024,-0.8045,-0.818,-0.8529,-0.9219,-1.1388,-1.1752,-1.0863,-1.3239,-1.5678,-1.805,-1.944,-1.8876,-1.7673,-2.2173,-2.3841,-2.392,-2.5505,-2.5932,-2.5865,-2.5098,-2.4866,-2.4739,-2.4393,-2.4173,-2.3935,-2.4305,-2.381,-2.3249,-2.3786,-2.3654,-2.3287,-2.3572,-2.3741,-2.3848,-2.4142,0.0,-2.4382,-2.4676,0.0,-2.5144,-2.5224,0.0,0.0,0.0,0.0,0.0,-2.5732,0.0,0.0,0.0,0.0,0.0,0.0,0.0,0.0,-2.9927,-3.1596,-3.2676,-3.2985,-3.3365,-3.3744,-3.3788,-3.3758,-3.389,-3.4212,-3.4812,-3.5427,-3.607,-3.6392,-3.6568,-3.6597,-3.7007,-3.7401,-3.7401,-3.8384,-3.8605,-3.8713,-4.0726,-4.2942,-4.4636,-4.4709,-4.7024,-5.0259,-5.0259,-5.0301,-5.0342,0.6153,0.5078,0.4475,0.4528,0.3755,0.2912,0.2395,0.0337,-0.1268,-0.1754,-0.2521,-0.306,-0.3086,-0.4742,-0.5946,-0.605,-0.7193,-0.7653,0.0,-0.8195,-0.8497,-0.7752,-0.8488,-0.875,-0.8486,-0.8357,-0.818,-0.7943,-0.8099,-0.8174,-0.8174,-0.8241,-0.929,-1.1191,-1.2386,-1.3528,-1.472,-1.4771,-1.5771,-1.7316,-1.7659,-1.7441,0.0,-2.3668,-2.5689,-2.5193,-2.5594,-2.5692,-2.5678,0.0,-2.5268,-2.5335,-2.515,-2.4957,-2.4996,-2.5093,-2.4763,-2.4661,-2.493,-2.4608,-2.4382,-2.4529,-2.4529,-2.4516,-2.4462,-2.4583,-2.4703,-2.4649,0.0,0.0,0.0,0.0,0.0,0.0,-2.5758,0.0,0.0,0.0,-2.6533,0.0,0.0,0.0,0.0,0.0,0.0,0.0,0.0,-3.2589,-3.2829,-3.2994,-3.3261,-3.3436,-3.3627,-3.389,-3.4212,-3.5031,-3.5675,-3.6114,-3.6451,-3.6597,-3.6597,-3.7204,-3.7598,-3.8007,-3.858,-3.9089,-3.9336,-4.006,-4.2433,-4.526,-4.5003,-4.7173,-5.0425,-5.0425,-5.0591,-5.0818,0.5844,0.5002,0.4534,0.4302,0.3349,0.2234,0.0901,-0.0823,-0.1937,-0.1954,-0.2352,-0.2766,-0.2819,-0.4897,-0.6402,-0.6564,-0.8562,-0.9462,0.0,-0.9701,-0.9895,-0.9001,-0.9209,-0.9332,-0.9196,-0.8838,-0.8479,-0.8221,-0.8336,-0.837,-0.833,-0.8418,-0.9632,-1.1879,-1.2664,-1.4529,-1.6967,-1.6337,-1.6766,-1.8068,-1.8125,-1.8875,-2.0326,-2.4851,-2.6607,-2.656,-2.6052,-2.5919,-2.5985,-2.583,-2.5951,0.0,-2.5806,-2.5858,-2.5846,-2.5816,-2.5705,-2.5531,-2.5611,-2.5424,-2.5059,-2.4683,-2.4544,-2.4492,-2.4272,-2.4389,-2.4592,-2.4688,-2.4756,0.0,0.0,0.0,-2.517,-2.5438,0.0,-2.5451,0.0,-2.5598,0.0,0.0,0.0,0.0,0.0,0.0,0.0,0.0,0.0,0.0,-3.2793,-3.2778,-3.291,-3.3232,-3.3568,-3.3934,-3.4344,-3.5207,-3.5851,-3.6261,-3.6495,-3.6612,-3.6809,-3.7401,-3.7991,-3.8399,-3.8971,-3.9315,-3.9609,-3.9434,-4.1532,-4.484,-4.522,-4.7194,-5.0066,-5.062,-5.1005,-5.1473,0.5541,0.4954,0.4309,0.3134,0.2152,0.0761,-0.1398,-0.191,-0.1951,-0.2008,-0.3565,-0.4674,-0.4675,-0.8204,-1.0467,-1.0467,-1.261,-1.3746,-1.3286,0.0,-1.2537,-1.2671,-1.0805,-1.0053,-1.0832,-0.9592,-0.8845,-0.8689,-0.8696,-0.8621,-0.8479,-0.8777,-0.9008,-0.9439,-1.2291,-1.3866,-1.4653,-1.7703,-2.0473,-2.2934,-2.3011,-2.4418,-2.6344,0.0,-2.5012,-2.7201,-2.6894,0.0,0.0,-2.6712,-2.6548,0.0,0.0,0.0,-2.5964,-2.6547,-2.6172,-2.5571,-2.5865,-2.5718,-2.5098,-2.3634,-2.3224,-2.3224,-2.3212,-2.3212,-2.3548,-2.4869,-2.5064,-2.4983,-2.4716,-2.489,-2.4903,-2.4356,-2.497,0.0,0.0,-2.5157,0.0,0.0,0.0,0.0,0.0,0.0,0.0,0.0,0.0,0.0,-3.2822,-3.2778,-3.291,-3.3232,-3.3568,-3.4036,-3.468,-3.5324,-3.5953,-3.6583,-3.6597,-3.6809,-3.7401,-3.8007,-3.8384,-3.8971,-3.9557,-3.9561,-3.926,-3.9609,-4.0864,-4.2622,-4.4858,-4.7064,-4.9118,-5.1005,-5.2111,-5.2471,0.5253,0.4253,0.3573,0.3202,0.1608,-0.0113,-0.1686,-0.197,-0.2503,0.0,-0.4562,0.0,0.0,-0.9359,-1.0959,0.0,0.0,-1.4051,-1.3806,-1.3512,0.0,-1.2904,-1.1674,-1.0897,-1.0897,-0.9835,-0.9279,-0.9001,-0.8804,-0.8784,-0.8927,-0.8933,-0.9225,-0.9889,-1.2521,-1.5027,-1.7579,-1.8458,-2.0624,-2.354,0.0,-2.4985,-2.6895,0.0,0.0,-2.7509,-2.7215,-2.7308,0.0,-2.7158,-2.7224,-2.7344,-2.7158,-2.7091,-2.7078,-2.7148,-2.6907,0.0,0.0,0.0,-2.6241,-2.5698,-2.5551,-2.5499,-2.5319,-2.5281,-2.5335,-2.5577,-2.5504,-2.5277,-2.4983,-2.501,-2.501,-2.4823,-2.4863,-2.493,0.0,-2.5541,0.0,0.0,0.0,0.0,0.0,0.0,0.0,0.0,0.0,0.0,0.0,-3.2456,-3.2602,-3.2924,-3.3246,-3.3729,-3.4373,-3.4812,-3.5441,-3.6275,-3.6681,-3.6996,-3.7401,-3.8384,-3.8776,-3.8971,-3.9573,-3.9704,-3.9593,-3.972,-4.1766,-4.4652,-4.5549,-4.7845,-5.0864,-5.1951,-5.2312,-5.2713,0.4633,0.3403,0.2602,0.2651,0.0774,-0.1048,-0.1851,0.0,0.0,0.0,-0.5235,0.0,-0.8228,0.0,-1.1332,0.0,-1.328,-1.4268,-1.4223,-1.4042,0.0,-1.3784,-1.2742,-1.206,-1.2067,-1.09,-1.0158,-0.987,-0.9394,-0.915,-0.9232,-0.9245,-0.9537,-1.0066,-1.1926,-1.4973,-1.8885,-1.8891,-2.1079,-2.4665,0.0,-2.5691,0.0,0.0,-2.7762,-2.7808,0.0,-2.7696,-2.7829,-2.7642,-2.7696,-2.7829,-2.7642,-2.7629,-2.7669,-2.7468,-2.7348,-2.7268,-2.7268,-2.7121,0.0,-2.6281,-2.6143,0.0,-2.5912,-2.5783,-2.5801,-2.6162,-2.5945,-2.5651,-2.5558,-2.5464,-2.5384,-2.5384,-2.5144,-2.4943,0.0,-2.5662,0.0,0.0,0.0,0.0,0.0,0.0,0.0,0.0,0.0,0.0,0.0,0.0,-3.2559,-3.2763,-3.3085,-3.351,-3.4036,-3.4592,-3.5236,-3.6147,-3.6773,-3.7388,-3.7991,-3.8776,-3.9167,-3.9362,-3.9573,-3.9768,-3.9768,-4.0513,-4.2409,-4.485,-4.6354,-4.8585,-5.1025,-5.2132,-5.2776,-5.357,0.363,0.232,0.147,0.1391,-0.0453,-0.1922,0.0,0.0,-0.3282,0.0,-0.5837,-0.6827,-0.871,-1.0516,-1.161,-1.1762,-1.3582,-1.4749,-1.4749,-1.4605,0.0,0.0,-1.3979,-1.3473,-1.4247,-1.238,-1.1322,-1.1178,-1.0315,-0.9707,-0.9456,-0.9727,-0.9944,-1.012,-1.0548,-1.3709,-1.8728,-1.8988,-2.1895,-2.6026,-2.6319,-2.6787,-2.7388,-2.7963,-2.8193,-2.7891,-2.8101,-2.8163,-2.8163,-2.815,-2.8136,-2.8136,-2.8136,-2.7949,-2.7722,-2.7722,-2.7522,-2.7308,-2.7308,-2.7295,-2.702,-2.5428,0.0,0.0,0.0,0.0,-2.5034,-2.6584,-2.6413,-2.6106,-2.636,-2.6172,-2.5972,-2.5972,-2.5732,-2.5483,-2.5215,-2.5561,-2.6214,0.0,0.0,0.0,0.0,0.0,0.0,0.0,0.0,0.0,0.0,0.0,-3.2778,-3.2793,-3.3071,-3.3378,-3.37,-3.4666,-3.5691,-3.64,-3.7057,-3.7976,-3.8971,-3.8971,-3.9362,-3.9768,-3.9768,-3.9768,-3.9963,-4.2025,-4.2775,-4.3348,-4.7288,-4.9157,-4.9891,-5.1951,-5.357,-5.5051,0.3706,0.1602,-0.0118,-0.0978,-0.1607,-0.2007,0.0,0.0,0.0,0.0,-0.7907,-0.9459,-1.3015,-1.3839,-1.4267,-1.4415,-1.4963,0.0,0.0,0.0,0.0,-1.5447,-1.4734,-1.4311,-1.4255,-1.2625,-1.1858,-1.1675,-1.069,-1.0236,-1.0378,-1.0337,-1.0521,-1.088,-1.0995,-1.4148,-1.9249,-1.9046,-2.1951,-2.6627,-2.6921,-2.7357,0.0,0.0,-2.8512,-2.8178,-2.8419,-2.8484,-2.8457,-2.8217,-2.8136,-2.8136,-2.8136,-2.8096,-2.803,-2.803,-2.7976,-2.7923,-2.7923,-2.7762,-2.7437,-2.7171,-2.7017,-2.7017,0.0,0.0,0.0,0.0,-2.7188,-2.6881,-2.6734,-2.6466,-2.6279,-2.6279,-2.6351,-2.618,-2.5951,-2.65,-2.7093,-2.7645,0.0,0.0,0.0,0.0,0.0,0.0,0.0,0.0,0.0,0.0,0.0,-3.3115,-3.2968,-3.3041,-3.3363,-3.4448,-3.5488,-3.6056,-3.7486,-3.8528,-3.8956,-3.9362,-3.9768,-3.9768,-3.9768,-3.9768,-3.9963,-4.2025,-4.3712,-4.5227,-4.7845,-5.0458,-5.2974,-5.374,-5.5,-5.6282,0.3096,0.0736,-0.1265,-0.1945,0.0,0.0,-0.2432,-0.2621,0.0,-0.7035,-0.8345,0.0,-1.3411,-1.4501,-1.5228,-1.5601,-1.5626,0.0,-1.552,0.0,0.0,-1.552,-1.5293,-1.5055,-1.4979,-1.387,0.0,-1.2551,-1.1639,-1.0946,-1.0724,-1.0765,-1.0955,-1.1274,-1.147,-1.3932,-1.8125,-2.0011,-2.27,-2.5524,-2.6809,-2.7702,0.0,-2.8658,-2.8751,-2.8657,-2.8672,-2.8711,-2.8577,-2.8404,-2.843,-2.8537,-2.8537,-2.8537,-2.8511,-2.8377,-2.835,-2.8323,-2.8177,-2.8123,-2.8096,-2.8096,-2.819,-2.8283,-2.8283,-2.8083,-2.7936,0.0,-2.7655,-2.7295,0.0,0.0,-2.7108,-2.6987,-2.6932,-2.6826,-2.6682,-2.7087,-2.7769,-2.7942,-2.8555,0.0,0.0,0.0,0.0,0.0,0.0,0.0,0.0,0.0,0.0,-3.3027,-3.3144,-3.3396,-3.3605,-3.4855,-3.5885,-3.6692,-3.8094,-3.8979,-3.9362,-3.9399,-3.9609,-3.9752,-3.9593,-3.9609,-3.9947,-4.2967,-4.485,-4.6167,-4.9723,-5.2491,-5.4615,-5.5375,-5.6152,-5.6837,0.1889,-0.039,-0.2128,-0.2132,-0.2616,0.0,0.0,-0.3004,0.0,-0.6267,0.0,-1.0302,-1.2429,-1.4298,-1.5488,-1.5845,0.0,-1.5804,-1.5634,-1.5934,-1.5959,-1.5601,-1.5748,-1.5886,-1.5975,-1.5194,-1.4245,-1.3461,-1.2707,-1.1854,-1.0934,-1.1172,-1.1362,-1.1525,-1.1918,-1.377,-1.6924,-2.1416,-2.3714,-2.4413,-2.6574,-2.803,-2.8965,-2.8751,-2.8818,-2.9045,-2.9085,-2.8885,-2.8617,-2.8698,-2.8858,-2.9045,-2.9085,-2.9072,-2.8991,-2.8738,-2.8671,-2.8604,-2.8337,-2.8457,-2.8671,-2.8671,-2.8818,-2.8991,-2.9032,-2.8604,-2.8297,-2.8604,-2.8043,-2.7642,0.0,0.0,-2.8184,-2.7956,-2.7758,-2.7707,-2.7549,-2.7919,-2.8216,-2.8681,0.0,0.0,0.0,0.0,0.0,0.0,0.0,0.0,0.0,0.0,0.0,-3.2837,-3.3334,0.0,-3.4098,0.0,-3.6731,-3.7585,-3.8666,-3.9299,-3.9689,-3.9418,-3.9434,-3.9673,-3.9418,-3.9466,-4.0141,-4.4092,-4.6186,-4.7215,-5.2126,-5.4658,-5.5678,-5.6544,-5.688,-5.6946,0.0651,-0.108,-0.2229,-0.2255,-0.2601,-0.31,-0.3431,-0.3891,-0.5124,-0.8269,-0.9521,-1.1482,-1.4869,-1.5504,-1.6048,-1.6405,-1.6438,0.0,0.0,0.0,0.0,-1.5967,-1.6121,-1.6024,-1.5618,-1.5034,-1.4484,0.0,-1.3,-1.2557,-1.2013,-1.1938,-1.1986,-1.2135,-1.2216,-1.479,-1.9123,-2.2223,0.0,-2.6725,-2.7609,-2.827,-2.8711,-2.8898,-2.8991,-2.9072,-2.9312,-2.9058,-2.8684,-2.9165,-2.9205,-2.9085,-2.9325,-2.9232,-2.9032,-2.8978,-2.8965,-2.8951,-2.8898,-2.8925,-2.8965,-2.8965,-2.8818,-2.8751,-2.8991,-2.8778,-2.8604,-2.8898,-2.8831,-2.8684,-2.8551,0.0,0.0,0.0,-2.8565,-2.8627,-2.9542,-2.9535,-2.9526,-3.0012,-3.029,-3.0451,0.0,0.0,0.0,0.0,0.0,0.0,0.0,0.0,0.0,0.0,-3.3368,0.0,0.0,0.0,-3.7025,-3.827,-3.8843,-3.9114,-3.9323,-3.9561,-3.9546,-3.9323,-3.9561,-3.9704,-4.0141,-4.4092,-4.8223,-5.2167,-5.3949,-5.5172,-5.6013,-5.7045,-5.7405,-5.7405,-0.0692,-0.1845,-0.2328,-0.2375,-0.3007,0.0,0.0,-0.4343,0.0,-0.663,-0.8767,-1.0861,-1.2669,-1.3943,-1.5302,-1.6518,-1.5848,-1.5607,-1.6454,-1.6527,-1.6462,-1.6194,-1.6081,-1.5951,-1.5796,-1.5626,-1.4921,-1.3863,0.0,-1.3369,-1.2522,-1.2603,-1.2637,-1.2644,-1.3116,-1.4571,-1.6912,0.0,0.0,-2.4675,-2.7434,-2.8698,-2.8858,-2.9165,-2.9272,-2.9312,-2.9606,-2.9619,-2.9566,-2.9847,-2.9847,-2.9753,-2.9887,-2.974,-2.9459,-2.9312,-2.9272,-2.9232,-2.9085,-2.9152,-2.9272,-2.9272,-2.9285,-2.9325,-2.9459,-2.9272,-2.9058,-2.9045,-2.8925,-2.8818,-2.9163,-2.9068,0.0,0.0,0.0,-2.9733,-3.0394,-3.0303,-3.0432,-3.0598,-3.0876,-3.1022,0.0,0.0,0.0,0.0,0.0,0.0,0.0,0.0,0.0,0.0,0.0,0.0,0.0,0.0,0.0,-3.856,-3.913,-3.9403,-3.9228,-3.9403,-3.9387,-3.9228,-3.9403,-4.0335,-4.2008,-4.654,-5.0699,-5.3996,-5.5086,-5.5862,-5.649,-5.7153,-5.7514,-5.7514,-0.1313,-0.2076,-0.2413,-0.2461,-0.326,0.0,-0.3778,-0.4616,-0.5147,-0.5191,-0.7649,-0.9897,-1.0884,-1.2137,-1.3988,-1.676,-1.5206,-1.4799,-1.6591,-1.6714,-1.6592,-1.6373,-1.6097,-1.5975,-1.604,-1.6048,-1.5512,0.0,0.0,-1.4026,-1.2752,-1.2956,-1.3105,-1.3226,-1.3795,0.0,0.0,0.0,-2.1779,-2.2895,-2.676,-2.8683,-2.9072,-2.9299,-2.9472,-2.9619,-2.99,-3.0234,-3.0541,-3.0541,-3.0461,-3.0354,-3.0354,-2.9973,-2.9322,-2.9455,-2.9211,-2.8981,-2.911,-2.9392,-2.9579,-2.9579,-2.97,-2.9847,-2.99,-2.9686,-2.9432,-2.9259,-2.8991,-2.9058,-2.9689,-2.9784,0.0,0.0,0.0,0.0,-3.0866,-3.1049,-3.0971,-3.1139,-3.1417,-3.1563,-3.1432,0.0,0.0,0.0,0.0,0.0,-3.3832,0.0,0.0,0.0,0.0,-3.5592,-3.6544,0.0,-3.8528,0.0,-3.9339,-3.9387,-3.9117,-3.918,-3.918,-3.9117,-3.9275,-4.1166,-4.4453,-4.8602,-5.225,-5.4913,-5.5754,-5.649,-5.6989,-5.7383,-5.7514,-5.7514,0.0148,-0.1361,-0.2462,-0.2467,0.0,0.0,-0.3835,-0.4673,-0.568,-0.714,-0.7925,-0.9435,-1.3081,-1.2194,-1.3073,-1.6944,-1.5534,-1.5348,-1.7137,-1.7153,-1.6909,-1.6568,-1.6519,-1.6357,-1.6056,-1.6048,-1.5687,0.0,0.0,-1.3789,-1.2742,-1.2869,-1.3443,0.0,0.0,0.0,0.0,-1.8937,-2.1371,-2.5215,-2.5953,-2.7435,-2.9045,-2.9072,-2.9419,-2.9913,-3.0207,-3.0675,-3.1142,-3.1142,-3.0795,-3.0354,-3.0354,-2.9041,-2.7702,-2.9335,-2.8591,-2.7665,-2.9296,-2.986,-2.9873,-2.9873,-2.97,-2.9593,-2.986,-2.9686,-2.9553,-2.978,-2.9606,-2.9662,-3.0301,-3.0225,-3.0218,0.0,0.0,0.0,0.0,-3.184,-3.1627,-3.2149,-3.2441,-3.2398,0.0,0.0,0.0,0.0,-3.0724,0.0,0.0,0.0,0.0,-3.4168,0.0,-3.6127,-3.7028,-3.7507,0.0,-3.9657,-3.9069,-3.8783,-3.8751,-3.9069,-3.9037,-3.8783,-3.9434,-4.2167,-4.6317,-4.8247,-5.1492,-5.5344,-5.5862,-5.6707,-5.747,-5.7514,-5.7514,-5.7514,0.0,0.0,0.0,0.0,0.0,0.0,0.0,-0.4265,-0.499,-0.5521,-0.7038,-0.8791,-1.0355,-1.002,-1.0717,-1.3572,-1.3307,-1.3719,-1.5543,-1.6658,-1.7161,-1.6909,-1.6584,-1.63,-1.6056,-1.6048,-1.5875,0.0,0.0,0.0,-1.3789,-1.3971,0.0,0.0,0.0,-1.5817,-1.7254,-1.8804,-2.0627,-2.2722,-2.5208,-2.583,-2.5689,-2.709,-2.7988,-2.8377,-2.8829,-2.913,-2.9469,-2.9305,-2.9857,-3.0595,-3.0421,-2.9598,-2.8809,-2.9734,-2.9362,-2.8989,-2.9734,-2.9913,-2.9913,-2.9913,-2.9833,-2.9766,-2.9887,-2.982,-2.9726,-2.9673,-2.9566,-2.9689,-3.0682,-3.0696,-3.0984,0.0,0.0,0.0,0.0,-3.2221,-3.2179,-3.2559,-3.269,-3.2676,0.0,0.0,0.0,0.0,0.0,0.0,-3.3132,-3.4305,0.0,-3.6591,0.0,-3.6808,-3.8431,-3.834,-3.8672,-3.9434,-3.9371,-3.9228,-3.9021,-3.9387,-4.0206,-4.1744,-4.3554,-4.6241,-4.9881,-5.221,-5.4387,-5.637,-5.6685,-5.7175,-5.7514,-5.7514,-5.7514,-5.7514,-0.1569,0.0,-0.2534,0.0,-0.3239,-0.36,-0.3285,-0.4007,-0.4411,-0.4117,-0.581,-0.7384,-0.8237,-0.804,-0.8882,-1.1336,-1.1242,-1.2024,-1.4598,-1.5919,-1.6845,-1.7201,-1.6828,0.0,-1.6292,-1.6235,-1.6012,-1.5617,-1.5272,0.0,0.0,-1.4572,0.0,0.0,-1.5724,-1.6215,-1.6665,-1.8348,-1.9646,-2.0856,-2.4052,-2.4497,-2.377,-2.5931,-2.6683,-2.6713,-2.7074,-2.7203,-2.7345,-2.7099,-2.7901,-2.8926,-2.9391,-2.8847,-2.8382,-2.8938,-2.8382,-2.7645,-2.8757,-2.9067,-2.9182,-2.9734,-2.9913,-2.9913,-2.9913,-2.9913,-2.9887,-2.9766,-2.9918,-3.0287,-3.1081,-3.1304,-3.1651,-3.2699,0.0,0.0,0.0,-3.2632,-3.2441,-3.2219,-3.2829,-3.3052,-3.2404,-3.1861,0.0,0.0,0.0,0.0,-3.231,-3.3865,0.0,0.0,0.0,0.0,0.0,-3.8815,-3.8862,-3.9228,-3.9482,-3.9466,-3.9228,-3.9482,-4.0787,-4.2932,-4.5549,-4.8223,-5.129,-5.4217,-5.6013,-5.6837,-5.7339,-5.7514,-5.7514,-5.7514,-5.7514,-5.7514,-0.0,-0.1427,-0.2559,-0.256,-0.2934,-0.3321,-0.336,-0.3735,-0.4119,-0.4164,-0.4209,-0.5157,-0.779,-0.6794,-0.7603,-1.1573,-1.0101,-1.0659,-1.456,-1.4794,-1.5383,0.0,0.0,-1.721,-1.6852,-1.6665,-1.6487,-1.63,0.0,0.0,-1.4523,-1.4075,-1.4601,-1.5887,-1.5887,-1.653,-1.738,-1.738,-1.8722,-2.0676,-2.2632,-2.3623,-2.4226,-2.6071,-2.5982,-2.5098,-2.5109,-2.5109,-2.5256,-2.5018,-2.479,-2.4921,-2.6517,-2.5857,-2.4758,-2.6629,-2.4584,-2.2359,-2.626,-2.7172,-2.7521,-2.9362,-2.9913,-2.9913,-2.9913,-2.9913,-2.9993,-3.0287,-3.0704,-3.1331,-3.2183,-3.211,-3.2269,-3.2899,0.0,0.0,0.0,-3.2612,-3.2384,-3.1062,-3.2873,-3.3372,-3.157,0.0,0.0,0.0,0.0,0.0,0.0,0.0,0.0,-3.6707,-3.7241,0.0,-3.7959,-3.8514,-3.8862,-3.9228,-3.9228,-3.9228,-3.9228,-3.9228,-3.9981,-4.1464,-4.3902,-4.6747,-4.9807,-5.2704,-5.5052,-5.6837,-5.7339,-5.7514,-5.7514,-5.7514,-5.7514,-5.7514,-0.1791,-0.2286,-0.2619,-0.2619,-0.3003,-0.3221,-0.2893,-0.3284,-0.3501,-0.3339,-0.3593,-0.4205,-0.4965,-0.4986,-0.5387,0.0,-0.7538,-0.87,0.0,-1.1599,-1.3327,-1.5383,-1.5456,-1.5839,-1.7031,-1.7096,-1.7104,-1.7047,0.0,0.0,0.0,-1.5638,-1.6057,-1.6952,-1.6952,-1.7049,-1.7396,-1.751,-1.7878,-1.8552,-2.0781,-2.079,-2.0051,-2.231,-2.3074,-2.3,-2.3,-2.2912,-2.2944,-2.2725,-2.2606,-2.2546,-2.3025,-2.3788,-2.4398,-2.4955,-2.4398,-2.3995,-2.6406,-2.7039,-2.7521,-2.9362,-2.8809,-2.7895,-2.7895,-2.8032,-2.8623,-3.0398,-3.1015,-3.1579,-3.2239,-3.2449,-3.2937,-3.3336,-3.33,0.0,-3.3372,-3.3125,-3.2843,-3.2407,-3.2988,-3.2988,0.0,-3.3157,0.0,0.0,0.0,0.0,0.0,0.0,0.0,0.0,-3.7993,0.0,-3.9225,-3.918,-3.9228,-3.9593,-3.9593,-3.9593,-3.9593,-4.0352,-4.2273,-4.5379,-4.7178,-5.0365,-5.4034,-5.542,-5.6468,-5.7295,-5.747,-5.7514,-5.7514,-5.7514,-5.7514,-5.7514,-0.2645,-0.2647,-0.2654,-0.2677,-0.2882,-0.3089,-0.2769,-0.2978,-0.3185,-0.2844,-0.3085,-0.3317,-0.3516,-0.3703,0.0,-0.4528,-0.5672,-0.6999,-0.7942,-0.9169,-1.0752,-1.2883,-1.3712,-1.4502,-1.5609,0.0,0.0,-1.6936,-1.688,-1.6792,-1.6657,-1.6617,-1.6681,-1.7185,-1.7258,-1.7323,-1.7396,-1.7502,-1.7518,-1.7681,-1.9771,-1.963,-1.8354,-2.0711,-2.1367,-2.0897,-2.0897,-2.0726,-2.0494,-2.044,-2.0377,-2.0333,-2.0413,-2.1178,-2.229,-2.3031,-2.2793,-2.2516,-2.441,-2.54,-2.6423,-2.8256,-2.7895,-2.6966,-2.6966,-2.7172,-2.8002,-3.0346,-3.143,-3.208,-3.2575,-3.3059,-3.3538,-3.3905,-3.3817,-3.3729,-3.3729,-3.3554,-3.3191,-3.2803,0.0,0.0,0.0,-3.3844,0.0,0.0,0.0,0.0,0.0,0.0,0.0,-3.8368,-3.8277,0.0,-3.9164,-3.9212,-3.9339,-3.9561,-3.9704,-3.9768,-3.9768,-4.0901,-4.314,-4.6504,-4.864,-5.1718,-5.5388,-5.6413,-5.7077,-5.7514,-5.7514,-5.7514,-5.7514,-5.7514,-5.7514,-5.7514,-0.265,-0.2658,0.0,0.0,-0.2746,0.0,-0.2823,-0.2831,-0.2842,-0.287,-0.2898,-0.2927,-0.2956,-0.296,-0.3357,-0.4369,0.0,0.0,0.0,-0.7227,-0.8102,-1.0123,-1.1947,-1.2993,-1.3071,-1.4882,-1.6069,-1.644,-1.7129,-1.7218,-1.6893,-1.7039,-1.7039,-1.6917,-1.7063,-1.7234,-1.7404,-1.7404,-1.7502,-1.7854,-1.9852,-1.9807,-1.8699,-2.0955,-2.0518,-1.898,-1.8956,-1.8736,-1.8493,-1.8655,-1.8606,-1.8517,-1.8671,-1.8728,-1.9096,-2.0774,-2.0079,-1.9012,-2.086,-2.2562,-2.4237,-2.6241,-2.6616,-2.664,-2.6652,-2.6854,-2.7867,-3.0228,-3.1806,-3.2827,-3.2919,-3.35,-3.4056,-3.4056,-3.3809,-3.3605,-3.3802,-3.3773,-3.3343,0.0,0.0,0.0,0.0,-3.412,-3.5191,0.0,0.0,0.0,0.0,0.0,-3.5337,-3.7655,-3.8004,-3.8211,-3.8243,-3.891,-3.926,-3.926,-3.9609,-3.9768,-3.9947,-4.1078,-4.2984,-4.5452,-4.8492,-5.1388,-5.4309,-5.6089,-5.7121,-5.7514,-5.7514,-5.7514,-5.7514,-5.7514,-5.7514,-5.7514,0.0,0.0,-0.2791,-0.2804,-0.2826,-0.2846,-0.2861,-0.2863,-0.2866,-0.2872,-0.2898,-0.2919,-0.2926,-0.2947,-0.3152,-0.3354,-0.3348,-0.3714,-0.464,-0.4595,-0.5678,-0.8106,-0.8592,-1.0216,-1.3199,-1.4114,-1.5319,-1.7145,-1.7364,-1.7348,-1.7258,-1.7161,-1.7234,-1.7453,-1.7364,-1.7421,-1.7583,-1.7583,-1.7689,-1.7875,-1.8744,-1.8831,-1.8688,-1.9472,-1.9369,-1.8948,-1.8671,-1.8615,-1.8647,-1.855,-1.8671,-1.8842,-1.8753,-1.8728,-1.8696,-1.912,-1.8856,-1.8986,-2.0686,-2.1519,-2.2218,-2.4237,-2.363,-2.2703,-2.3061,-2.4387,-2.633,-2.8698,-3.1288,-3.2703,-3.1041,-3.157,-3.2285,-3.2285,-3.223,-3.2564,-3.4275,-3.4256,-3.3998,0.0,-3.3784,-3.3925,-3.3758,-3.4475,-3.4578,0.0,0.0,0.0,0.0,-3.5682,-3.6653,-3.7274,-3.7877,-3.8322,-3.8576,-3.9275,-3.9641,-3.9641,-3.972,-4.0141,-4.1094,-4.3158,-4.575,-4.8511,-5.1594,-5.4124,-5.6111,-5.6957,-5.7426,-5.7514,-5.7514,-5.7514,-5.7514,-5.7514,-5.7514,-5.7514,-0.2799,-0.2818,-0.2833,-0.2846,-0.2863,-0.2874,-0.2874,-0.2874,-0.2874,-0.2874,-0.2887,-0.2901,-0.2915,-0.2919,-0.2932,-0.2958,-0.2949,-0.313,-0.3331,-0.33,-0.3843,-0.5354,-0.6212,-0.8205,-1.1593,-1.2823,-1.4604,-1.715,-1.7322,-1.7461,-1.7388,-1.7283,-1.7299,-1.7396,-1.7388,-1.7486,-1.7648,-1.7729,-1.7916,-1.8184,-1.8468,-1.8639,-1.8744,-1.8915,-1.8883,-1.8728,-1.8615,-1.859,-1.8606,-1.8671,-1.8826,-1.8956,-1.8777,-1.8728,-1.8671,-1.8403,-1.8322,-1.8486,-1.9488,-2.0381,-2.1325,-2.2532,-2.2094,-2.1489,-2.1697,-2.2852,-2.4375,-2.6816,-2.9608,-3.1421,-3.0661,-3.1054,-3.1813,-3.2786,-3.2205,-3.2394,-3.432,-3.4549,0.0,-3.4446,-3.4285,-3.4241,-3.4432,-3.4974,-3.4921,-3.4305,0.0,0.0,-3.5383,-3.6236,-3.6861,-3.7369,-3.7909,-3.829,-3.8465,-3.9164,-3.9514,-3.9514,-4.0255,-4.0707,-4.1464,-4.4282,-4.7122,-4.9601,-5.2704,-5.5052,-5.6837,-5.7317,-5.7514,-5.7514,-5.7514,-5.7514,-5.7514,-5.7514,-5.7514,-5.7514,-0.2826,-0.2838,-0.2849,-0.2875,-0.2881,-0.2881,-0.2881,-0.2876,-0.2874,-0.2874,-0.2874,-0.2883,-0.2906,-0.2889,-0.2894,-0.2943,-0.2928,-0.2928,-0.296,-0.2938,-0.2934,-0.296,-0.4583,-0.6586,-0.9032,-1.1304,-1.3655,-1.6333,-1.7033,-1.7322,-1.721,-1.721,-1.7137,-1.7025,-1.7388,-1.7559,-1.7729,-1.7916,-1.82,-1.8541,-1.8671,-1.8736,-1.8777,-1.8866,-1.8728,-1.8509,-1.8639,-1.8615,-1.8574,-1.8883,-1.9004,-1.8988,-1.8785,-1.8728,-1.8655,-1.8282,-1.8176,-1.8176,-1.8176,-1.9462,-2.0797,-2.0824,-2.0906,-2.098,-2.1173,-2.1751,-2.2674,-2.4982,-2.7807,-3.0064,-2.9886,-3.0661,-3.1664,-3.3155,-3.2137,-3.1934,-3.4188,0.0,-3.4841,-3.4841,-3.4841,-3.4827,-3.497,-3.5316,-3.5816,-3.6282,-3.6374,-3.6766,0.0,-3.6845,-3.7003,-3.7734,-3.7988,-3.8195,-3.8354,-3.8989,-3.9307,-3.9307,-4.0754,-4.1464,-4.2025,-4.5397,-4.8094,-5.0278,-5.3114,-5.5279,-5.6946,-5.7361,-5.7514,-5.7514,-5.7514,-5.7514,-5.7514,-5.7514,-5.7514,-5.7536,-0.2866,-0.2886,-0.2904,-0.2909,-0.2909,-0.2909,-0.2909,-0.2889,-0.2874,-0.2874,-0.2874,-0.2875,-0.2881,-0.2876,-0.2878,-0.2887,-0.2905,-0.2928,-0.296,-0.2957,-0.2957,-0.2961,-0.3325,-0.4615,-0.7016,-1.0947,-1.3071,-1.3443,-1.5127,-1.6016,-1.6137,-1.6666,-1.6908,-1.7033,-1.7571,-1.7932,-1.8103,-1.829,-1.8574,-1.8891,-1.8769,-1.8809,-1.8915,-1.8639,-1.8598,-1.8663,-1.8541,-1.8671,-1.8907,-1.8964,-1.9086,-1.9159,-1.8834,-1.8728,-1.8655,-1.8282,-1.8176,-1.8176,-1.8176,-1.8363,-1.8777,-1.897,-1.9137,-1.9104,-1.9278,-2.1013,-2.2516,-2.3286,-2.6964,-2.911,-2.6249,-2.7395,-2.8777,-2.7867,-2.8575,-3.0286,-3.2986,0.0,-3.55,-3.55,-3.55,-3.5574,-3.5673,-3.6224,-3.6543,-3.6343,-3.6798,-3.6948,-3.7131,-3.7067,-3.7369,-3.81,-3.7877,-3.8179,-3.9053,-3.9466,-3.9673,-3.9689,-4.0868,-4.2409,-4.4453,-4.725,-5.0106,-5.3361,-5.4958,-5.6413,-5.7426,-5.7492,-5.7514,-5.7514,-5.7514,-5.7514,-5.7514,-5.7514,-5.7514,-5.7579,-0.2874,-0.2897,-0.2916,-0.2916,-0.2916,-0.2916,-0.2916,-0.2891,-0.2874,-0.2874,-0.2874,-0.2874,-0.2874,-0.2874,-0.2881,-0.2896,-0.2924,-0.2953,-0.2984,-0.2986,-0.2994,-0.301,-0.2995,-0.408,-0.641,-0.9694,-1.2034,-1.3052,-1.3964,-1.491,-1.6085,-1.6355,-1.6803,-1.7071,-1.7529,-1.8118,-1.8485,-1.8663,-1.8834,-1.8972,-1.8899,-1.8793,-1.8688,-1.8623,-1.859,-1.859,-1.8704,-1.8842,-1.8996,-1.9094,-1.9126,-1.9061,-1.8809,-1.8655,-1.8525,-1.8257,-1.8176,-1.8176,-1.8176,-1.8249,-1.8371,-1.855,-1.8736,-1.8915,-1.9094,-1.9978,-2.1013,-2.179,-2.4484,-2.6409,-2.5292,-2.6166,-2.7135,-2.7684,-2.8623,0.0,-3.2432,-3.3447,-3.4266,-3.5646,-3.4846,-3.4717,-3.5747,-3.6677,-3.7025,-3.6713,-3.7049,-3.7417,-3.7417,-3.7607,-3.7861,-3.8195,-3.8402,-3.864,-3.8942,-3.9482,-3.9673,-3.9482,-4.1189,-4.3158,-4.5038,-4.8428,-5.133,-5.4061,-5.5808,-5.688,-5.7514,-5.7514,-5.7514,-5.7514,-5.7514,-5.7514,-5.7514,-5.7514,-5.7514,-5.7601,-0.2883,-0.2906,-0.2928,-0.2935,-0.2931,-0.2927,-0.2927,-0.2897,-0.2874,-0.2874,-0.2874,-0.2874,-0.2874,-0.2874,-0.2883,-0.2904,-0.2941,-0.2971,-0.2995,-0.301,-0.3028,-0.3051,-0.3211,-0.3914,-0.5678,-0.8091,-0.9908,-1.1464,-1.2278,-1.3644,-1.5195,-1.5881,-1.6539,-1.6994,-1.7489,-1.808,-1.8608,-1.8972,-1.9045,-1.9037,-1.8956,-1.8785,-1.8582,-1.8639,-1.8623,-1.8615,-1.8883,-1.9013,-1.9069,-1.9207,-1.9134,-1.8956,-1.8777,-1.8598,-1.842,-1.8233,-1.8176,-1.8176,-1.8176,-1.8314,-1.8493,-1.868,-1.885,-1.9029,-1.9216,-1.9454,-1.9651,-2.0629,-2.2554,-2.432,-2.4782,-2.5331,-2.6299,-2.7509,0.0,-2.9291,-3.1074,-3.1591,-3.2496,-3.4269,-3.381,-3.3837,-3.528,-3.6707,-3.7289,-3.7132,-3.7549,-3.7798,-3.7798,-3.8131,-3.8354,-3.8433,-3.8942,-3.9085,-3.8815,-3.945,-3.9625,-3.9355,-4.1732,-4.3729,-4.5585,-4.9385,-5.2292,-5.4429,-5.5916,-5.6902,-5.7361,-5.7361,-5.7361,-5.7361,-5.747,-5.7514,-5.7514,-5.7514,-5.7514,-5.7601,-0.2911,-0.2939,-0.2966,-0.2995,-0.2976,-0.2958,-0.2958,-0.2911,-0.2874,-0.2874,-0.2874,-0.2874,-0.2874,-0.2874,-0.2875,-0.2876,-0.2928,-0.2962,-0.2965,-0.3017,-0.305,-0.3052,-0.359,-0.3568,-0.3187,-0.5567,-0.6644,-0.6267,-0.9945,-1.2085,-1.2494,-1.4778,-1.6074,-1.6551,-1.7695,-1.8177,-1.82,-1.8962,-1.924,-1.9207,-1.8874,-1.8826,-1.8907,-1.859,-1.8671,-1.8948,-1.8972,-1.9094,-1.924,-1.9256,-1.9134,-1.8956,-1.8777,-1.8598,-1.842,-1.8233,-1.8176,-1.8176,-1.8176,-1.8314,-1.8493,-1.868,-1.885,-1.9029,-1.9216,-1.9651,-2.0038,-2.0629,-2.275,-2.4371,-2.3038,-2.4462,-2.5535,-2.4559,0.0,0.0,-2.7819,-2.9156,-3.0258,-3.046,-3.2246,-3.3753,-3.4031,-3.6071,-3.7476,-3.7702,-3.7973,-3.8163,-3.8163,-3.8481,-3.8799,-3.9132,-3.9196,-3.9212,-3.918,-3.9577,-3.9752,-3.972,-4.185,-4.4282,-4.7045,-4.9756,-5.2844,-5.5934,-5.6138,-5.6422,-5.6858,-5.6858,-5.6858,-5.6902,-5.7339,-5.7514,-5.7514,-5.7514,-5.7514,-5.7831,0.054,-0.0,-0.0551,-0.2601,-0.2954,-0.2941,-0.2958,-0.2912,-0.2874,-0.2874,-0.2874,-0.2874,-0.2874,-0.2874,-0.2874,-0.2874,-0.2911,-0.2932,-0.2932,-0.2972,-0.3005,-0.3024,-0.3201,-0.3176,-0.2951,-0.388,-0.4806,-0.591,-0.7473,-0.8892,-1.0353,-1.2802,-1.4285,-1.5172,-1.71,-1.8167,-1.8962,-1.9232,-1.9191,-1.9077,-1.8939,-1.8858,-1.8818,-1.8793,-1.8866,-1.8996,-1.911,-1.9199,-1.9256,-1.9256,-1.9061,-1.8809,-1.8744,-1.8517,-1.8265,-1.8192,-1.8176,-1.82,-1.8314,-1.8476,-1.8639,-1.8712,-1.8939,-1.9175,-1.924,-1.9651,-2.0235,-2.0629,-2.1891,-2.299,-2.2699,-2.3517,-2.4204,-2.3727,0.0,-2.6853,-2.7122,-2.762,-2.9057,-3.19,-3.2168,-3.3097,-3.5735,-3.73,-3.8166,-3.802,-3.8306,-3.8497,-3.8497,-3.8831,-3.918,-3.9546,-3.9561,-3.9561,-3.9561,-3.9704,-3.9768,-3.9768,-4.2792,-4.5318,-4.7778,-5.1287,-5.4203,-5.6553,-5.6858,-5.6924,-5.6815,-5.7121,-5.7077,-5.6837,-5.7339,-5.7514,-5.7514,-5.7514,-5.7732,-5.8269,0.3956,0.3259,0.2373,-0.0184,-0.0733,-0.0913,-0.1655,-0.1088,-0.1256,-0.2694,-0.2154,-0.1974,-0.2874,-0.2874,-0.2874,-0.2874,-0.29,-0.2916,-0.2916,-0.2945,-0.2971,-0.2991,-0.2983,-0.2958,-0.2917,-0.2936,-0.3687,-0.4988,-0.5823,-0.6874,-0.8335,-1.0797,-1.2667,-1.4126,-1.6015,-1.7665,-1.9058,-1.9256,-1.9183,-1.9061,-1.9004,-1.8948,-1.8899,-1.8956,-1.9021,-1.9086,-1.9216,-1.9256,-1.9256,-1.9256,-1.9021,-1.8728,-1.8728,-1.8468,-1.8176,-1.8176,-1.8217,-1.829,-1.842,-1.8623,-1.8809,-1.8809,-1.9037,-1.9256,-1.9454,-1.984,-2.0432,-2.1022,-2.1578,-2.2339,-2.2794,-2.3096,-2.3351,-2.3417,-2.4764,-2.5851,-2.5789,-2.5778,-2.7097,-3.0429,-3.0897,-3.2244,-3.5338,-3.7427,-3.8449,-3.8211,-3.8608,-3.891,-3.9021,-3.926,-3.9514,-3.9752,-3.9768,-3.9768,-3.9768,-3.9768,-3.9768,-3.9768,-4.3331,-4.5957,-4.8006,-5.2086,-5.5031,-5.6815,-5.7142,-5.7099,-5.6815,-5.7164,-5.7099,-5.6837,-5.7339,-5.7514,-5.7514,-5.7514,-5.8193,-5.9426,0.7262,0.6546,0.6201,0.442,0.4207,0.3453,0.1092,0.2702,0.2505,-0.2154,-0.0717,-0.0179,-0.2513,-0.2874,-0.2874,-0.2874,-0.29,-0.2916,-0.2916,-0.2943,-0.2961,-0.2961,-0.2932,-0.2916,-0.2916,-0.2916,-0.2931,-0.2961,-0.5041,-0.6093,-0.646,-0.9001,-1.1456,-1.3661,-1.4862,-1.646,-1.8457,-1.9058,-1.9256,-1.924,-1.9061,-1.9094,-1.924,-1.9053,-1.9102,-1.9256,-1.9256,-1.9256,-1.9256,-1.9256,-1.9021,-1.8728,-1.872,-1.8468,-1.8176,-1.8176,-1.8306,-1.8452,-1.8452,-1.8712,-1.898,-1.898,-1.9118,-1.9454,-1.984,-2.0432,-2.1022,-2.1415,-2.2172,-2.2775,-2.2973,-2.319,-2.3398,-2.3606,-2.3635,-2.3559,-2.3361,-2.3332,-2.3654,-2.4448,-2.7917,-3.0651,-3.1819,-3.5687,-3.8211,-3.8211,-3.8846,-3.9387,-3.9752,-3.9768,-3.9768,-3.9768,-3.9768,-3.9768,-3.9768,-3.9768,-3.9768,-3.9963,-4.3331,-4.5957,-4.8025,-5.2107,-5.5031,-5.6793,-5.6793,-5.6793,-5.6793,-5.6793,-5.6793,-5.6837,-5.7339,-5.7514,-5.7514,-5.7536,-5.9077,-6.1533,1.0262,1.0088,0.9212,0.6383,0.5977,0.5409,0.345,0.3782,0.3757,0.2326,0.2506,0.2506,0.1791,0.1434,0.0538,-0.0718,-0.0899,-0.1442,-0.2886,-0.2896,-0.29,-0.29,-0.2911,-0.2906,-0.2887,-0.2905,-0.2931,-0.2961,-0.3576,-0.4016,-0.4081,-0.6883,-0.8723,-0.9757,-1.2023,-1.4458,-1.685,-1.7048,-1.7855,-1.9256,-1.9199,-1.9207,-1.9256,-1.9199,-1.9207,-1.9256,-1.9256,-1.9256,-1.9256,-1.9256,-1.9021,-1.868,-1.842,-1.8265,-1.82,-1.833,-1.8412,-1.8509,-1.8753,-1.8899,-1.8956,-1.8834,-1.9037,-1.9421,-1.9673,-2.0337,-2.1022,-2.1415,-2.2283,-2.2945,-2.3001,-2.3304,-2.3568,-2.3625,-2.3521,-2.3398,-2.3342,-2.32,-2.4026,-2.6737,-2.897,-3.1343,-3.4044,-3.6911,-3.8545,-3.8545,-3.9196,-3.9657,-3.9768,-3.9768,-3.9768,-3.9768,-3.9768,-3.9768,-3.9768,-3.9768,-4.0691,-4.2375,-4.5634,-4.842,-5.1116,-5.4457,-5.6468,-5.7295,-5.7295,-5.7121,-5.6815,-5.7164,-5.7099,-5.6837,-5.7339,-5.7514,-5.77,-5.8948,-6.0364,-6.2018,1.1471,1.1471,1.0952,0.8844,0.8628,0.7889,0.5951,0.6464,0.6618,0.5368,0.5189,0.4832,0.4476,0.3583,0.2509,0.1434,0.1439,0.0541,-0.1624,-0.1813,-0.1998,-0.2909,-0.2936,-0.2932,-0.2891,-0.2906,-0.2936,-0.2979,-0.3016,-0.3056,-0.3099,-0.5087,-0.6704,-0.8137,-0.9977,-1.2217,-1.485,-1.485,-1.6049,-1.8053,-1.8053,-1.8457,-1.9256,-1.9256,-1.9256,-1.9256,-1.9256,-1.9256,-1.9256,-1.9256,-1.9021,-1.8671,-1.8379,-1.8282,-1.8322,-1.8509,-1.8606,-1.8712,-1.8923,-1.9037,-1.9037,-1.8785,-1.9191,-1.9577,-1.9902,-2.0623,-2.1192,-2.1707,-2.2472,-2.3011,-2.3011,-2.3351,-2.3606,-2.3531,-2.3417,-2.3275,-2.3115,-2.3375,-2.4584,-2.765,-2.9729,-3.1961,-3.5054,-3.7334,-3.8815,-3.9101,-3.9514,-3.9768,-3.9768,-3.9768,-3.9768,-3.9768,-3.9768,-3.9768,-3.9768,-4.0513,-4.1816,-4.3487,-4.6481,-4.9551,-5.2477,-5.5429,-5.7055,-5.7514,-5.7514,-5.7361,-5.7099,-5.7405,-5.7361,-5.7121,-5.7405,-5.7514,-5.7722,-5.9885,-6.1716,-6.3331,1.1455,1.1455,1.1455,1.1455,1.1455,1.0738,0.8583,1.0016,1.0382,0.752,0.7338,0.716,0.627,0.4657,0.3582,0.3938,0.3796,0.2729,0.0364,0.0368,-0.0555,-0.2408,-0.2428,-0.242,-0.2562,-0.2745,-0.2956,-0.3011,-0.3011,-0.304,-0.3097,-0.3676,-0.5268,-0.7731,-0.8137,-0.9968,-1.2647,-1.2658,-1.3854,-1.585,-1.6049,-1.7246,-1.9058,-1.9256,-1.9256,-1.9256,-1.9256,-1.9256,-1.9256,-1.924,-1.9021,-1.872,-1.8533,-1.8476,-1.8517,-1.8696,-1.8858,-1.8988,-1.9004,-1.9118,-1.9151,-1.8809,-1.9353,-2.009,-2.0115,-2.0906,-2.1735,-2.1957,-2.2595,-2.302,-2.3039,-2.337,-2.3568,-2.337,-2.3313,-2.3172,-2.2765,-2.3691,-2.5166,-2.743,-3.0064,-3.2542,-3.5212,-3.7334,-3.8989,-3.9704,-3.9768,-3.9768,-3.9768,-3.9768,-3.9768,-3.9768,-3.9768,-3.9768,-3.9768,-4.1833,-4.3158,-4.3902,-4.6914,-4.9777,-5.2848,-5.5656,-5.7077,-5.747,-5.7514,-5.7514,-5.7514,-5.7514,-5.7514,-5.7514,-5.7514,-5.7514,-5.7765,-6.0547,-6.2861,-6.5222,1.1455,1.1455,1.1455,1.1455,1.1455,1.1277,1.0738,1.1094,1.1277,1.056,1.0204,0.9843,0.9669,0.8952,0.7877,0.6621,0.4699,0.3285,0.2575,0.2398,0.2224,0.1869,0.1859,0.1118,-0.0377,-0.2077,-0.3029,-0.3043,-0.3043,-0.3061,-0.3097,-0.3676,-0.4477,-0.5511,-0.5554,-0.7361,-1.0347,-0.9828,-1.1259,-1.3655,-1.5453,-1.6446,-1.7048,-1.8655,-1.9256,-1.9256,-1.9256,-1.9256,-1.924,-1.9094,-1.8988,-1.8899,-1.872,-1.8663,-1.8704,-1.8874,-1.8956,-1.9013,-1.9159,-1.9126,-1.9183,-1.9355,-1.9739,-2.0115,-2.007,-2.07,-2.1606,-2.2107,-2.269,-2.3068,-2.3238,-2.3464,-2.3568,-2.337,-2.319,-2.2992,-2.2746,-2.3553,-2.4977,-2.7407,-3.0064,-3.2542,-3.5212,-3.7334,-3.8989,-3.9704,-3.9768,-3.9768,-3.9768,-3.9768,-3.9768,-3.9768,-3.9768,-3.9768,-3.9768,-4.1833,-4.4216,-4.6933,-4.9648,-5.2395,-5.5366,-5.6783,-5.7208,-5.6968,-5.7361,-5.7514,-5.7514,-5.7514,-5.7514,-5.7514,-5.7514,-5.7514,-5.7929,-6.2006,-6.4128,-6.5451,1.1455,1.1455,1.1455,1.1455,1.1455,1.1455,1.1455,1.1455,1.1455,1.1455,1.1099,1.0743,1.0743,1.0209,0.9514,0.8477,0.7464,0.6253,0.4646,0.4504,0.4151,0.321,0.3035,0.2669,0.1534,0.0384,-0.1149,-0.3052,-0.2107,-0.2117,-0.3097,-0.3305,-0.3917,-0.435,-0.4391,-0.5623,-0.7653,-0.749,-0.8918,-1.1531,-1.2679,-1.4253,-1.6247,-1.7452,-1.8457,-1.9256,-1.9256,-1.9256,-1.9232,-1.9045,-1.898,-1.8964,-1.8874,-1.885,-1.8883,-1.9061,-1.9118,-1.9134,-1.9232,-1.9126,-1.9134,-1.9338,-1.9802,-2.0061,-2.0234,-2.0955,-2.1735,-2.2227,-2.2652,-2.3077,-2.3294,-2.3417,-2.3632,-2.3828,-2.3404,-2.3192,-2.3966,-2.4423,-2.5884,-2.9313,-3.1218,-3.361,-3.66,-3.8088,-3.8989,-3.9704,-3.9768,-3.9768,-3.9768,-3.9768,-3.9768,-3.9768,-4.0336,-4.0336,-3.9768,-4.3158,-4.5878,-4.795,-5.0467,-5.326,-5.6138,-5.6858,-5.7033,-5.6815,-5.7077,-5.7295,-5.7514,-5.7514,-5.7514,-5.7514,-5.7514,-5.8071,-5.9405,-6.3169,-6.6121,-6.8725,1.1455,1.1455,1.1455,1.1455,1.1455,1.1455,1.1455,1.1455,1.1455,1.1455,1.1099,1.0921,1.0921,1.0565,1.0073,0.9821,0.9716,0.8881,0.6746,0.6093,0.4985,0.3626,0.3676,0.35,0.3091,0.3663,0.2113,-0.2102,-0.077,-0.0968,-0.2522,-0.2936,-0.3356,-0.3984,-0.382,-0.4457,-0.5704,-0.5519,-0.6945,-0.9158,-0.9488,-1.2053,-1.5652,-1.6049,-1.7452,-1.9256,-1.9256,-1.9256,-1.9232,-1.9086,-1.9029,-1.9029,-1.9029,-1.9029,-1.9061,-1.9216,-1.9256,-1.9256,-1.9256,-1.9126,-1.9134,-1.953,-1.9915,-2.01,-2.0454,-2.1206,-2.2019,-2.2123,-2.2576,-2.3039,-2.3285,-2.3332,-2.3663,-2.4408,-2.362,-2.3632,-2.5356,-2.5895,-2.7418,-3.1218,-3.2933,-3.5073,-3.8435,-3.8688,-3.8989,-3.9704,-3.9768,-3.9768,-3.9768,-3.9768,-3.9768,-3.9768,-4.0513,-4.0901,-4.0336,-4.4921,-4.7573,-4.85,-5.1041,-5.357,-5.6065,-5.6618,-5.6793,-5.6793,-5.688,-5.7142,-5.7514,-5.7514,-5.7514,-5.7514,-5.7514,-5.8787,-6.0863,-6.42,-6.8371,-7.2297,1.1455,1.1455,1.1455,1.1455,1.1455,1.1455,1.1455,1.1455,1.1455,1.1455,1.1455,1.1455,1.1455,1.1277,1.1146,1.0725,0.8919,0.8083,0.9178,0.5638,0.4172,0.5779,0.5751,0.4985,0.3284,0.6513,0.6317,0.212,0.0579,-0.0194,-0.0587,-0.2355,-0.3356,-0.3984,-0.3418,-0.4222,-0.5599,-0.5081,-0.5702,-0.7074,-0.8866,-1.1259,-1.3456,-1.5446,-1.7452,-1.9256,-1.9256,-1.9256,-1.9256,-1.9232,-1.9224,-1.9224,-1.9224,-1.9224,-1.9224,-1.9256,-1.9256,-1.9256,-1.9256,-1.951,-1.9708,-2.0098,-2.0295,-2.0664,-2.103,-2.1367,-2.1707,-2.2236,-2.2567,-2.2869,-2.3266,-2.3332,-2.3615,-2.4217,-2.4127,-2.4421,-2.5356,-2.7418,-2.9504,-3.1407,-3.4823,-3.7553,-3.8624,-3.8688,-3.8989,-3.9704,-3.9768,-3.9768,-3.9768,-3.9768,-3.9768,-3.9768,-3.9963,-4.0707,-4.2409,-4.5191,-4.8234,-5.1169,-5.3675,-5.523,-5.6176,-5.6587,-5.6793,-5.6815,-5.723,-5.747,-5.7514,-5.7514,-5.7514,-5.7514,-5.7514,-5.8787,-6.1044,-6.5631,-6.9458,-7.2297,1.1455,1.1455,1.1455,1.1455,1.1455,1.1455,1.1455,1.1455,1.1455,1.1455,1.1455,1.1455,1.1455,1.1455,1.1325,1.0906,0.988,0.8864,0.8054,0.5684,0.4202,0.4404,0.441,0.4027,0.3066,0.4768,0.4781,0.3091,0.2137,0.0976,-0.0196,-0.2182,-0.3198,-0.3412,-0.3242,-0.4059,-0.5257,-0.4894,-0.5512,-0.651,-0.7478,-0.9865,-1.3057,-1.3854,-1.6453,-1.9256,-1.9256,-1.9256,-1.9256,-1.9256,-1.9256,-1.9256,-1.9256,-1.9256,-1.9256,-1.9256,-1.9256,-1.9454,-1.9651,-1.9706,-1.9902,-2.0481,-2.0756,-2.0989,-2.1244,-2.1423,-2.1754,-2.2141,-2.2576,-2.2935,-2.3124,-2.3558,-2.4267,-2.4939,-2.497,-2.5441,-2.709,-2.7634,-2.9135,-3.2164,-3.5584,-3.7941,-3.8624,-3.8688,-3.8989,-3.9704,-3.9768,-3.9768,-3.9768,-3.9768,-3.9768,-3.9768,-4.0917,-4.2042,-4.3123,-4.6574,-4.9253,-5.1731,-5.3859,-5.5429,-5.6447,-5.6793,-5.6793,-5.6815,-5.7011,-5.7273,-5.7514,-5.7514,-5.7361,-5.7305,-5.818,-6.0812,-6.444,-6.7916,-7.0584,-7.2297]},{"header":{"parameterUnit":"m.s-1","parameterCategory":1,"la1":30.6,"la2":28.766,"lo1":-90.7593,"lo2":-88.6598,"dx":0.0162,"dy":0.0183,"nx":116,"ny":114,"refTime":"2022-12-30T06:00:00:Z","depth":0,"parameterNumber":3,"parameterNumberName":"V-component_of_WINDS"},"data":[0.0,0.0,0.0,0.0,0.0,0.0,0.0,0.0,0.0,0.0,0.0,0.0,0.0,0.0,0.0,0.0,0.0,0.0,0.0,0.0,0.0,0.0,0.0,0.0,0.0,0.0,0.0,0.0,0.0,0.0,0.0,0.0,0.0,0.0,0.0,0.0,0.0,0.0,0.0,0.0,0.0,0.0,0.0,0.0,0.0,0.0,0.0,0.0,0.0,0.0,0.0,0.0,0.0,0.0,0.0,0.0,0.0,0.0,0.0,0.0,0.0,0.0,0.0,0.0,0.0,0.0,0.0,0.0,0.0,0.0,0.0,0.0,0.0,0.0,0.0,0.0,0.0,0.0,0.0,0.0,0.0,0.0,0.0,0.0,0.0,0.0,0.0,0.0,0.0,0.0,0.0,0.0,0.0,0.0,0.0,0.0,0.0,0.0,0.0,0.0,0.0,0.0,0.0,0.0,0.0,0.0,0.0,0.0,0.0,0.0,0.0,0.0,0.0,0.0,0.0,0.0,0.0,0.0,0.0,0.0,0.0,0.0,0.0,0.0,0.0,0.0,0.0,0.0,0.0,0.0,0.0,0.0,0.0,0.0,0.0,0.0,0.0,0.0,0.0,0.0,0.0,0.0,0.0,0.0,0.0,0.0,0.0,0.0,0.0,0.0,0.0,0.0,0.0,0.0,0.0,0.0,0.0,0.0,0.0,0.0,0.0,0.0,0.0,0.0,0.0,0.0,0.0,0.0,0.0,0.0,0.0,0.0,0.0,0.0,0.0,0.0,0.0,0.0,0.0,0.0,0.0,0.0,0.0,0.0,0.0,0.0,0.0,0.0,0.0,0.0,0.0,0.0,0.0,0.0,0.0,0.0,0.0,0.0,0.0,0.0,0.0,0.0,0.0,0.0,0.0,0.0,0.0,0.0,0.0,0.0,0.0,0.0,0.0,0.0,0.0,0.0,0.0,0.0,0.0,0.0,0.0,0.0,0.0,0.0,0.0,0.0,0.0,0.0,0.0,0.0,0.0,0.0,0.0,0.0,0.0,0.0,0.0,0.0,0.0,0.0,0.0,0.0,0.0,0.0,0.0,0.0,0.0,0.0,0.0,0.0,0.0,0.0,0.0,0.0,0.0,0.0,0.0,0.0,0.0,0.0,0.0,0.0,0.0,0.0,0.0,0.0,0.0,0.0,0.0,0.0,0.0,0.0,0.0,0.0,0.0,0.0,0.0,0.0,0.0,0.0,0.0,0.0,0.0,0.0,0.0,0.0,0.0,0.0,0.0,0.0,0.0,0.0,0.0,0.0,0.0,0.0,0.0,0.0,0.0,0.0,0.0,0.0,0.0,0.0,0.0,0.0,0.0,0.0,0.0,0.0,0.0,0.0,0.0,0.0,0.0,0.0,0.0,0.0,0.0,0.0,0.0,0.0,0.0,0.0,0.0,0.0,0.0,0.0,0.0,0.0,0.0,0.0,0.0,0.0,0.0,0.0,0.0,0.0,0.0,0.0,0.0,0.0,0.0,0.0,0.0,0.0,0.0,0.0,0.0,0.0,0.0,0.0,0.0,0.0,0.0,0.0,0.0,0.0,0.0,0.0,0.0,0.0,0.0,0.0,0.0,0.0,0.0,0.0,0.0,0.0,0.0,0.0,0.0,0.0,0.0,0.0,0.0,0.0,0.0,0.0,0.0,0.0,0.0,0.0,0.0,0.0,0.0,0.0,0.0,0.0,0.0,0.0,0.0,0.0,0.0,0.0,0.0,0.0,0.0,0.0,0.0,0.0,0.0,0.0,0.0,0.0,0.0,0.0,0.0,0.0,0.0,0.0,0.0,0.0,0.0,0.0,0.0,0.0,0.0,0.0,0.0,0.0,0.0,0.0,0.0,0.0,0.0,0.0,0.0,0.0,0.0,0.0,0.0,0.0,0.0,0.0,0.0,0.0,0.0,0.0,0.0,0.0,0.0,0.0,0.0,0.0,0.0,0.0,0.0,0.0,0.0,0.0,0.0,0.0,0.0,0.0,0.0,0.0,0.0,0.0,0.0,0.0,0.0,0.0,0.0,0.0,0.0,0.0,0.0,0.0,0.0,0.0,0.0,0.0,0.0,0.0,0.0,0.0,0.0,0.0,0.0,0.0,0.0,0.0,0.0,0.0,0.0,0.0,0.0,0.0,0.0,0.0,0.0,0.0,0.0,0.0,0.0,0.0,0.0,0.0,0.0,0.0,0.0,0.0,0.0,0.0,0.0,0.0,0.0,0.0,0.0,0.0,0.0,0.0,0.0,0.0,0.0,0.0,0.0,0.0,0.0,0.0,0.0,0.0,0.0,0.0,0.0,0.0,0.0,0.0,0.0,0.0,0.0,0.0,0.0,0.0,0.0,0.0,0.0,0.0,0.0,0.0,0.0,0.0,0.0,0.0,0.0,0.0,0.0,0.0,0.0,0.0,0.0,0.0,0.0,0.0,0.0,0.0,0.0,0.0,0.0,0.0,0.0,0.0,0.0,0.0,0.0,0.0,0.0,0.0,0.0,0.0,0.0,0.0,0.0,0.0,0.0,0.0,0.0,0.0,0.0,0.0,0.0,0.0,0.0,0.0,0.0,0.0,0.0,0.0,0.0,0.0,0.0,0.0,0.0,0.0,0.0,0.0,0.0,0.0,0.0,0.0,0.0,0.0,0.0,0.0,0.0,0.0,0.0,0.0,0.0,0.0,0.0,0.0,0.0,0.0,0.0,0.0,0.0,0.0,0.0,0.0,0.0,0.0,0.0,0.0,0.0,0.0,0.0,0.0,0.0,0.0,0.0,0.0,0.0,0.0,0.0,0.0,0.0,0.0,0.0,0.0,0.0,0.0,0.0,0.0,0.0,0.0,0.0,0.0,0.0,0.0,0.0,0.0,0.0,0.0,0.0,0.0,0.0,0.0,0.0,0.0,0.0,0.0,0.0,0.0,0.0,0.0,0.0,0.0,0.0,0.0,0.0,0.0,0.0,0.0,0.0,0.0,0.0,0.0,0.0,0.0,0.0,0.0,0.0,0.0,0.0,0.0,0.0,0.0,0.0,0.0,0.0,0.0,0.0,0.0,0.0,0.0,0.0,0.0,0.0,0.0,0.0,0.0,0.0,0.0,0.0,0.0,0.0,0.0,0.0,0.0,0.0,0.0,0.0,0.0,0.0,0.0,0.0,0.0,0.0,0.0,0.0,0.0,0.0,0.0,0.0,0.0,0.0,0.0,0.0,0.0,0.0,0.0,0.0,0.0,0.0,0.0,0.0,0.0,0.0,0.0,0.0,0.0,0.0,0.0,0.0,0.0,0.0,0.0,0.0,0.0,0.0,0.0,0.0,0.0,0.0,0.0,0.0,0.0,0.0,0.0,0.0,0.0,0.0,0.0,0.0,0.0,0.0,0.0,0.0,0.0,0.0,0.0,0.0,0.0,0.0,0.0,0.0,0.0,0.0,0.0,0.0,0.0,0.0,0.0,0.0,0.0,0.0,0.0,0.0,0.0,0.0,0.0,0.0,0.0,0.0,0.0,0.0,0.0,0.0,0.0,0.0,0.0,0.0,0.0,0.0,0.0,0.0,0.0,0.0,0.0,0.0,0.0,0.0,0.0,0.0,0.0,0.0,0.0,0.0,0.0,0.0,0.0,0.0,0.0,0.0,0.0,0.0,0.0,0.0,0.0,0.0,0.0,0.0,0.0,0.0,0.0,0.0,0.0,0.0,0.0,0.0,0.0,0.0,0.0,0.0,0.0,0.0,0.0,0.0,0.0,0.0,0.0,0.0,0.0,0.0,0.0,0.0,0.0,0.0,0.0,0.0,0.0,0.0,0.0,0.0,0.0,0.0,0.0,0.0,0.0,0.0,0.0,0.0,0.0,0.0,0.0,0.0,0.0,0.0,0.0,0.0,0.0,0.0,0.0,0.0,0.0,0.0,0.0,0.0,0.0,0.0,0.0,0.0,0.0,0.0,0.0,0.0,0.0,0.0,0.0,0.0,0.0,0.0,0.0,0.0,0.0,0.0,0.0,0.0,0.0,0.0,0.0,0.0,0.0,0.0,0.0,0.0,0.0,0.0,0.0,0.0,0.0,0.0,0.0,0.0,0.0,0.0,0.0,0.0,0.0,0.0,0.0,0.0,0.0,0.0,0.0,0.0,0.0,0.0,0.0,0.0,0.0,0.0,0.0,0.0,0.0,0.0,0.0,0.0,0.0,0.0,0.0,0.0,0.0,0.0,0.0,0.0,0.0,0.0,0.0,0.0,0.0,0.0,0.0,0.0,0.0,0.0,0.0,0.0,0.0,0.0,0.0,0.0,0.0,0.0,0.0,0.0,0.0,0.0,0.0,0.0,0.0,0.0,0.0,0.0,0.0,0.0,0.0,0.0,0.0,0.0,0.0,0.0,0.0,0.0,0.0,0.0,0.0,0.0,0.0,0.0,0.0,0.0,0.0,0.0,0.0,0.0,0.0,0.0,0.0,0.0,0.0,0.0,0.0,0.0,0.0,0.0,0.0,0.0,0.0,0.0,0.0,0.0,0.0,0.0,0.0,0.0,0.0,0.0,0.0,0.0,0.0,0.0,0.0,0.0,0.0,0.0,0.0,0.0,0.0,0.0,0.0,0.0,0.0,0.0,0.0,0.0,0.0,0.0,0.0,0.0,0.0,0.0,0.0,0.0,0.0,0.0,0.0,0.0,0.0,0.0,0.0,0.0,0.0,0.0,0.0,0.0,0.0,0.0,0.0,0.0,0.0,0.0,0.0,0.0,0.0,0.0,0.0,0.0,0.0,0.0,0.0,0.0,0.0,0.0,0.0,0.0,0.0,0.0,0.0,0.0,0.0,0.0,0.0,0.0,0.0,0.0,0.0,0.0,0.0,0.0,0.0,0.0,0.0,0.0,0.0,0.0,0.0,0.0,0.0,0.0,0.0,0.0,0.0,0.0,0.0,0.0,0.0,0.0,0.0,0.0,0.0,0.0,0.0,0.0,0.0,0.0,0.0,0.0,0.0,0.0,0.0,0.0,0.0,0.0,0.0,0.0,0.0,0.0,0.0,0.0,0.0,0.0,0.0,0.0,0.0,0.0,0.0,0.0,0.0,0.0,0.0,0.0,0.0,0.0,0.0,0.0,0.0,0.0,0.0,0.0,0.0,0.0,0.0,0.0,0.0,0.0,0.0,0.0,0.0,0.0,0.0,0.0,0.0,0.0,0.0,0.0,0.0,0.0,0.0,0.0,0.0,0.0,0.0,0.0,0.0,0.0,0.0,0.0,0.0,0.0,0.0,0.0,0.0,0.0,0.0,0.0,0.0,0.0,0.0,0.0,0.0,0.0,0.0,0.0,0.0,0.0,0.0,0.0,0.0,0.0,0.0,0.0,0.0,0.0,0.0,0.0,0.0,0.0,0.0,0.0,0.0,0.0,0.0,0.0,0.0,0.0,0.0,0.0,0.0,0.0,0.0,0.0,0.0,0.0,0.0,0.0,0.0,0.0,0.0,0.0,0.0,0.0,0.0,0.0,0.0,0.0,0.0,0.0,0.0,0.0,0.0,0.0,0.0,0.0,0.0,0.0,0.0,0.0,0.0,0.0,0.0,0.0,0.0,0.0,0.0,0.0,0.0,0.0,0.0,0.0,0.0,0.0,0.0,0.0,0.0,0.0,0.0,0.0,0.0,0.0,0.0,0.0,0.0,0.0,0.0,0.0,0.0,0.0,0.0,0.0,0.0,0.0,0.0,0.0,0.0,0.0,0.0,0.0,0.0,0.0,0.0,0.0,0.0,0.0,0.0,0.0,0.0,0.0,0.0,0.0,0.0,0.0,0.0,0.0,0.0,0.0,0.0,0.0,0.0,0.0,0.0,0.0,0.0,0.0,0.0,0.0,0.0,0.0,0.0,0.0,0.0,0.0,0.0,0.0,0.0,0.0,0.0,0.0,0.0,0.0,0.0,0.0,0.0,0.0,0.0,0.0,0.0,0.0,0.0,0.0,0.0,0.0,0.0,0.0,0.0,0.0,0.0,0.0,0.0,0.0,0.0,0.0,0.0,0.0,0.0,0.0,0.0,0.0,0.0,0.0,0.0,0.0,0.0,0.0,0.0,0.0,0.0,-5.0676,0.0,0.0,0.0,0.0,0.0,0.0,0.0,0.0,0.0,0.0,0.0,0.0,0.0,0.0,0.0,0.0,0.0,0.0,0.0,0.0,0.0,0.0,0.0,0.0,-2.696,-2.7186,-2.7186,-2.7186,0.0,0.0,0.0,0.0,0.0,0.0,0.0,0.0,0.0,-2.9814,-3.1466,-3.1429,-3.2954,-3.5883,-3.504,-3.4035,-3.2879,0.0,0.0,0.0,0.0,0.0,0.0,0.0,0.0,0.0,0.0,0.0,0.0,0.0,0.0,0.0,0.0,0.0,0.0,0.0,0.0,0.0,0.0,0.0,0.0,0.0,0.0,0.0,0.0,0.0,0.0,0.0,0.0,0.0,0.0,0.0,0.0,0.0,0.0,0.0,0.0,0.0,0.0,0.0,0.0,0.0,0.0,0.0,0.0,0.0,0.0,0.0,0.0,0.0,0.0,0.0,0.0,0.0,0.0,0.0,0.0,0.0,0.0,0.0,0.0,0.0,0.0,0.0,0.0,0.0,0.0,0.0,-5.2111,0.0,0.0,0.0,0.0,0.0,0.0,0.0,0.0,0.0,0.0,0.0,0.0,0.0,0.0,0.0,0.0,0.0,0.0,0.0,0.0,0.0,-2.6735,-2.7561,-2.7636,-2.7749,-2.8012,-2.7937,-2.7899,-2.8049,-2.8032,0.0,0.0,0.0,0.0,-3.0527,-3.0941,-3.2067,-3.4057,-3.5302,-3.7154,-3.9489,-4.1113,-4.0575,-3.812,-3.5293,0.0,0.0,0.0,0.0,0.0,0.0,0.0,0.0,0.0,0.0,0.0,0.0,0.0,0.0,0.0,0.0,0.0,0.0,0.0,0.0,0.0,0.0,0.0,0.0,0.0,0.0,0.0,0.0,0.0,0.0,0.0,0.0,0.0,0.0,0.0,0.0,0.0,0.0,0.0,0.0,0.0,0.0,0.0,0.0,0.0,0.0,0.0,0.0,0.0,0.0,0.0,0.0,0.0,0.0,0.0,0.0,0.0,0.0,0.0,0.0,0.0,0.0,0.0,-5.6215,-5.6466,-5.7123,-5.7021,-5.6953,-5.685,-5.5553,-5.5076,-5.5279,-5.4761,0.0,0.0,0.0,0.0,0.0,0.0,0.0,0.0,0.0,0.0,0.0,0.0,0.0,0.0,0.0,0.0,0.0,0.0,0.0,-2.8425,-2.9288,-2.9363,-2.9927,-3.1316,-3.0828,-3.0715,-3.1391,-3.1464,0.0,0.0,0.0,0.0,-3.3907,-3.263,-3.3494,-3.661,-3.9739,-4.1698,-4.2458,-4.338,-4.4487,-4.5503,-4.1212,-4.0181,-4.137,0.0,0.0,0.0,0.0,0.0,0.0,0.0,0.0,0.0,0.0,0.0,0.0,0.0,0.0,0.0,0.0,0.0,0.0,0.0,0.0,0.0,0.0,0.0,0.0,0.0,0.0,0.0,0.0,0.0,0.0,0.0,0.0,0.0,0.0,0.0,0.0,0.0,0.0,0.0,0.0,0.0,-4.6091,-4.698,0.0,0.0,0.0,0.0,0.0,0.0,0.0,0.0,0.0,0.0,0.0,0.0,0.0,-5.5823,-5.5575,-5.6789,-5.7458,-5.7665,-5.8118,-5.8702,-5.9421,-5.9102,-5.9298,-5.9803,-5.9451,0.0,-5.6064,-5.5962,0.0,0.0,0.0,0.0,0.0,0.0,0.0,0.0,0.0,0.0,0.0,0.0,0.0,0.0,0.0,0.0,0.0,0.0,0.0,0.0,0.0,-3.0752,-3.1502,-3.2743,-3.3302,-3.3377,-3.2856,-3.3698,0.0,0.0,0.0,-3.5237,-3.5972,-3.6197,-3.7566,-4.0079,-4.2655,-4.4075,-4.4449,-4.5379,-4.6268,-4.7008,-4.4986,-4.3466,-4.2314,-4.0474,0.0,0.0,0.0,0.0,0.0,0.0,0.0,0.0,0.0,0.0,0.0,0.0,0.0,0.0,0.0,0.0,0.0,0.0,0.0,0.0,0.0,0.0,0.0,0.0,0.0,0.0,0.0,0.0,0.0,0.0,0.0,0.0,0.0,0.0,0.0,0.0,0.0,0.0,0.0,-4.5836,-4.7229,-4.8677,-4.9639,-5.0121,0.0,0.0,0.0,0.0,0.0,0.0,0.0,0.0,0.0,-5.7304,-5.722,-5.7763,-5.8969,-5.9111,-5.9323,-5.9631,-5.9869,-6.0069,-6.0159,-6.0013,-6.0034,-6.0265,-6.0114,-5.9445,-5.8371,-5.8515,-5.9089,-5.9933,0.0,0.0,0.0,0.0,-5.8095,-5.7853,0.0,0.0,0.0,0.0,0.0,0.0,0.0,0.0,0.0,0.0,0.0,0.0,-3.1652,-3.2323,-3.3163,-3.448,-3.5281,-3.5581,-3.5289,-3.6025,-3.6475,-3.6498,-3.7474,-3.815,-3.8338,-3.9838,-4.135,-4.2791,-4.4934,-4.6244,-4.6904,-4.7921,-4.8508,-4.874,-4.874,-4.6844,-4.3595,-4.3169,-4.2009,-4.0423,0.0,0.0,0.0,0.0,0.0,0.0,0.0,0.0,0.0,0.0,0.0,0.0,0.0,0.0,0.0,0.0,0.0,0.0,0.0,0.0,0.0,0.0,0.0,0.0,0.0,0.0,0.0,0.0,0.0,0.0,0.0,0.0,0.0,0.0,0.0,0.0,0.0,-4.8047,-4.9021,-5.0417,-5.1674,-5.2488,0.0,0.0,0.0,0.0,0.0,0.0,-5.9016,-5.8458,-5.8834,-6.0465,-5.9408,-5.9622,-6.1471,-6.105,-6.1011,-6.1384,-6.1444,-6.1366,-6.1068,-6.0993,-6.0842,-6.0689,-6.0892,-6.096,-6.096,-6.0706,-6.1147,-6.1806,-6.1147,-6.1452,-6.2042,-6.1264,-6.096,-6.1095,0.0,0.0,0.0,0.0,0.0,0.0,0.0,0.0,0.0,0.0,0.0,-3.2451,-3.4136,-3.436,-3.531,-3.7654,-3.6545,-3.7042,-4.015,-3.8915,-3.9127,-4.1503,-4.1004,-4.0966,-4.1728,-4.2837,-4.3574,-4.3942,-4.6628,-4.887,-5.0658,-5.1525,-5.2376,-5.3188,-5.3188,-5.1293,-4.7966,-4.6303,-4.5993,-4.6419,-4.402,0.0,0.0,0.0,0.0,0.0,0.0,0.0,0.0,0.0,0.0,0.0,0.0,0.0,0.0,0.0,0.0,0.0,0.0,0.0,0.0,0.0,0.0,0.0,0.0,0.0,0.0,0.0,0.0,0.0,0.0,0.0,0.0,0.0,0.0,0.0,0.0,0.0,0.0,-5.219,-5.4211,0.0,0.0,0.0,0.0,-5.9099,-5.8547,-5.909,-6.13,-6.0872,-6.1281,-6.2894,-6.2382,-6.2108,-6.2279,-6.237,-6.2393,-6.2427,-6.2781,-6.2863,-6.2863,-6.2513,-6.2279,-6.2313,-6.3024,-6.3362,-6.3226,-6.1839,-6.211,-6.3328,-6.255,-6.3159,-6.4343,-6.3599,-6.3362,-6.3463,0.0,0.0,0.0,-2.5421,-2.5812,-2.6338,-2.7373,-2.85,-2.9551,-3.0377,-3.1897,-3.3339,-3.4427,-3.5446,-3.6595,-3.8041,-3.8999,-3.9608,-3.981,-4.1285,-4.2125,-4.1938,-4.2742,-4.3638,-4.4638,-4.5003,-4.5948,-4.7396,-4.8952,-5.0121,-5.0906,-5.1215,-5.1525,-5.1834,-5.1834,-5.1138,-4.9977,-4.9359,-4.8314,-4.6999,-4.6109,-4.5104,0.0,0.0,0.0,0.0,0.0,0.0,0.0,0.0,0.0,0.0,0.0,0.0,0.0,0.0,0.0,0.0,0.0,0.0,0.0,0.0,0.0,0.0,0.0,0.0,0.0,0.0,0.0,0.0,0.0,0.0,0.0,0.0,0.0,0.0,0.0,0.0,0.0,-5.4445,-5.6197,0.0,-5.8518,-5.9513,-6.0535,-6.1496,-6.1826,-6.2781,-6.464,-6.3639,-6.3744,-6.5337,-6.391,-6.3267,-6.3758,-6.3788,-6.3645,-6.357,-6.4493,-6.4835,-6.4754,-6.5101,-6.5222,-6.5256,-6.5527,-6.5628,-6.5628,-6.5561,-6.5019,-6.4275,-6.4952,-6.5561,-6.6102,-6.6846,-6.7117,-6.7083,0.0,0.0,0.0,-2.585,-2.6226,-2.696,-2.8612,-2.9551,-3.0603,-3.1992,-3.3323,-3.4689,-3.6054,-3.7106,-3.8289,-3.9634,-4.07,-4.1418,-4.1801,-4.3128,-4.3858,-4.3624,-4.4468,-4.5649,-4.7365,-4.72,-4.8105,-5.0183,-5.0817,-5.1524,-5.2221,-5.2221,-5.2376,-5.2608,-5.2608,-5.2492,-5.2221,-5.1912,-5.0635,-4.8778,-4.8508,-4.7734,-4.6612,0.0,0.0,0.0,0.0,0.0,0.0,0.0,0.0,0.0,0.0,0.0,0.0,0.0,0.0,0.0,0.0,0.0,0.0,0.0,0.0,0.0,0.0,0.0,0.0,0.0,0.0,0.0,0.0,0.0,0.0,0.0,0.0,0.0,0.0,-5.3804,-5.4951,-5.6145,-5.8113,-5.9679,-6.0525,-6.207,-6.3198,-6.3613,-6.442,-6.5375,-6.6439,-6.5605,-6.5786,-6.7425,-6.5868,-6.5445,-6.6541,-6.5857,-6.5607,-6.5765,-6.6131,-6.6316,-6.6151,-6.6576,-6.6812,-6.6812,-6.7083,-6.7184,-6.7252,-6.7996,-6.7455,-6.6203,-6.7184,-6.759,-6.7726,-6.8741,-6.9113,-6.8977,0.0,0.0,-2.497,-2.5888,-2.666,-2.7786,-2.9476,-3.0415,-3.1804,-3.4282,-3.5289,-3.6643,-3.9037,-3.9373,-4.0364,-4.253,-4.1407,-4.2276,-4.6321,-4.4408,-4.4242,-4.6899,-4.6223,-4.7099,-4.9857,-4.9349,-5.0019,-5.1992,-5.2194,-5.3149,-5.4851,-5.4851,-5.5238,-5.6012,-5.6012,-5.5586,-5.4774,-5.3923,-5.3072,-5.2221,-5.1331,-5.0945,-5.0596,0.0,0.0,0.0,0.0,0.0,0.0,0.0,0.0,0.0,0.0,0.0,0.0,0.0,0.0,0.0,0.0,0.0,0.0,0.0,0.0,0.0,0.0,0.0,0.0,0.0,0.0,0.0,0.0,0.0,0.0,0.0,0.0,0.0,-5.4963,-5.6295,-5.7431,-5.7285,-5.9863,-6.201,-6.299,-6.4434,-6.5338,-6.5338,-6.6109,-6.6586,-6.6623,-6.6623,-6.732,-6.888,-6.8335,-6.8706,-7.0191,-6.861,-6.8169,-6.8938,-6.7799,-6.7214,-6.7214,-6.7032,-6.6981,-6.6948,-6.7692,-6.7996,-6.7996,-6.8774,-6.9113,-6.9113,-6.9113,-6.9113,-6.9147,-6.9147,-6.9147,-6.9011,-2.4707,-2.4707,-2.5158,-2.6622,-2.7035,-2.7974,-3.0227,-3.0753,-3.1804,-3.4282,-3.5822,-3.7188,-3.8415,-4.015,-4.122,-4.1222,-4.1885,-4.2781,-4.3871,-4.452,-4.5536,-4.6936,-4.7504,-4.8529,-5.0097,-5.0768,-5.2069,-5.4009,-5.4061,-5.4619,-5.5664,-5.5664,-5.578,-5.6012,-5.6012,-5.5896,-5.5664,-5.5432,-5.5161,-5.4774,-5.2685,-5.1834,-5.1796,0.0,0.0,0.0,0.0,0.0,0.0,0.0,0.0,0.0,0.0,0.0,0.0,0.0,0.0,0.0,0.0,0.0,0.0,0.0,0.0,0.0,0.0,0.0,0.0,0.0,0.0,0.0,0.0,0.0,0.0,0.0,-5.7974,-5.9033,-5.8041,-5.8878,-5.9984,-6.1124,-6.1973,-6.3062,-6.4545,-6.5558,-6.6182,-6.6182,-6.7467,-6.8495,-6.9082,-6.9119,-6.9392,-6.9877,-6.9733,-6.9253,-6.8399,-6.8982,-6.8916,-6.8391,-6.905,-6.9335,-6.9369,-7.0364,-7.0297,-6.9316,-7.006,-6.9755,-6.8808,-6.9011,-6.9113,-6.9113,-6.9113,-6.9417,-6.9891,-6.9891,-6.9891,-6.9857,-2.5158,-2.5233,-2.5646,-2.696,-2.7486,-2.8537,-3.1016,-3.1128,-3.2029,-3.5221,-3.6498,-3.7662,-3.9152,-4.0851,-4.1809,-4.1614,-4.2772,-4.3669,-4.4005,-4.5365,-4.6815,-4.8155,-4.8802,-5.0038,-5.1919,-5.2585,-5.3706,-5.5316,-5.5316,-5.5548,-5.6012,-5.6012,-5.6205,-5.6553,-5.6553,-5.6553,-5.6553,-5.6553,-5.6553,-5.6437,-5.4946,-5.3939,-5.3304,-5.3459,-5.2337,-5.0751,-5.0867,-4.9939,-4.8662,-4.8421,0.0,0.0,0.0,0.0,0.0,0.0,0.0,0.0,0.0,0.0,0.0,0.0,0.0,0.0,0.0,0.0,0.0,0.0,0.0,0.0,0.0,0.0,0.0,0.0,-6.0275,-6.1956,-6.1356,-6.1499,-6.2092,-6.3235,-6.3943,-6.4751,-6.5705,-6.7136,-6.7871,-6.754,-6.9009,-6.9963,-7.0073,-7.0403,-7.0783,-7.1222,-7.1282,-7.1045,-7.0629,-7.0664,-7.0545,-7.0104,-7.0459,-7.05,-7.0229,-7.1075,-7.0838,-6.9755,-7.0534,-7.0364,-6.9586,-6.9891,-7.0026,0.0,0.0,0.0,0.0,0.0,-6.9992,-6.9755,-2.6,-2.6151,-2.6414,-2.7186,-2.7919,-2.9195,-3.1616,-3.1278,-3.2255,-3.6423,-3.6948,-3.7901,-4.03,-4.1461,-4.2258,-4.2809,-4.3847,-4.4811,-4.5694,-4.6636,-4.8004,-4.983,-5.0214,-5.1672,-5.4318,-5.4513,-5.5037,-5.6012,-5.6012,-5.6012,-5.6012,-5.6089,-5.6553,-5.7288,-5.7404,-5.7521,-5.7598,-5.7598,-5.7598,-5.7598,-5.7783,-5.6798,-5.5178,-5.4404,-5.3475,-5.2546,-5.1757,-5.137,-5.1099,-5.0511,0.0,0.0,0.0,0.0,0.0,0.0,0.0,0.0,0.0,0.0,0.0,0.0,0.0,0.0,0.0,0.0,0.0,0.0,0.0,0.0,0.0,0.0,0.0,0.0,-6.2892,-6.5128,-6.459,-6.4165,-6.4012,-6.4324,-6.5632,-6.6586,-6.6733,-6.8715,-6.9706,-6.9082,-7.044,-7.1027,-7.0403,0.0,0.0,0.0,0.0,-7.3399,-7.4536,-7.2906,-7.2255,-7.2769,-7.1708,-7.0838,-7.0195,-7.0263,-6.9857,-6.9147,-6.9958,-7.0229,-7.0128,-7.077,-7.1109,-7.1142,-7.0534,-6.9857,-6.9316,-7.006,-6.9891,-6.9451,-2.6923,-2.696,-2.7223,-2.8032,-2.8294,-2.9007,-3.0865,-3.0452,-3.1429,-3.5597,-3.6122,-3.7061,-3.9539,-4.1728,-4.279,-4.2146,-4.4149,-4.5819,-4.6682,-4.772,-4.878,-4.9857,-5.2203,-5.3793,-5.4377,-5.5268,-5.5784,-5.6012,-5.6012,-5.6012,-5.6012,-5.6781,-5.7168,-5.7327,-5.8097,-5.8794,-5.9377,-5.9392,-5.9392,-5.9469,-6.0218,-5.952,-5.7921,-5.7766,-5.6737,-5.5343,-5.51,-5.4155,-5.2995,-5.2965,-5.2523,-5.1964,-5.1913,-5.1196,0.0,0.0,0.0,0.0,0.0,0.0,0.0,0.0,0.0,0.0,0.0,0.0,0.0,0.0,0.0,0.0,0.0,0.0,0.0,-6.3054,-6.4197,-6.5385,-6.6879,-6.6702,-6.6297,-6.6051,-6.6292,-6.7026,-6.8311,-6.8862,-6.9339,-6.9816,-7.077,-7.1541,-7.2018,-7.2789,-7.3597,-7.4404,-7.4461,-7.4464,-7.4322,-7.3361,-7.2755,-7.2484,0.0,0.0,-7.0195,-7.0804,-7.0364,-6.918,-7.0534,-7.0432,-6.9316,-6.9485,-6.9891,-7.0466,-7.0906,-7.0635,-7.006,-7.0838,-7.1007,-7.0906,-2.8462,-2.8087,-2.7919,-2.8332,-2.8745,-2.9476,-3.0696,-3.0227,-3.1053,-3.4771,-3.5634,-3.6535,-3.8174,-4.1304,-4.2769,-4.144,-4.3642,-4.5867,-4.7692,-4.831,-4.9493,-5.1415,-5.3388,-5.4649,-5.5172,-5.5727,-5.6012,-5.6012,-5.6012,-5.6012,-5.6051,-5.7417,-5.8247,-5.8639,-5.999,-6.0803,-6.1191,-6.1191,-6.1208,-6.1203,-6.1275,-6.1058,-6.0561,-5.9692,-5.8551,-5.7389,-5.7373,-5.6814,-5.6001,-5.5242,-5.4758,-5.4328,-5.3512,-5.2706,-5.18,0.0,0.0,0.0,0.0,0.0,0.0,0.0,0.0,0.0,0.0,0.0,0.0,0.0,0.0,-5.898,-5.9754,0.0,-6.3399,-6.467,-6.6014,-6.7159,-6.771,-6.8309,-6.8453,-6.7794,-6.7687,-6.8164,-6.9376,-6.9853,-7.044,-7.1248,-7.2055,-7.2863,-7.367,-7.4441,-7.5285,-7.6093,-7.537,-7.4977,-7.4876,-7.2951,-7.1799,-7.1278,-7.0161,-6.9451,-6.9079,-6.9857,-6.9586,-6.8571,-7.0094,-7.0331,-6.9688,-7.006,-7.0635,-7.1345,-7.1718,-7.1413,-7.0804,-7.1176,-7.1548,-7.1921,-2.9701,-2.9138,-2.8632,-2.8632,-2.9251,-2.9927,-3.0565,-3.0114,-3.0753,-3.3719,-3.4733,-3.5672,-3.6948,-4.0215,-4.2055,-4.1342,-4.331,-4.5628,-4.8211,-4.8606,-5.0054,-5.2972,-5.3995,-5.4979,-5.5973,-5.6012,-5.6012,-5.6012,-5.6012,-5.6012,-5.6051,-5.7688,-5.8867,-5.9719,-6.1479,-6.2426,-6.2754,-6.293,-6.3025,-6.2942,-6.2137,-6.2152,-6.2463,-6.088,-5.9739,-5.8987,-5.8971,-5.8855,-5.8506,-5.7211,-5.6834,-5.6634,-5.5312,-5.4431,-5.3756,-5.2702,-5.2429,0.0,0.0,0.0,0.0,0.0,0.0,0.0,0.0,-5.6963,-5.7441,-5.868,-5.9865,-6.0834,-6.1349,-6.3399,-6.5244,-6.5987,-6.7692,-6.8787,-6.8349,-6.929,-6.9841,-6.9412,-6.9229,-6.9449,-7.0257,-7.1064,-7.1872,-7.2679,-7.3487,-7.4368,-7.5322,-7.5836,-7.657,-7.7524,-7.5898,-7.5113,-7.5307,-7.2368,-7.0788,-7.0487,-6.9519,-6.8842,-6.8368,-6.9011,-6.8944,-6.8402,-6.9789,-7.05,-7.0669,-7.1278,-7.1954,-7.2597,-7.2597,-7.2326,-7.1921,-7.1785,-7.209,-7.2699,-2.9701,-2.9626,-2.9551,-2.9551,-2.9626,-2.9739,-2.9814,-2.9739,-3.034,-3.2142,-3.2443,-3.3682,-3.6761,-3.815,-3.999,-4.2769,-4.4096,-4.5571,-4.7403,-4.8592,-5.0355,-5.2972,-5.4148,-5.5144,-5.5973,-5.6012,-5.6012,-5.6012,-5.6012,-5.6012,-5.6012,-5.7069,-5.7959,-5.8815,-6.0644,-6.2215,-6.3632,-6.4532,-6.486,-6.4748,-6.3992,-6.3284,-6.257,-6.1599,-6.0692,-5.9963,-5.9879,-5.9359,-5.8661,-5.8552,-5.8548,-5.8616,-5.8484,-5.8398,-5.8089,-5.6489,-5.602,-5.563,-5.3873,-5.4099,-5.4987,-5.5845,-5.6597,-5.748,0.0,-5.9766,-6.0365,-6.1081,-6.3102,-6.4747,-6.4832,-6.6292,-6.7782,-6.8623,-6.83,-6.8424,-6.9842,-6.9459,-6.9522,-7.0881,-7.0403,-7.0293,-7.1101,-7.1908,-7.2716,-7.3487,-7.4331,-7.5432,-7.6974,-7.646,-7.6827,-7.8405,-7.6187,-7.4864,-7.4677,-7.2173,-7.1061,-7.141,-6.9843,-6.9383,-6.9925,-7.0026,-7.0026,-6.9992,-7.0838,-7.1548,-7.2157,-7.2225,-7.2699,-7.3375,-7.3375,-7.3713,-7.4153,-7.3477,-7.3308,-7.3375,-2.9701,-2.9701,-2.9701,-2.9701,-2.9701,-2.9701,-2.9701,-2.9701,-3.0114,-3.1241,-3.2255,-3.3381,-3.4808,-3.7399,-3.999,-4.2355,-4.3932,-4.5176,-4.6062,-4.8105,-5.0028,-5.1756,-5.3735,-5.4967,-5.5277,-5.578,-5.6012,-5.6012,-5.6012,-5.6012,-5.6051,-5.7473,-5.8358,-5.8729,-6.0499,-6.1989,-6.3136,-6.3518,-6.4,-6.4404,-6.358,-6.3012,-6.2585,-6.173,-6.1172,-6.0847,-6.0832,-6.025,0.0,-5.9566,-5.9266,-5.8889,-5.8973,-5.8706,-5.8116,-5.6918,-5.6904,-5.7255,-5.701,-5.7193,-5.7648,-5.8559,-5.9342,-6.0105,-6.1009,-6.1427,-6.2056,-6.3504,-6.4649,-6.5681,-6.6674,-6.7821,-6.8776,-6.912,-6.9473,-6.9838,-7.0261,-7.0549,-7.086,-7.1211,-7.1835,-7.2312,-7.2679,-7.301,-7.3707,-7.4992,-7.5395,-7.6093,-7.7268,-7.7011,-7.7341,-7.8552,-7.6233,-7.4798,-7.4496,-7.2215,-7.0732,-7.008,-6.9524,-6.9388,-6.9553,-6.9992,-7.0432,-7.0872,-7.1616,-7.2124,-7.2428,-7.2868,-7.3477,-7.4153,-7.4153,-7.4593,-7.5168,-7.4424,-7.4424,-7.4762,-2.9701,-2.9701,-2.9701,-2.9701,-2.9701,-2.9701,-2.9701,-2.9701,-2.9927,-3.049,-3.1616,-3.2705,-3.3644,-3.7024,-3.9802,-4.1229,-4.3064,-4.4349,-4.484,-4.7012,-4.908,-5.0813,-5.2956,-5.431,-5.4774,-5.5586,-5.6012,-5.6012,-5.6012,-5.6012,-5.6068,-5.7373,-5.8102,-5.8428,-5.9948,-6.1104,-6.1973,-6.2424,-6.3021,-6.3541,-6.2973,-6.2701,-6.2585,-6.173,-6.1264,-6.1031,-6.1031,-6.0642,-6.0099,-6.0099,-5.9588,-5.896,-5.9285,-5.8977,-5.8391,-5.7773,-5.8025,-5.8643,-5.9293,-5.9591,-5.9927,-6.0878,-6.1664,-6.2352,-6.2853,-6.3129,-6.3737,-6.5417,-6.6139,-6.6827,-6.8012,-6.8967,-6.954,-6.954,-7.0378,-7.0909,-7.0674,-7.1402,-7.1939,-7.1671,-7.2863,-7.378,-7.4001,-7.4221,-7.4845,-7.6019,-7.6313,-7.679,-7.7635,-7.7451,-7.7598,-7.8222,-7.5931,-7.4575,-7.4224,-7.1967,-7.051,-6.9919,-6.9696,-6.9659,-6.9722,-7.0263,-7.0906,-7.165,-7.2157,-7.2631,-7.3037,-7.3578,-7.4255,-7.4897,-7.4897,-7.5236,-7.5642,-7.51,-7.5236,-7.5709,-2.9701,-2.9701,-2.9701,-2.9701,-2.9701,-2.9701,-2.9701,-2.9701,-2.9701,-2.9739,-2.9777,-3.1016,-3.4207,-3.6836,-3.8713,-3.9577,-4.1387,-4.2927,-4.398,-4.5109,-4.7284,-5.0735,-5.1796,-5.3072,-5.4774,-5.5586,-5.6012,-5.6012,-5.6012,-5.6029,-5.6117,-5.6156,-5.6637,-5.7498,-5.8435,-5.9312,-6.0212,-6.1973,-6.2672,-6.2641,-6.2687,-6.2701,-6.2585,-6.173,-6.0875,-6.0137,-6.0137,-6.0137,-6.0099,-6.0099,-5.9601,-5.9139,-5.9998,-6.0273,-6.0339,-6.0294,-6.0282,-6.0347,-6.0347,-6.0917,-6.172,-6.2617,-6.3258,-6.3915,-6.4561,-6.5203,-6.5781,-6.6506,-6.7935,-6.9082,-6.9158,-6.9807,-7.0381,-7.0381,-7.072,-7.1098,-7.1381,-7.1776,-7.2124,-7.2406,-7.3193,-7.4001,-7.4808,-7.5579,-7.6056,-7.6093,-7.6827,-7.7671,-7.8516,-7.7781,-7.7341,-7.7378,-7.5137,-7.3934,-7.3849,-7.1132,-7.0457,-7.1896,-7.0755,-7.0534,-7.1244,-7.1278,-7.1684,-7.236,-7.2394,-7.3206,-7.4559,-7.4559,-7.4999,-7.5676,-7.5676,-7.5676,-7.5709,-7.5676,-7.5676,-7.5709,-2.9701,-2.9701,-2.9701,-2.9701,-2.9701,-2.9701,-2.9701,-2.9757,-2.9737,-2.972,-3.0152,0.0,0.0,0.0,0.0,0.0,-3.9564,-4.1169,-4.1456,-4.3657,-4.5718,-4.7424,-4.9977,-5.1602,-5.2221,-5.4194,-5.4929,-5.4349,-5.4907,-5.4939,-5.4413,-5.5002,-5.5458,-5.5782,-5.6717,-5.7624,-5.8478,-5.9619,-6.0434,-6.0978,-6.1599,-6.1847,-6.1886,-6.2157,-6.173,-6.0953,0.0,-6.0215,-5.9413,-6.0618,-6.0497,-6.0048,-6.1545,-6.164,-6.1303,-6.1888,-6.2048,-6.218,-6.2742,-6.3505,-6.4345,-6.5202,-6.6029,-6.6711,-6.7193,-6.7476,-6.7779,-6.8288,-6.8387,-6.8762,-6.9941,-6.9903,-6.9865,-7.0407,-7.0953,-7.1363,-7.1449,-7.2444,-7.3165,-7.3324,-7.4478,-7.5395,-7.5689,-7.5946,-7.6313,-7.6864,-7.7157,-7.7451,-7.7745,-7.7488,-7.7304,-7.7304,-7.6026,-7.5059,-7.4405,-7.2971,-7.2084,-7.177,-7.125,-7.1075,-7.1345,-7.1819,-7.2157,-7.2462,-7.3443,-7.4153,-7.4661,-7.5134,-7.5473,-7.5709,-7.5709,-7.5709,-7.5709,-7.5709,-7.5709,-7.5709,0.0,-2.9701,-2.9701,-2.9701,-2.9701,0.0,0.0,0.0,0.0,0.0,0.0,0.0,0.0,0.0,0.0,0.0,0.0,-3.9308,-4.0241,-4.2101,-4.3813,-4.5324,-4.7801,-4.9388,-5.0008,-5.1982,-5.3042,-5.3081,-5.3639,-5.377,-5.3567,-5.4192,-5.4452,-5.4504,-5.5113,-5.567,-5.6253,-5.7107,-5.8467,-6.006,-5.971,-6.0332,-6.1342,-6.0642,-6.006,0.0,-5.9943,-5.9516,-5.9024,-6.0526,-6.0477,-6.0021,-6.1516,-6.1794,-6.1759,-6.2648,-6.3116,-6.3613,-6.4783,-6.5484,-6.6137,-6.7335,-6.8047,-6.8499,-6.8607,-6.8896,-6.9154,-6.9259,-6.9092,-6.9314,-7.0425,-7.0157,-7.0049,-7.0891,-7.1863,-7.2444,-7.2357,-7.3727,-7.4589,-7.4169,-7.5285,-7.6093,-7.6093,-7.635,-7.6754,-7.7268,-7.7304,-7.7304,-7.7304,-7.7304,-7.7194,-7.69,-7.6104,-7.5525,-7.5103,-7.3653,-7.2469,-7.1591,-7.1634,-7.1684,-7.1718,-7.2462,-7.2935,-7.324,-7.4187,-7.4762,-7.5033,-7.5506,-7.5709,-7.5709,-7.5709,-7.5709,-7.5743,-7.6014,-7.6115,-7.6082,0.0,0.0,-2.9701,0.0,0.0,0.0,0.0,0.0,0.0,0.0,0.0,0.0,0.0,0.0,0.0,0.0,0.0,0.0,-4.0135,-4.0395,-4.166,-4.4369,-4.535,-4.659,-4.827,-4.9187,-5.0428,-5.1978,-5.2017,-5.2471,-5.3327,-5.3404,-5.343,-5.3417,-5.3572,-5.3611,-5.3689,-5.4621,-5.6874,-5.9632,-5.7263,-5.8234,-6.0798,-5.7573,-5.633,-5.6408,-5.7301,-5.804,-5.883,-5.9799,-5.9708,-5.9285,-6.0193,-6.1118,-6.1978,-6.2834,-6.3691,-6.4684,-6.6332,-6.6771,-6.7179,-6.8943,-6.9382,-6.9273,-6.8933,-6.944,-6.9894,-6.9519,-7.0085,-7.0593,-7.0746,-7.0685,-7.0891,-7.1701,-7.3093,-7.4068,-7.383,-7.5304,-7.6042,-7.5,-7.5652,-7.6166,-7.6166,-7.6864,-7.7304,-7.7304,0.0,-7.7304,-7.7304,-7.7304,-7.6974,-7.6203,-7.5434,-7.5406,-7.5958,-7.3432,-7.1843,-7.1379,-7.209,-7.2428,-7.2462,-7.3206,-7.395,-7.4627,-7.4661,-7.5067,-7.5709,-7.5743,-7.5743,-7.5777,-7.5811,-7.5811,-7.5912,-7.6657,-7.6961,-7.686,0.0,0.0,0.0,0.0,0.0,0.0,0.0,0.0,0.0,0.0,0.0,0.0,0.0,0.0,0.0,0.0,0.0,0.0,-3.754,-3.9018,-4.0432,-4.1745,-4.3877,-4.5195,-4.566,-4.7094,-4.7753,-4.7521,-4.8244,-4.8386,-4.801,-4.9276,-4.9909,-4.9959,-5.1863,-5.2717,-5.2834,-5.4349,-5.5514,-5.6291,-5.6291,-5.6835,-5.7573,-5.734,-5.6874,-5.6408,-5.7301,-5.7301,-5.7172,-5.8763,-6.0057,-6.128,-6.273,-6.3793,-6.4669,-6.5558,-6.5956,-6.6385,-6.7446,-6.7703,-6.8076,-6.9821,-7.0279,-7.0353,-7.0712,-7.0368,-7.0114,-7.0516,-6.9679,-6.9491,-7.1372,-7.1159,-7.1044,-7.2154,-7.2772,-7.2943,-7.251,-7.4142,-7.5195,-7.4918,-7.6166,-7.7011,-7.7011,-7.7194,-7.7304,-7.7304,-7.7304,-7.7304,-7.7304,-7.7304,-7.7231,-7.7011,-7.6789,-7.6763,-7.68,-7.4689,-7.3101,-7.2124,-7.2326,-7.2699,-7.324,-7.3984,-7.4424,-7.4661,-7.5202,-7.554,-7.5743,-7.6352,-7.6589,-7.6657,-7.7198,-7.7401,-7.7435,-7.7638,-7.7705,-7.7671,0.0,0.0,0.0,0.0,0.0,0.0,0.0,0.0,0.0,0.0,0.0,0.0,0.0,0.0,0.0,0.0,0.0,0.0,0.0,-3.7918,-3.9034,-4.0276,-4.2061,-4.338,-4.4156,-4.5475,-4.6096,-4.5941,-4.6845,-4.7051,-4.6585,-4.7967,-4.861,-4.871,-5.0126,-5.0748,-5.0848,-5.1797,-5.3067,0.0,0.0,-5.3805,-5.5048,-5.4038,-5.3572,-5.3611,-5.4465,-5.548,-5.6619,-5.8403,-6.0193,-6.1837,-6.2765,-6.3928,-6.5028,-6.5535,-6.6479,-6.7539,-6.8398,-6.889,-6.9458,-7.0823,-7.1087,-7.1122,-7.1397,-7.0951,-7.0706,-7.1364,-7.0733,-7.0574,-7.2381,-7.2057,-7.1837,-7.2886,-7.317,-7.3222,-7.309,-7.4663,-7.569,-7.5432,-7.624,-7.6937,-7.7304,-7.7011,-7.6937,-7.7304,-7.7304,-7.7304,-7.7304,-7.7304,-7.7304,-7.7304,-7.7279,-7.6765,-7.579,-7.4886,-7.3808,-7.2394,-7.3071,-7.3578,-7.4018,-7.4762,-7.5303,-7.5642,0.0,-7.642,-7.6724,-7.7198,-7.7367,-7.7401,-7.7841,-7.7976,-7.801,-7.8348,-7.8483,-7.8517,0.0,0.0,0.0,0.0,0.0,0.0,0.0,0.0,0.0,0.0,0.0,-3.0662,-3.132,-3.147,0.0,0.0,0.0,0.0,0.0,0.0,-3.7761,-3.9276,-4.0247,-4.149,-4.3122,-4.4015,-4.4831,-4.5686,-4.6424,-4.6812,-4.6812,-4.7678,-4.8126,-4.8175,-4.836,-4.8487,-4.8525,-4.8593,-5.032,-5.2768,-4.9804,-5.0386,-5.2678,0.0,-4.9066,-4.9843,-5.0697,-5.3182,-5.6337,-5.8055,-5.9883,-6.1481,-6.1726,-6.2889,-6.4216,-6.4333,-6.6135,-6.8294,-6.9092,-6.9951,-7.0801,-7.1642,-7.1728,-7.1534,-7.1292,-7.1028,-7.1038,-7.1775,-7.1772,-7.1975,-7.2976,-7.2767,-7.2657,-7.3345,-7.3699,-7.3934,-7.4227,-7.5642,-7.6383,-7.5859,-7.5983,-7.6387,-7.7084,-7.6533,-7.6423,-7.7268,-7.7304,-7.7304,-7.7304,-7.7304,-7.7304,-7.7243,-7.7092,-7.6172,-7.4216,-7.4686,-7.4163,-7.2699,-7.3984,-7.4728,-7.4931,-7.5574,-7.6284,-7.7063,-7.7063,-7.7401,-7.801,-7.8111,-7.8145,-7.8145,-7.8247,-7.828,-7.8348,-7.9025,-7.9261,-7.9363,0.0,0.0,0.0,0.0,0.0,0.0,0.0,0.0,0.0,0.0,-3.2861,-3.2254,0.0,0.0,0.0,0.0,0.0,0.0,0.0,0.0,0.0,-3.7528,-3.9043,-4.0364,-4.1335,-4.2189,-4.3083,-4.3938,-4.4093,-4.4171,-4.4171,-4.5035,-4.5481,-4.5529,-4.696,-4.7601,-4.7673,-4.8331,-4.8971,-4.9518,-4.8854,-4.8949,-4.9415,-4.8832,-4.8677,0.0,-4.9804,-5.1935,-5.4584,-5.6263,-5.8515,-6.0856,-6.2284,-6.3461,-6.4403,-6.5094,-6.6622,-6.8273,-6.9153,-7.0004,-7.0848,-7.1549,-7.1654,-7.1379,-7.0593,-6.9711,-6.927,-7.0142,-6.9629,-6.9552,-7.1052,-7.1824,-7.2133,-7.2046,-7.2623,-7.3025,-7.2872,-7.4249,-7.4963,-7.4184,-7.5285,-7.6166,-7.6276,-7.6166,-7.6423,-7.7268,-7.7304,-7.7304,-7.7304,-7.7304,-7.7279,-7.7155,-7.6838,-7.6117,-7.5027,-7.4932,-7.4683,-7.4221,-7.4492,-7.527,-7.6521,-7.6623,-7.7096,-7.7807,-7.7807,0.0,-7.8044,-7.8653,-7.8923,-7.8991,-7.9566,-7.9803,-7.9837,-7.9972,-8.0006,-8.004,0.0,0.0,0.0,0.0,0.0,0.0,0.0,-3.4137,-3.5082,-3.7574,-3.7343,-3.631,-3.4639,-3.3805,-3.3723,0.0,0.0,0.0,0.0,0.0,0.0,-3.7061,-3.8343,-3.9431,-4.0247,-4.1529,-4.2189,-4.2151,0.0,-4.351,-4.351,-4.4394,-4.5045,-4.549,-4.6319,-4.6697,-4.6792,-4.7097,-4.7271,-4.7358,-4.7261,-4.724,-4.724,-4.724,-4.7512,0.0,-4.891,-5.0961,-5.3491,-5.5169,-5.75,-6.0119,-6.2296,-6.3584,-6.4403,-6.5301,-6.6751,-6.8279,-6.9165,-6.9951,-7.063,-7.0937,-7.1218,-7.1048,-6.9731,-6.9314,-6.9282,-6.9692,-6.9425,-6.9436,-7.0667,-7.1351,-7.1578,-7.1249,-7.1914,-7.2361,-7.2024,-7.3692,-7.4771,-7.4368,-7.5028,-7.5799,-7.6644,-7.5983,-7.5983,-7.7231,-7.7304,-7.7304,-7.7304,-7.7217,-7.7155,-7.6966,-7.6708,-7.6295,-7.5773,-7.5583,-7.5373,-7.5299,-7.5688,-7.6183,-7.6927,-7.7299,-7.7874,-7.8585,-7.8585,0.0,-7.916,-7.9532,-7.9667,-7.9701,-8.0073,-8.0209,-8.0209,-8.0209,-8.0209,-8.0209,0.0,0.0,0.0,0.0,0.0,0.0,0.0,-3.6881,-3.792,-4.1243,-4.1556,-4.0382,-3.7461,-3.5854,-3.5054,0.0,0.0,0.0,0.0,0.0,0.0,0.0,0.0,0.0,-3.9392,0.0,0.0,-4.1179,-4.2733,0.0,0.0,0.0,0.0,0.0,-4.5687,-4.5793,-4.5903,-4.5969,-4.6027,0.0,0.0,-4.5997,-4.5997,0.0,0.0,0.0,0.0,-5.008,-5.2358,-5.4434,-5.6523,-5.8792,-6.1798,-6.3394,-6.432,-6.4877,-6.6483,-6.8234,-6.8886,-6.9596,-7.0135,-7.0032,-7.0464,-7.0451,-6.8751,-6.8743,-6.909,-6.8936,-6.8744,-6.8859,-6.9667,-7.0141,-7.0366,-7.0192,-7.1081,-7.169,-7.1489,-7.3435,-7.4771,-7.4441,-7.4698,-7.5432,-7.668,-7.5652,-7.5579,-7.7194,-7.7304,0.0,-7.7304,-7.7155,-7.7102,-7.7057,-7.6898,-7.6863,-7.6759,-7.6446,-7.6322,-7.6464,-7.676,-7.7063,-7.7401,-7.7976,-7.8653,-7.9363,-7.9363,0.0,0.0,-8.0209,-8.0209,-8.0209,-8.0209,-8.0209,-8.0209,-8.0209,-8.0209,-8.0209,0.0,0.0,0.0,0.0,0.0,0.0,0.0,-3.8441,-4.0575,-4.3735,-4.3744,-4.2654,-4.0674,-3.9191,-3.7509,0.0,0.0,0.0,0.0,0.0,0.0,0.0,0.0,0.0,0.0,0.0,0.0,-4.2073,-4.3044,0.0,0.0,0.0,0.0,0.0,0.0,-4.497,-4.5046,-4.5735,0.0,0.0,0.0,0.0,0.0,0.0,0.0,0.0,0.0,-4.9379,-5.0757,-5.406,-5.5384,-5.6372,-6.051,-6.2969,-6.414,-6.3438,-6.5546,-6.8066,-6.7969,-6.8611,-6.9227,-6.884,-6.9396,-6.9524,-6.7653,-6.7308,-6.7128,-6.6397,-6.5628,-6.532,-6.6205,-6.6987,-6.7697,-6.8338,-6.9687,-7.0825,-7.1451,-7.3435,-7.4368,-7.2899,-7.4037,-7.4955,-7.5139,-7.4992,-7.5579,-7.7194,-7.7304,0.0,-7.7304,-7.7155,-7.7358,-7.7895,-7.7734,-7.7948,-7.8365,-7.754,-7.7403,-7.8017,-7.7237,-7.7604,-7.8923,-7.8991,-7.9397,-8.0107,-8.0107,0.0,0.0,-8.0209,-8.0209,-8.0209,-8.0209,-8.0209,-8.0209,-8.0209,-8.0209,-8.0209,0.0,0.0,0.0,0.0,0.0,0.0,-3.8003,-3.8426,-3.9981,-4.4839,-4.4865,-4.418,-4.3497,-4.2009,-3.9488,-3.5488,0.0,0.0,0.0,0.0,0.0,0.0,0.0,0.0,0.0,0.0,-3.9548,-3.9897,-4.1257,0.0,0.0,0.0,0.0,0.0,0.0,-4.5122,-4.5632,-4.5872,0.0,0.0,0.0,0.0,0.0,0.0,0.0,0.0,0.0,0.0,-4.9723,-5.2656,-5.4369,-5.5591,-5.7309,-6.0119,-6.2969,-6.4219,-6.5088,-6.5979,-6.7452,-6.7995,-6.8213,-6.8566,-6.8838,-6.8525,-6.6769,-6.6359,-6.5974,-6.4628,-6.4051,-6.3847,-6.3997,-6.5717,-6.6969,-6.6597,-6.9234,-7.1238,-7.093,-7.3275,-7.4595,-7.334,-7.4221,-7.5102,-7.5579,-7.5175,-7.5579,-7.7194,-7.7304,0.0,-7.7304,-7.7594,-7.7907,-7.8005,-7.8316,-7.8807,-7.9396,-7.8381,-7.8217,-7.899,-7.8476,-7.8551,-7.9126,-7.9566,-7.9938,-8.0209,-8.0209,0.0,0.0,-8.0209,-8.0209,-8.0209,-8.0209,-8.0209,-8.0209,-8.0209,-8.0209,-8.0209,0.0,0.0,0.0,0.0,0.0,-3.384,-3.8939,-3.8968,-4.0208,-4.5079,-4.5304,-4.4957,-4.476,-4.2781,-4.0099,-3.6537,-3.576,0.0,0.0,0.0,0.0,0.0,0.0,0.0,0.0,0.0,-3.8538,-3.8771,-4.0441,-4.1451,0.0,0.0,-4.2733,-4.3666,0.0,0.0,0.0,0.0,0.0,0.0,0.0,0.0,0.0,0.0,0.0,0.0,0.0,0.0,0.0,0.0,0.0,-5.5005,-5.5513,-5.7777,-6.07,-6.326,-6.4193,-6.4743,-6.6504,-6.6988,-6.7132,-6.7724,-6.7779,-6.7282,-6.582,-6.532,-6.468,-6.3105,-6.258,-6.2387,-6.2298,-6.4135,-6.5581,-6.5421,-6.8542,-7.0804,-7.0554,-7.3148,-7.4706,-7.378,-7.4845,-7.5763,-7.6056,-7.5799,-7.6093,-7.7231,0.0,0.0,-7.7304,-7.8207,-7.8601,-7.837,-7.9038,-7.9849,-8.0585,-7.9558,-7.9492,-8.0139,-7.9702,-7.9491,-7.9464,-7.9972,-8.0209,-8.0209,-8.0209,0.0,0.0,-8.0209,-8.0209,-8.0209,-8.0209,-8.0209,-8.0209,-8.0209,-8.0209,-8.0209,0.0,0.0,0.0,0.0,0.0,0.0,-3.8939,-4.0637,-4.2227,-4.4586,-4.5163,-4.493,-4.3923,-4.0959,-3.9011,-3.8973,-3.6825,0.0,0.0,0.0,0.0,0.0,0.0,0.0,0.0,0.0,-3.881,-3.9703,-4.1374,-4.1762,-4.0946,-4.1801,-4.1762,-4.1024,0.0,0.0,0.0,0.0,0.0,0.0,0.0,0.0,0.0,0.0,0.0,0.0,0.0,0.0,0.0,0.0,0.0,0.0,0.0,-5.6606,-5.7143,-5.9568,-6.2659,-6.5216,-6.4906,-6.545,-6.6084,-6.5972,-6.5936,-6.5705,-6.482,-6.3935,-6.2977,-6.1792,-6.0867,-6.0475,-6.0931,-6.17,-6.2965,-6.5038,-6.7217,-6.9097,-7.0302,-7.3035,-7.4588,-7.378,-7.5836,-7.6974,-7.6166,-7.6827,-7.7304,0.0,0.0,0.0,-7.7304,-7.8883,-7.9636,-7.9208,-7.9974,-8.0972,-8.2251,-8.1322,-8.1165,-8.1717,-8.0927,-8.0344,-8.0175,-8.0209,-8.0209,-8.0209,0.0,0.0,0.0,-8.0209,-8.0209,-8.0209,-8.0209,-8.0209,-8.0209,-8.0209,-8.0209,-8.0209,0.0,0.0,0.0,0.0,0.0,0.0,0.0,-3.7224,-3.8233,-4.1376,-4.1322,-4.1552,-4.2962,-4.0673,-3.9011,-3.9011,-3.6826,0.0,0.0,0.0,0.0,0.0,0.0,0.0,0.0,-3.8538,-3.9703,-4.0519,-4.1646,-4.2345,-4.2694,-4.2966,-4.3277,-4.3588,-4.4132,-4.4676,0.0,0.0,0.0,0.0,0.0,0.0,0.0,0.0,0.0,0.0,0.0,0.0,0.0,0.0,0.0,0.0,0.0,0.0,0.0,-5.7793,-5.9813,-6.1822,-6.2817,-6.3222,-6.3361,-6.3306,-6.2858,-6.2512,-6.282,-6.2204,-6.1401,-6.0808,-6.0485,-6.0379,-6.0597,-6.244,-6.4331,-6.5671,-6.8473,-7.0832,-7.1965,-7.3369,-7.4081,-7.3707,-7.4882,-7.5579,-7.5322,-7.6533,-7.7304,0.0,0.0,0.0,-7.8148,-7.905,-7.9507,-7.9245,-8.0521,-8.1554,-8.2287,-8.1896,-8.1733,-8.1752,-8.1448,-8.0857,-8.0209,-8.0209,-8.0209,0.0,0.0,0.0,0.0,-8.0209,-8.0209,-8.0209,-8.0209,-8.0209,-8.0209,-8.0209,-8.0209,-8.0209,0.0,0.0,0.0,0.0,0.0,0.0,0.0,-3.5661,-3.6153,-3.8955,-3.8591,-3.9049,-4.1571,-3.9279,-3.7941,-3.8935,-3.6795,0.0,0.0,0.0,0.0,0.0,0.0,0.0,-3.7591,-3.9285,-4.0722,-4.1868,-4.3404,-4.4248,-4.4443,-4.5103,-4.522,-4.4792,-4.5103,-4.5375,0.0,0.0,0.0,0.0,0.0,0.0,-4.6186,0.0,0.0,0.0,0.0,0.0,0.0,0.0,0.0,0.0,0.0,0.0,0.0,0.0,-5.7744,-5.9288,-6.1215,-6.1918,-6.2243,-6.2897,-6.1897,-6.1089,-6.2281,-6.1555,-6.0597,-6.0561,-6.0684,-6.0918,-6.1164,-6.3156,-6.5107,-6.6323,-6.8788,-7.0971,-7.2189,-7.3202,-7.4044,-7.4515,-7.5065,-7.5469,-7.5799,-7.6717,0.0,0.0,0.0,0.0,-7.8552,-7.9196,-7.9552,-7.9682,-8.1146,-8.2245,-8.2722,-8.2922,-8.2771,-8.2296,-8.2161,-8.1413,-8.0209,-8.0209,-8.0209,0.0,0.0,0.0,0.0,-8.0209,-8.0209,-8.0209,-8.0209,-8.0209,-8.0209,-8.0209,-8.0209,-8.0209,0.0,0.0,0.0,0.0,0.0,0.0,0.0,-3.5543,-3.5725,-3.7254,-3.6833,-3.733,-3.9699,-3.7101,-3.6146,-3.8532,0.0,0.0,0.0,0.0,0.0,0.0,0.0,0.0,-3.8641,-4.0313,-4.2014,-4.3692,-4.6173,-4.7007,-4.6307,-4.8017,-4.7473,-4.5181,-4.588,-4.5686,-4.487,0.0,0.0,0.0,-4.5209,-4.5406,0.0,0.0,0.0,0.0,0.0,0.0,0.0,0.0,0.0,0.0,0.0,0.0,0.0,0.0,0.0,0.0,0.0,-6.1204,-6.2204,-6.382,-6.2474,-6.1127,-6.2796,-6.1709,0.0,-6.1055,-6.1467,-6.1949,-6.2501,-6.3899,-6.5487,-6.7012,-6.849,-7.0011,-7.1471,-7.2867,-7.4258,-7.5836,-7.6019,-7.635,-7.7231,-7.7304,0.0,0.0,0.0,0.0,-7.8626,-7.9169,-7.9808,-8.0448,-8.1881,-8.2939,-8.3483,-8.4279,-8.4119,-8.2998,-8.2998,-8.2037,-8.0209,-8.0209,-8.0209,0.0,0.0,0.0,0.0,-8.0209,-8.0209,-8.0209,-8.0209,-8.0209,-8.0209,-8.0209,-8.0209,-8.0209,0.0,0.0,0.0,0.0,0.0,0.0,0.0,0.0,0.0,0.0,-3.5229,-3.5725,-3.6337,-3.5687,-3.549,0.0,0.0,0.0,0.0,0.0,0.0,0.0,0.0,0.0,-4.1276,-4.3015,-4.4375,-4.5395,-4.7367,-4.8522,-4.8988,-5.0076,-4.992,-4.8677,-4.8211,-4.7123,-4.5725,-4.5725,0.0,0.0,-4.5933,-4.6048,0.0,0.0,0.0,0.0,-4.6303,-4.6846,0.0,0.0,0.0,0.0,0.0,0.0,0.0,0.0,-5.5864,-5.7307,-5.8572,0.0,-5.9435,-6.0435,-6.0242,-6.0195,0.0,-6.1545,-6.1454,-6.2259,-6.2558,-6.296,-6.4063,-6.5608,-6.7195,-6.8679,-7.0206,-7.1672,-7.3128,-7.3566,-7.4074,-7.5065,-7.5175,-7.5763,-7.7194,-7.7304,0.0,0.0,0.0,-7.7965,-7.9433,-7.9332,-7.9865,-8.125,-8.2647,-8.3375,-8.3483,-8.4279,-8.4119,-8.2998,-8.2998,-8.2037,-8.0209,-8.0209,-8.0209,0.0,0.0,0.0,-8.0209,-8.0209,-8.0209,-8.0209,-8.0209,-8.0209,-8.0209,-8.0209,-8.0209,-8.0209,0.0,0.0,0.0,0.0,0.0,0.0,0.0,0.0,0.0,0.0,0.0,-3.4808,0.0,0.0,0.0,0.0,0.0,0.0,0.0,0.0,0.0,0.0,0.0,-4.1033,-4.2762,-4.4453,-4.5968,-4.7232,-4.896,-5.0231,-5.1047,-5.1513,-5.1319,-5.0425,-4.8755,-4.7473,-4.654,-4.5774,-4.5754,-4.6186,-4.577,0.0,0.0,0.0,0.0,0.0,-4.63,-4.6561,0.0,-4.8288,-4.9157,-4.9986,0.0,0.0,0.0,0.0,-5.478,-5.6588,-5.7473,-5.8242,-5.9104,-6.0175,-6.0125,-6.0162,-6.1492,-6.1988,-6.2397,-6.3272,-6.393,-6.4799,-6.6249,-6.7492,-6.8803,-7.0243,-7.1135,-7.2116,-7.3566,-7.4059,-7.4404,-7.4845,-7.5249,-7.5799,0.0,0.0,0.0,0.0,0.0,-7.8038,-7.969,-7.9442,-8.012,-8.2089,-8.3048,-8.3483,-8.3483,-8.4642,-8.4715,-8.3606,-8.3174,-8.2222,-8.0804,-8.0376,-8.0209,0.0,0.0,0.0,-8.0209,-8.0209,-8.0209,-8.0209,-8.0209,-8.0209,-8.0209,-8.0209,-8.0209,-8.0209,0.0,0.0,0.0,0.0,0.0,0.0,0.0,0.0,0.0,0.0,0.0,0.0,0.0,0.0,0.0,0.0,0.0,0.0,0.0,0.0,0.0,0.0,-4.0402,-4.2169,-4.4033,-4.5745,-4.7416,-4.909,-5.0875,-5.2212,-5.2989,-5.3145,-5.2562,-5.128,-4.8794,-4.7561,-4.7232,-4.564,-4.544,-4.6153,-4.539,0.0,0.0,0.0,0.0,0.0,0.0,0.0,0.0,-4.7899,-4.8771,-4.9382,-5.0372,0.0,0.0,0.0,0.0,0.0,-5.7043,-5.8673,-6.0367,-6.142,-6.1077,-6.0883,-6.2197,-6.3013,-6.3678,-6.4462,-6.565,-6.7131,-6.8568,-6.9285,-7.0147,-7.1468,-7.1784,-7.2242,-7.3487,-7.4294,-7.4808,-7.5065,-7.5579,0.0,0.0,0.0,0.0,0.0,0.0,-7.8185,-7.969,-7.9552,-8.0448,-8.2746,-8.3266,-8.3555,-8.3664,-8.5149,-8.5417,-8.4396,-8.3434,-8.2496,-8.1603,-8.0641,-8.0209,-8.0209,0.0,0.0,-8.0209,-8.0209,-8.0209,-8.0209,-8.0209,-8.0209,-8.0209,-8.0209,-8.0209,-8.0209,0.0,0.0,0.0,0.0,0.0,0.0,0.0,0.0,0.0,0.0,0.0,0.0,0.0,0.0,0.0,0.0,0.0,0.0,0.0,0.0,0.0,-4.0441,-4.2189,-4.4248,-4.6668,-4.8416,-4.9815,-5.0825,-5.3222,-5.4854,-5.5709,-5.6447,-5.5165,-5.2135,-5.0309,-4.873,-4.7323,-4.6325,-4.6011,-4.6171,-4.6054,0.0,0.0,0.0,0.0,0.0,0.0,0.0,0.0,-4.6977,-4.7337,-4.7666,-4.9139,0.0,0.0,0.0,0.0,0.0,-5.8336,-6.0838,-6.2994,-6.2671,-6.2223,-6.2239,-6.3615,-6.5001,-6.6186,-6.6723,-6.8071,-6.9385,-7.0212,-7.042,-7.0724,-7.1416,-7.2537,-7.3413,-7.367,-7.3817,-7.4404,-7.5763,0.0,0.0,0.0,0.0,0.0,0.0,0.0,-7.8809,-7.9727,-8.0064,-8.1032,-8.2746,-8.3266,-8.3809,-8.4497,-8.5438,-8.5417,-8.4396,-8.3434,-8.2496,-8.1603,-8.0641,-8.0209,-8.0209,0.0,-8.0209,-8.0209,-8.0209,-8.0209,-8.0209,-8.0209,-8.0209,-8.0209,-8.0209,-8.0209,-8.0107,0.0,0.0,0.0,0.0,0.0,0.0,0.0,0.0,0.0,0.0,0.0,0.0,0.0,0.0,0.0,0.0,0.0,0.0,0.0,0.0,0.0,-4.149,-4.3704,-4.5841,-4.7978,-4.926,-5.0775,-5.2562,-5.4194,-5.5709,-5.6991,-5.6913,-5.5281,-5.2329,-5.1152,-4.9681,-4.8047,-4.7221,-4.6592,-4.6211,0.0,0.0,0.0,0.0,0.0,0.0,0.0,0.0,0.0,0.0,-4.789,-4.9041,-4.9316,0.0,0.0,0.0,0.0,0.0,-5.7768,-5.9956,-6.21,-6.2591,-6.354,-6.4544,-6.5426,-6.6519,-6.7587,-6.8334,-6.9447,-7.0472,-7.1198,-7.1294,-7.1542,-7.2556,-7.3986,-7.4845,-7.4404,-7.5102,-7.5763,0.0,0.0,0.0,0.0,0.0,0.0,0.0,0.0,0.0,-7.9599,-8.0107,-8.1292,-8.3262,-8.3411,-8.4098,-8.533,-8.5728,-8.5721,-8.5147,-8.3727,-8.2731,-8.2313,-8.0902,-8.0209,-8.0209,0.0,-8.0209,-8.0209,-8.0209,-8.0209,-8.0209,-8.0209,-8.0209,-8.0209,-8.0209,-8.0006,-7.9699,0.0,0.0,0.0,0.0,0.0,0.0,0.0,0.0,0.0,0.0,0.0,0.0,0.0,0.0,0.0,0.0,0.0,0.0,0.0,0.0,-3.9353,-4.1529,-4.4248,-4.6812,-4.9143,-5.0231,-5.2057,-5.4621,-5.5476,-5.6563,-5.7845,-5.6991,-5.5216,-5.2686,-5.1871,-5.0594,-4.8956,-4.7924,-4.7109,-4.6521,0.0,0.0,0.0,0.0,0.0,0.0,0.0,0.0,0.0,0.0,0.0,0.0,0.0,0.0,0.0,-5.3593,-5.521,-5.712,-5.7813,-5.9737,-6.1876,-6.3131,-6.4457,-6.5737,-6.6568,-6.7627,-6.8675,-6.9591,-7.0554,-7.1368,-7.1722,-7.1874,-7.23,-7.3508,-7.5065,-7.5873,-7.5285,-7.624,-7.679,-7.6166,0.0,0.0,0.0,0.0,0.0,0.0,0.0,0.0,-7.9471,-8.0223,-8.1587,-8.3628,-8.3556,-8.4243,-8.5873,-8.5909,-8.5909,-8.5909,-8.4184,-8.3174,-8.2909,-8.1256,-8.0376,-8.0209,-8.0209,-8.0209,-8.0209,-8.0209,-8.0209,-8.0209,-8.0209,-8.0209,-8.0209,-8.0209,-7.9904,-7.9388,0.0,0.0,0.0,0.0,0.0,0.0,0.0,0.0,0.0,0.0,0.0,0.0,0.0,0.0,0.0,0.0,0.0,0.0,0.0,0.0,-3.8848,-3.9858,-4.3083,-4.6812,-5.093,-5.2601,-5.4699,-5.7301,-5.8117,-5.8583,-5.87,-5.7884,-5.6158,-5.368,-5.2792,-5.1508,-4.9882,-4.8203,-4.7496,-4.7435,-4.6612,0.0,0.0,0.0,0.0,0.0,0.0,0.0,0.0,0.0,0.0,0.0,0.0,0.0,-5.1276,-5.5071,-5.7244,-5.8646,-5.9889,-6.2438,-6.4887,-6.545,-6.4661,-6.4336,-6.6347,-6.8171,-6.9591,-7.0302,-7.1689,-7.2576,-7.1674,-7.2022,-7.2679,-7.356,-7.5065,-7.6093,-7.6019,0.0,-7.6166,0.0,0.0,0.0,0.0,0.0,0.0,0.0,0.0,0.0,-7.9507,-8.0636,-8.2029,-8.3665,-8.3556,-8.4243,-8.5873,-8.5909,-8.5909,-8.5909,-8.4792,-8.3861,-8.2998,-8.1944,-8.0966,-8.0209,-8.0209,-8.0209,-8.0209,-8.0209,-8.0209,-8.0209,-8.0209,-8.0209,-8.0209,-8.0209,-7.9904,-7.9388,0.0,0.0,0.0,0.0,0.0,0.0,0.0,0.0,0.0,0.0,0.0,0.0,0.0,0.0,0.0,0.0,0.0,0.0,0.0,-3.8227,-3.982,-4.1179,-4.452,-4.7628,-5.0309,-5.2562,-5.5242,-5.835,-5.9205,-5.9322,-5.8778,-5.797,-5.6222,-5.3805,-5.3509,-5.214,-5.0039,-4.8822,-4.803,-4.751,-4.6651,-4.63,0.0,0.0,0.0,0.0,0.0,0.0,0.0,0.0,-4.774,-4.9009,-5.0279,-5.1941,-5.3748,-5.5617,-5.7138,-5.861,-6.0441,-6.2433,-6.4345,-6.5493,-6.579,-6.6494,-6.911,-6.9885,-7.0381,-7.1763,-7.2484,-7.2705,-7.2318,-7.3639,-7.4661,-7.4478,-7.5799,-7.668,-7.6166,-7.6533,0.0,0.0,0.0,0.0,0.0,0.0,0.0,0.0,0.0,0.0,-8.0071,-8.0895,-8.2031,-8.3556,-8.3556,-8.4243,-8.5873,-8.5909,-8.5909,-8.5909,-8.4872,-8.3897,-8.2998,-8.2037,-8.1448,-8.1097,-8.0476,-8.0542,-8.1,-8.0476,-8.0209,-8.0209,-8.0209,-8.0209,-8.0209,-8.0209,-7.9904,-7.9388,0.0,0.0,0.0,0.0,0.0,0.0,0.0,0.0,0.0,0.0,0.0,0.0,0.0,0.0,0.0,0.0,0.0,0.0,-3.6984,-3.8732,-4.0325,-4.1723,-4.5064,-4.7822,-4.9843,-5.2407,-5.5242,-5.8428,-5.9283,-5.927,-5.8414,-5.7595,-5.6137,-5.4234,-5.4017,-5.2773,-5.0816,-4.9394,-4.8486,-4.7861,-4.6768,-4.6253,0.0,0.0,0.0,0.0,0.0,0.0,0.0,0.0,-4.8279,-4.976,-5.1216,-5.2724,-5.4351,-5.6387,-5.7561,-5.8684,-6.1187,-6.2835,-6.4187,-6.6063,-6.7,-6.8097,-7.0568,-7.0698,-7.0826,-7.254,-7.2539,-7.2463,-7.3235,-7.4463,-7.5322,-7.5285,-7.6423,-7.7121,0.0,0.0,0.0,0.0,0.0,0.0,0.0,0.0,0.0,0.0,0.0,0.0,0.0,-8.0939,-8.196,-8.3446,-8.3483,-8.4243,-8.5873,-8.5909,-8.5909,-8.5909,-8.5225,-8.4267,-8.2998,-8.2313,-8.1851,-8.1509,-8.0641,-8.074,-8.1509,-8.0902,-8.0641,-8.0641,-8.0276,-8.0209,-8.0209,-8.0209,-7.9904,-7.9388,0.0,0.0,0.0,0.0,0.0,0.0,0.0,0.0,-3.0185,-3.0185,-3.0241,0.0,0.0,0.0,0.0,0.0,0.0,0.0,-3.7061,-3.8732,-4.0053,-4.0869,-4.4171,-4.7201,-4.9765,-5.2329,-5.4983,-5.7625,-5.8389,-5.8375,-5.7555,-5.6697,-5.5884,-5.5156,-5.4258,-5.3434,-5.2507,-4.9891,-4.8798,-4.8642,-4.6963,-4.6197,-4.6052,0.0,0.0,0.0,0.0,0.0,0.0,0.0,-4.7586,-4.7761,-5.2408,-5.2574,-5.2084,-5.7561,-5.8905,-5.9233,-6.253,-6.4012,-6.5149,-6.7516,-6.8208,-6.8652,-6.9979,-7.0401,-7.088,-7.2222,-7.1872,-7.2055,-7.4478,-7.4258,-7.4221,-7.5836,-7.679,-7.7304,0.0,0.0,0.0,0.0,0.0,0.0,0.0,0.0,0.0,0.0,0.0,0.0,0.0,-8.0765,-8.1853,-8.3446,-8.3483,-8.4243,-8.5873,-8.5909,-8.5909,-8.5909,-8.5909,-8.4908,-8.2998,-8.2998,-8.2496,-8.1603,-8.0641,-8.074,-8.1603,-8.1603,-8.1603,-8.1509,-8.0542,-8.0209,-8.0209,-8.0209,-7.9904,-7.9388,0.0,0.0,0.0,0.0,0.0,0.0,0.0,0.0,-3.0213,-3.0254,-3.0352,0.0,0.0,0.0,0.0,0.0,0.0,0.0,-3.7916,-3.9082,-4.0053,-4.0869,-4.3614,-4.5248,-4.5375,-4.9109,-5.3497,-5.852,-5.813,-5.7555,-5.6731,-5.5915,-5.4761,-5.3359,-5.3158,-5.2596,-5.1648,-4.9657,-4.8798,-4.8638,-4.6889,-4.5768,-4.5156,0.0,0.0,0.0,0.0,0.0,0.0,0.0,0.0,0.0,-5.2318,-5.3297,-5.4231,-5.7446,-5.8908,-6.0104,-6.2814,-6.4864,-6.6531,-6.7875,-6.855,-6.9147,-7.0072,-7.0843,-7.1746,-7.3182,-7.3329,-7.3492,-7.4661,-7.5175,-7.5542,-7.6019,-7.679,0.0,0.0,0.0,0.0,0.0,0.0,0.0,0.0,0.0,0.0,0.0,0.0,0.0,0.0,-8.1055,-8.1599,-8.2613,-8.3193,-8.399,-8.504,-8.5619,-8.5909,-8.5909,-8.5909,-8.4908,-8.2998,-8.2998,-8.282,-8.2496,-8.0902,-8.1063,-8.2496,-8.116,-8.1,-8.1509,-8.0542,-8.0209,-8.0209,-8.0209,-7.9904,-7.9388,0.0,0.0,0.0,0.0,0.0,0.0,-3.0185,-3.0226,-3.0241,-3.0304,-3.0381,-3.0975,0.0,0.0,0.0,-3.4925,-3.5507,-3.6401,-3.78,-3.8999,-4.0065,-4.0882,-4.3098,-4.4397,-4.4542,-4.8412,-5.2428,-5.6386,-5.6205,-5.5678,-5.4906,-5.5116,-5.4452,-5.3159,-5.3572,-5.3249,-5.2312,-5.0555,-4.961,-4.9118,-4.771,-4.6372,-4.5172,0.0,0.0,0.0,0.0,0.0,0.0,0.0,0.0,0.0,-5.2425,-5.3784,-5.5297,-5.8315,-5.9711,-6.0937,-6.4002,-6.6051,-6.7561,-6.872,-6.9536,-7.0293,-7.1066,-7.1398,-7.195,-7.3513,-7.3787,-7.4154,-7.5175,-7.5763,-7.6093,-7.6093,0.0,0.0,0.0,0.0,0.0,0.0,0.0,0.0,0.0,0.0,0.0,0.0,0.0,0.0,0.0,-8.1305,-8.1526,-8.2251,-8.3084,-8.3881,-8.4678,-8.5511,-8.5909,-8.5909,-8.5909,-8.5067,-8.3521,-8.3521,-8.3521,-8.3521,-8.2405,-8.2313,-8.2909,-8.1352,-8.1352,-8.2037,-8.074,-8.0209,-8.0209,-8.0107,-7.9801,-7.9388,0.0,0.0,0.0,0.0,0.0,0.0,-3.0199,-3.0254,-3.0316,-3.0328,-3.0472,-3.1224,0.0,0.0,0.0,-3.5663,-3.5818,-3.6176,-3.7031,-3.8592,-3.9914,-4.0961,-4.2685,-4.438,-4.6058,-4.9224,-5.1352,-5.2383,-5.3344,-5.3422,-5.2773,-5.4336,-5.4642,-5.3912,-5.4689,-5.4611,-5.3756,-5.1991,-5.0673,-4.9722,-4.888,-4.7406,-4.5684,-4.567,0.0,0.0,0.0,0.0,0.0,0.0,0.0,0.0,-5.2569,-5.4027,-5.5578,-5.9636,-6.0811,-6.1634,-6.5446,-6.7215,-6.8268,-6.9651,-7.0698,-7.1563,-7.2372,-7.1818,-7.1688,-7.334,-7.3707,-7.4184,-7.5799,-7.6093,-7.6093,0.0,0.0,0.0,0.0,0.0,0.0,0.0,0.0,0.0,0.0,0.0,0.0,0.0,0.0,0.0,0.0,-8.1375,-8.1632,-8.2143,-8.3012,-8.3845,-8.4569,-8.5475,-8.5909,-8.5909,-8.5909,-8.5417,-8.4513,-8.4396,-8.4314,-8.4314,-8.4314,-8.3897,-8.3086,-8.213,-8.2222,-8.282,-8.1,-8.0276,-8.0209,-7.9904,-7.9596,-7.9388,0.0,0.0,0.0,0.0,0.0,0.0,-3.0267,-3.0292,-3.0364,-3.0501,-3.0577,-3.128,-3.3075,-3.3285,0.0,-3.5663,-3.584,-3.6222,-3.704,-3.7518,-3.8713,-4.0902,-4.2669,-4.4399,-4.6129,-4.6912,-4.8398,-5.0625,-5.2811,-5.3828,-5.3689,-5.408,-5.3803,-5.2975,-5.3052,-5.3058,-5.2854,-5.0953,-4.9672,-4.8857,-4.7788,-4.6319,-4.4794,-4.4662,-4.4003,0.0,0.0,0.0,0.0,0.0,0.0,0.0,-5.2172,-5.3799,-5.5838,-5.8409,-6.0018,-6.1559,-6.4325,-6.6468,-6.8157,-6.9061,-6.9853,-7.0606,-7.1451,-7.0954,-7.1047,-7.3403,-7.3729,-7.4184,-7.5799,-7.6093,0.0,0.0,0.0,0.0,0.0,0.0,0.0,0.0,0.0,0.0,0.0,0.0,0.0,0.0,0.0,0.0,-8.1375,-8.1234,-8.1272,-8.1346,-8.2758,-8.3555,-8.3736,-8.5185,-8.5909,0.0,-8.5909,-8.5797,-8.5531,-8.4792,-8.3981,-8.3348,-8.4065,-8.4314,-8.4065,-8.3086,-8.282,-8.2909,-8.1792,-8.0804,-8.0209,-7.9904,-7.9596,-7.9388,0.0,0.0,0.0,0.0,0.0,0.0,0.0,0.0,-3.1399,-3.0703,-3.0629,-3.1165,-3.2509,-3.306,0.0,0.0,-3.5638,-3.6094,-3.6508,-3.6933,-3.8161,-4.0312,-4.1719,-4.2812,-4.3746,-4.5384,-4.6907,-4.8276,-5.0814,-5.2097,-5.2156,-5.2975,-5.2884,-5.2005,-5.2857,-5.3189,-5.3034,-5.1658,-5.0791,-5.0219,-4.8798,-4.7689,-4.6761,-4.589,-4.5278,-4.4932,-4.4932,0.0,0.0,0.0,0.0,0.0,0.0,0.0,-5.648,-5.8591,-6.0351,-6.2151,-6.4905,-6.7008,-6.8803,-7.0331,-7.101,-7.1358,-7.1798,-7.1541,-7.1615,-7.2978,-7.3802,-7.4661,-7.5873,0.0,0.0,0.0,0.0,0.0,0.0,0.0,0.0,0.0,0.0,0.0,0.0,0.0,0.0,0.0,0.0,-8.1683,-8.1478,-8.1375,-8.1163,-8.1092,-8.265,-8.3483,-8.3483,-8.5076,-8.5909,-8.5909,-8.5909,-8.5909,-8.5873,-8.5339,-8.4595,-8.3692,-8.4711,-8.4872,-8.4314,-8.3897,-8.3434,-8.2909,-8.1944,-8.1,-8.0209,-7.9801,-7.9492,-7.9284,0.0,0.0,0.0,0.0,0.0,0.0,0.0,0.0,0.0,-3.0806,-3.0661,-3.104,-3.1895,-3.2764,-3.3654,0.0,0.0,0.0,-3.5882,-3.6874,-3.808,-3.9507,-4.0558,-4.1186,-4.1303,-4.4309,-4.5987,-4.63,-4.8564,-4.9809,-5.0113,-5.1878,-5.225,-5.1476,-5.3013,-5.3744,-5.3766,-5.298,-5.2498,-5.2205,-5.0797,-4.9963,-4.9471,-4.8086,-4.7548,-4.7509,-4.7048,-4.7278,-4.7875,-4.8798,0.0,0.0,0.0,0.0,-5.6968,-5.8805,-6.0604,-6.2632,-6.5533,-6.7804,-6.9797,-7.1818,-7.2312,-7.2349,-7.2459,-7.2496,-7.2532,-7.2679,-7.3891,-7.5102,0.0,0.0,0.0,0.0,0.0,0.0,0.0,0.0,0.0,0.0,0.0,0.0,0.0,0.0,0.0,0.0,0.0,0.0,-8.1579,-8.1408,-8.1234,-8.1128,-8.265,-8.3483,-8.3483,-8.5076,-8.5909,-8.5909,-8.5909,-8.5909,-8.5909,-8.5909,-8.5453,-8.4711,-8.5531,-8.5417,-8.4676,-8.4676,-8.3981,-8.2909,-8.213,-8.116,-8.0107,-7.9596,-7.9388,-7.9284,0.0,0.0,0.0,0.0,0.0,0.0,0.0,0.0,0.0,0.0,-3.069,-3.104,-3.1895,-3.2772,-3.3668,-3.4525,-3.5411,-3.5897,-3.5898,0.0,0.0,-3.8674,-4.0235,-4.1449,-4.2229,-4.3408,-4.4777,-4.63,-4.7393,-4.8621,-4.9971,-5.1826,-5.2562,-5.2333,-5.2456,-5.3336,-5.4673,-5.3563,-5.3163,-5.3194,-5.2858,-5.1838,-5.051,-5.0279,-5.0202,-5.0356,-5.1702,-5.1779,-5.1431,-5.2771,-5.3225,0.0,0.0,0.0,-5.6548,-5.7509,-5.9393,-6.1715,-6.4224,-6.7428,-7.0349,-7.1211,-7.1468,-7.1651,-7.2349,-7.2496,-7.2716,-7.3377,-7.4258,0.0,0.0,0.0,0.0,0.0,0.0,0.0,0.0,0.0,0.0,0.0,0.0,0.0,0.0,0.0,0.0,0.0,0.0,0.0,-8.1579,-8.1305,-8.1128,-8.1128,-8.265,-8.3483,-8.3483,-8.5076,-8.5909,-8.5909,-8.5909,-8.5909,-8.5909,-8.5909,-8.5797,-8.5721,-8.5797,-8.5797,-8.5721,-8.5721,-8.463,-8.2998,-8.282,-8.1569,-7.9801,-7.9492,-7.9179,-7.8936,0.0,0.0,0.0,0.0,0.0,0.0,0.0,0.0,0.0,0.0,0.0,-3.2305,-3.2694,-3.3501,-3.4203,-3.4632,-3.5427,-3.5937,-3.593,-3.666,-3.7312,-3.7815,-3.8561,-3.9579,-4.0902,-4.2275,-4.3606,-4.4855,-4.6626,-4.8074,-4.9247,-5.0494,-5.1259,-5.1579,-5.1125,-5.2316,-5.4607,-5.3703,-5.413,-5.5287,-5.382,-5.4164,-5.5318,-5.2472,-5.3126,-5.5472,-5.4357,-5.3972,-5.4007,-5.3986,-5.4112,-5.4178,-5.3833,0.0,0.0,0.0,-5.9584,-6.1797,-6.5027,-6.776,-6.987,-7.0991,-7.1651,-7.2092,-7.2422,-7.2863,-7.3266,-7.3634,0.0,0.0,0.0,0.0,0.0,0.0,0.0,0.0,0.0,0.0,0.0,0.0,0.0,0.0,0.0,0.0,0.0,0.0,0.0,-8.1615,-8.1478,-8.1234,-8.1309,-8.1744,-8.2903,-8.37,-8.4171,-8.533,-8.5909,-8.5909,-8.5909,-8.5909,-8.5909,-8.5909,-8.5909,-8.5909,-8.5909,-8.5909,-8.5909,-8.5909,-8.4711,-8.3033,-8.3454,-8.2319,-8.0407,-8.0096,-7.978,-7.9395,0.0,0.0,0.0,0.0,0.0,0.0,0.0,0.0,0.0,0.0,0.0,-3.329,-3.3317,0.0,0.0,0.0,-3.5468,-3.5932,-3.5994,-3.5988,-3.6254,-3.6902,-3.6957,-3.7737,-3.9399,-4.0933,-4.2342,-4.3669,-4.5715,-4.7345,-4.8594,-4.8949,-4.973,-5.0819,-5.0325,-5.1595,-5.4185,-5.4053,-5.5268,-5.7203,-5.5972,-5.7203,-5.9473,-5.5961,-5.699,-5.9983,-5.7608,-5.6789,-5.6673,-5.5919,-5.5569,-5.5359,-5.4938,-5.566,0.0,0.0,0.0,-6.2183,-6.5212,-6.7428,-6.9205,-7.0441,-7.1524,-7.2296,-7.2459,-7.312,-7.3707,0.0,0.0,0.0,0.0,0.0,0.0,0.0,0.0,0.0,0.0,0.0,0.0,0.0,0.0,0.0,0.0,0.0,0.0,0.0,0.0,-8.1547,-8.1375,-8.1234,-8.1526,-8.2251,-8.3084,-8.3881,-8.4678,-8.5511,-8.5909,-8.5909,-8.5909,-8.5909,-8.5909,-8.5909,-8.6018,-8.6163,-8.5982,-8.6018,-8.6199,-8.6199,-8.5141,-8.363,-8.4192,-8.3079,-8.1077,-8.0632,-8.0248,-7.972,0.0,0.0,0.0,0.0,0.0,0.0,0.0,0.0,0.0,0.0,0.0,-3.329,-3.3317,-3.4066,-3.4638,-3.4687,-3.5499,-3.5994,-3.5991,-3.6017,-3.5948,-3.5892,-3.5982,0.0,-3.8429,-3.939,-4.1033,-4.3526,-4.4383,-4.603,-4.829,-4.7502,-4.8414,-5.0702,-5.0803,-5.1752,-5.3356,-5.4916,-5.6609,-5.8434,-6.0704,-6.1281,-6.0834,-6.1792,-6.2231,-6.2407,-6.28,-6.1576,-5.9802,-6.0071,-5.8861,-5.7068,-5.6406,-5.6766,-5.7472,0.0,0.0,0.0,-6.3345,-6.589,-6.8467,-6.9094,-7.0349,-7.1747,-7.2349,-7.312,-7.3707,-7.3707,0.0,0.0,0.0,0.0,0.0,0.0,0.0,0.0,0.0,0.0,0.0,0.0,0.0,0.0,0.0,0.0,0.0,0.0,0.0,-8.1547,-8.1375,-8.1375,-8.1668,-8.2251,-8.3084,-8.3881,-8.4678,-8.5511,-8.5909,-8.5909,-8.5909,-8.5909,-8.5909,-8.5909,-8.6271,-8.6923,-8.6199,-8.6308,-8.6959,-8.6959,-8.625,-8.5175,-8.521,-8.3742,-8.1431,-8.0728,-8.0142,-7.9504,0.0,0.0,0.0,0.0,0.0,0.0,0.0,0.0,0.0,0.0,0.0,0.0,0.0,-3.5261,-3.5469,-3.5538,-3.5801,-3.5991,-3.5985,-3.5914,-3.585,-3.585,-3.5801,-3.6324,-3.7559,-3.9435,-4.1138,-4.2594,-4.4467,-4.6125,-4.7487,-4.761,-4.8179,-4.9048,-4.9661,-5.1163,-5.3318,-5.4972,-5.6703,-5.8511,-6.105,-6.2897,-6.3988,-6.2959,-6.3581,-6.4769,-6.304,-6.1911,-6.1183,-6.0567,-5.9553,-5.846,-5.7968,-5.7695,-5.7695,-5.8735,-6.0295,-6.1886,-6.3086,-6.5456,-6.7654,-6.821,-6.9962,-7.1563,-7.1651,-7.2753,-7.3707,-7.3707,0.0,0.0,0.0,0.0,0.0,0.0,0.0,0.0,0.0,0.0,0.0,0.0,0.0,0.0,0.0,0.0,0.0,0.0,0.0,0.0,-8.1198,-8.1742,-8.2287,-8.3048,-8.3845,-8.4642,-8.5475,-8.5764,-8.5909,-8.5909,-8.5909,-8.5909,-8.5909,-8.638,-8.6778,-8.7032,-8.7285,-8.7539,-8.7793,-8.7793,-8.6787,-8.535,-8.5658,-8.4063,-8.1565,-8.1049,-8.0327,-7.9504,0.0,0.0,0.0,0.0,0.0,0.0,0.0,0.0,-3.5309,-3.5391,0.0,0.0,0.0,0.0,-3.6248,-3.603,-3.5988,-3.5981,-3.5958,-3.5855,-3.5833,-3.5807,-3.5718,-3.6082,-3.7008,-3.9199,-4.0876,-4.2022,-4.4214,-4.5881,-4.6986,-4.7486,-4.7855,-4.8163,-4.9317,-5.0933,-5.2895,-5.4857,-5.6703,-5.8566,-6.1787,-6.4039,-6.5423,-6.4991,-6.5813,-6.6902,-6.4596,-6.3691,-6.3502,-6.2724,-6.1861,-6.1048,-6.0449,-5.9361,-5.8475,-5.9255,-6.011,-6.1032,-6.2316,-6.4466,-6.6457,-6.6971,-6.9168,-7.1103,-7.0973,-7.2129,-7.3377,-7.3634,0.0,0.0,0.0,0.0,0.0,0.0,0.0,0.0,0.0,0.0,0.0,0.0,0.0,0.0,0.0,0.0,0.0,0.0,0.0,0.0,-8.1056,-8.1925,-8.2867,-8.3845,-8.4678,-8.5366,-8.5873,-8.5909,-8.5909,-8.5909,-8.6163,-8.6308,-8.6308,-8.7068,-8.7575,-8.7865,-8.8372,-8.8626,-8.8626,-8.8626,-8.7574,-8.6087,-8.6056,-8.4342,-8.1899,-8.1042,-8.0252,-7.9504,0.0,0.0,0.0,0.0,0.0,0.0,-3.4567,-3.6012,-3.71,-3.7186,0.0,0.0,0.0,0.0,0.0,-3.618,-3.6095,-3.6036,-3.5846,-3.5883,-3.5814,-3.5601,-3.5702,-3.6114,-3.6842,-3.8539,-4.0243,-4.1841,-4.3512,-4.5201,-4.6855,-4.6894,-4.7317,-4.8125,-4.9933,-5.1164,-5.2125,-5.4664,-5.6742,-5.8696,-6.3206,-6.4862,-6.5025,-6.822,-6.9171,-6.8701,-6.786,-6.7208,-6.6733,-6.6776,-6.5875,-6.4674,-6.3659,-6.176,-5.9775,-5.8995,-5.9367,-6.0184,0.0,0.0,0.0,-6.546,-6.807,-7.0364,-7.0128,-7.1358,-7.2753,0.0,0.0,0.0,0.0,0.0,0.0,0.0,0.0,0.0,0.0,0.0,0.0,0.0,0.0,0.0,0.0,0.0,0.0,0.0,0.0,-8.0572,-8.1092,-8.214,-8.3302,-8.4678,-8.5475,-8.5909,-8.5909,-8.5909,-8.5909,-8.5945,-8.6706,-8.7104,-8.7068,-8.7901,-8.8662,-8.9386,-8.9422,-8.9422,-8.9422,-8.9422,-8.8684,-8.7527,-8.6441,-8.4652,-8.2502,-8.0709,-7.982,-7.9504,0.0,0.0,0.0,0.0,0.0,-3.5582,-3.6276,-3.6789,-3.7553,0.0,0.0,0.0,-3.992,-4.0033,-3.9663,-3.883,-3.8667,-3.8033,-3.6759,-3.6587,-3.6261,-3.563,-3.5588,-3.5693,-3.5936,-3.8747,-4.0423,-4.0892,-4.3811,-4.547,-4.597,-4.6586,-4.7009,-4.7355,-5.0279,-5.2049,-5.301,-5.5549,-5.7627,-5.9488,-6.3194,-6.5485,-6.6841,-6.796,-6.847,-6.8435,-6.7209,-6.6396,-6.5875,-6.5878,-6.4942,-6.3548,-6.2257,-6.1366,-6.0815,-6.0593,-6.1076,-6.1781,-6.2004,0.0,0.0,0.0,0.0,0.0,-7.0018,0.0,-7.3083,0.0,0.0,0.0,0.0,0.0,0.0,0.0,0.0,0.0,0.0,0.0,0.0,0.0,0.0,0.0,0.0,0.0,0.0,0.0,-7.9439,-8.0176,-8.1853,-8.3338,-8.4571,-8.5547,-8.5764,-8.5909,-8.5909,-8.5909,-8.6163,-8.6706,-8.6923,-8.7322,-8.7937,-8.8698,-8.9205,-8.9422,-9.0002,-9.0255,-9.0255,-9.0255,-8.9064,-8.7211,-8.6218,-8.4074,-8.1409,-8.0185,-7.9272,-7.8809,0.0,0.0,-3.4853,-3.5349,-3.6212,-3.7017,-3.7566,-3.858,-3.9356,0.0,0.0,0.0,-4.0542,-4.0879,-4.0746,-3.9884,-3.9725,-3.937,-3.868,-3.8252,-3.7626,-3.6706,-3.6345,-3.6107,-3.6084,-3.8652,-4.0338,-4.1046,-4.3739,-4.524,-4.5586,-4.6124,-4.6355,-4.6509,-4.9894,-5.2087,-5.3433,-5.7049,-5.9165,-6.0373,-6.402,-6.6058,-6.7178,-6.8625,-6.9222,-6.9199,-6.8124,-6.7617,-6.737,-6.7752,-6.6957,-6.5656,-6.4456,-6.3214,-6.2153,-6.1819,-6.1781,-6.1967,-6.2301,-6.3297,-6.4281,-6.4535,0.0,0.0,-6.9026,0.0,0.0,0.0,0.0,0.0,0.0,0.0,0.0,0.0,0.0,0.0,0.0,0.0,0.0,0.0,0.0,0.0,0.0,0.0,0.0,-7.8625,-7.8862,-8.0107,-8.265,-8.4063,-8.5151,-8.5873,-8.5583,-8.5547,-8.5909,-8.5583,-8.5945,-8.7032,-8.7358,-8.7937,-8.8734,-8.9531,-8.9893,-8.9929,-9.04,-9.0537,-9.0457,-9.0457,-8.9014,-8.6662,-8.5541,-8.3292,-8.0568,-7.9546,-7.8875,-7.8511,0.0,0.0,-3.5929,-3.6919,-3.788,-3.8654,-3.8926,-4.0758,-4.1785,0.0,-4.206,-4.2497,-4.0837,-4.1459,-4.1612,-4.0746,-4.0652,-4.0778,-4.1162,-4.0559,-3.9668,-3.852,-3.7783,-3.7316,-3.7076,-3.8796,-4.0392,-4.1816,-4.3585,-4.4855,-4.5586,-4.5586,-4.5663,-4.5893,-4.9202,-5.1664,-5.3664,-5.8665,-6.0911,-6.1467,-6.5381,-6.6824,-6.6926,-6.9769,-7.0714,-7.0517,-6.9889,-6.9718,-6.9878,-7.0568,-6.9981,-6.883,-6.8107,-6.5927,-6.3557,-6.2851,-6.2034,-6.1589,-6.2294,-6.2909,-6.3373,-6.3342,-6.5496,0.0,-6.7704,0.0,0.0,0.0,0.0,0.0,0.0,0.0,0.0,0.0,0.0,0.0,0.0,0.0,0.0,0.0,0.0,0.0,0.0,-7.6814,-7.7468,-7.7968,-7.9002,-8.0688,-8.3411,-8.45,-8.5262,-8.5728,-8.5076,-8.504,-8.5764,-8.5149,-8.5619,-8.7141,-8.7974,-8.877,-8.9567,-9.0255,-9.0581,-9.0581,-9.0618,-9.0457,-9.0295,-9.0022,-8.8398,-8.5869,-8.469,-8.2442,-7.9968,-7.8916,-7.8511,-7.8511,-3.3599,-3.5277,-3.6957,-3.7928,-3.8839,-4.013,-4.2189,-4.1801,-4.2382,-4.5508,-4.6875,-4.7165,-4.6183,-4.68,-4.6952,-4.6054,-4.5884,-4.5025,-4.3109,-4.2762,-4.1856,-4.0203,-3.9985,-3.9573,-3.8821,-4.1139,-4.2162,-4.1816,-4.4162,-4.5432,-4.5586,-4.5586,-4.597,-4.6778,-4.9471,-5.201,-5.4511,-5.8934,-6.1723,-6.352,-6.6916,-6.8451,-6.8782,-7.0341,-7.0953,-7.1045,-7.0256,-6.963,-6.893,-6.7973,-6.7421,-6.7119,-6.6421,-6.5323,-6.4251,-6.4197,-6.3613,-6.2974,-6.303,-6.3224,-6.3521,-6.391,-6.4991,0.0,-6.7447,-6.9082,-7.0183,0.0,0.0,0.0,0.0,0.0,0.0,0.0,0.0,0.0,0.0,0.0,0.0,0.0,0.0,0.0,0.0,-7.7265,-7.8117,-7.8236,-8.1109,-8.3047,-8.3629,-8.5008,-8.5513,-8.4931,-8.4786,-8.4786,-8.4931,-8.5402,-8.6452,-8.801,-8.877,-8.9603,-9.0364,-9.0545,-9.0581,-9.0581,-9.0457,-9.0376,-9.0141,-8.8291,-8.6762,-8.5359,-8.45,-8.2342,-7.9646,-7.8809,-7.8511,-7.8511,-3.4016,-3.5944,-3.7869,-3.8878,-4.048,-4.2169,-4.3895,-4.4553,-4.5469,-4.7219,-4.8627,-4.915,-4.8291,-4.8951,-4.9259,-4.8829,-4.832,-4.7678,-4.6839,-4.5849,-4.4499,-4.271,-4.2138,-4.1489,-4.0585,-4.1816,-4.2662,-4.3047,-4.4316,-4.5163,-4.5586,-4.5586,-4.6801,-4.9029,-5.02,-5.2905,-5.6805,-6.0517,-6.3143,-6.5111,-6.8256,-6.9762,-7.0209,-7.1695,-7.2116,-7.1798,-7.0991,-7.0183,-6.9302,-6.8252,-6.821,-6.8446,-6.7686,-6.6975,-6.6285,-6.5841,-6.5138,-6.4509,-6.4413,-6.4118,-6.3848,-6.4107,-6.483,0.0,0.0,-6.8348,-6.9486,-6.9486,-7.0477,0.0,0.0,0.0,0.0,0.0,0.0,0.0,0.0,0.0,0.0,0.0,0.0,0.0,0.0,-7.7107,-7.798,-7.8588,-8.1547,-8.3373,-8.3593,-8.4391,-8.4788,-8.4678,-8.4316,-8.4279,-8.4678,-8.5511,-8.667,-8.8227,-8.9024,-8.9821,-9.0581,-9.0581,-9.0537,-9.0457,-9.0376,-9.0131,-8.9809,-8.8357,-8.6657,-8.5007,-8.3346,-8.1224,-7.9041,-7.8676,-7.8742,-7.9074,-3.4609,-3.6714,-3.8975,-3.981,-4.2208,-4.4353,-4.5404,-4.7338,-4.8623,-4.828,-4.9859,-5.0767,-5.0064,-5.0868,-5.1479,-5.1479,-5.0984,-5.0828,-5.1213,-4.9624,-4.8017,-4.6441,-4.4937,-4.379,-4.3047,-4.2701,-4.3124,-4.4316,-4.447,-4.4893,-4.5586,-4.5778,-4.7624,-5.0786,-5.13,-5.4149,-5.8863,-6.2195,-6.4665,-6.6557,-6.9625,-7.1118,-7.1611,-7.3222,-7.3496,-7.2797,-7.1708,-7.0881,-7.022,-6.9576,-6.9831,-7.0344,-6.961,-6.883,-6.8097,-6.7516,-6.6505,-6.562,-6.5767,-6.5114,-6.4425,-6.4425,-6.4839,-6.5521,0.0,0.0,0.0,0.0,0.0,0.0,0.0,0.0,0.0,0.0,0.0,0.0,0.0,0.0,0.0,0.0,0.0,0.0,0.0,-7.7401,-7.8382,-7.9038,-8.1656,-8.3334,-8.352,-8.3629,-8.3955,-8.4424,-8.3845,-8.3881,-8.4678,-8.5656,-8.6887,-8.8444,-8.9241,-8.9966,-9.0581,-9.0537,-9.0457,-9.0295,-9.0213,-8.9857,-8.9342,-8.8442,-8.6803,-8.4506,-8.251,-8.0609,-7.8941,-7.8941,-7.9306,-7.9836,-3.5993,-3.8125,-4.0626,-4.0752,-4.3553,-4.6371,-4.8015,-4.8571,-4.9296,-5.0761,-5.2955,-5.4324,-5.4207,-5.5514,-5.6373,-5.6373,-5.694,-5.6761,-5.5409,-5.4304,-5.331,-5.2453,-4.929,-4.7489,-4.7394,-4.5932,-4.4893,-4.4316,-4.5047,-4.5509,-4.5624,-4.6394,-4.776,-4.9739,-5.3009,-5.5887,-5.8611,-6.2959,-6.5935,-6.7956,-7.1304,-7.2989,-7.3611,-7.426,-7.448,-7.4168,-7.2024,-7.1248,-7.1064,-7.0386,-7.0219,-7.0347,-7.0344,-6.9221,-6.8062,-6.8636,-6.7237,-6.5653,-6.625,-6.5882,-6.5308,-6.5206,-6.5228,-6.5521,-6.6329,0.0,-6.699,-6.7797,0.0,-6.9082,-6.9302,0.0,0.0,0.0,0.0,0.0,-7.0697,0.0,0.0,0.0,0.0,0.0,0.0,0.0,0.0,-7.9515,-8.2851,-8.4571,-8.3737,-8.3629,-8.3519,-8.3627,-8.3555,-8.3881,-8.4678,-8.6163,-8.7684,-8.9277,-9.0074,-9.0509,-9.0581,-9.0457,-9.0295,-9.0295,-8.9881,-8.9318,-8.8505,-8.7338,-8.5659,-8.3949,-8.3645,-8.2275,-8.0432,-8.0432,-8.0498,-8.0564,-3.8852,-4.0621,-4.2578,-4.3083,-4.5196,-4.7606,-4.9864,-5.1561,-5.2836,-5.3565,-5.4981,-5.6049,-5.6517,-5.7069,-5.7781,-5.8791,-5.8583,-5.8131,0.0,-5.6518,-5.5209,-5.3464,-5.1413,-4.9625,-4.8125,-4.7394,-4.6394,-4.5047,-4.5932,-4.6355,-4.6355,-4.674,-4.8931,-5.2652,-5.4188,-5.7452,-6.1907,-6.4622,-6.7639,-7.0764,-7.2168,-7.4068,0.0,-7.5641,-7.4607,-7.3167,-7.1287,-7.0587,-7.055,0.0,-7.0864,-7.1545,-7.0533,-7.0477,-7.0587,-6.989,-6.897,-6.8218,-6.8495,-6.8071,-6.7447,-6.7393,-6.7393,-6.7357,-6.721,-6.754,-6.7871,-6.7724,0.0,0.0,0.0,0.0,0.0,0.0,-7.077,0.0,0.0,0.0,-7.2899,0.0,0.0,0.0,0.0,0.0,0.0,0.0,0.0,-8.3264,-8.2287,-8.2178,-8.2324,-8.2758,-8.3229,-8.3881,-8.4678,-8.6706,-8.83,-8.9386,-9.0219,-9.0581,-9.0581,-9.0376,-9.0213,-9.0084,-8.9797,-8.9364,-8.8871,-8.7903,-8.6522,-8.5121,-8.4639,-8.2955,-8.0697,-8.0697,-8.0962,-8.1326,-4.2254,-4.307,-4.4064,-4.4676,-4.6442,-4.8738,-5.1594,-5.39,-5.5474,-5.5942,-5.6709,-5.759,-5.8682,-5.8937,-5.9657,-6.1172,-6.0925,-6.0594,0.0,-5.9567,-5.8346,-5.6831,-5.4303,-5.2259,-5.0855,-4.949,-4.8086,-4.6624,-4.7278,-4.7471,-4.724,-4.774,-5.0138,-5.4142,-5.5407,-5.8818,-6.3879,-6.6137,-6.9169,-7.2469,-7.2696,-7.432,-7.6526,-7.5919,-7.4617,-7.2973,-7.1578,-7.1211,-7.1394,-7.1451,-7.2279,0.0,-7.1875,-7.2022,-7.2483,-7.1414,-7.0624,-7.0146,-7.0367,-6.9853,-6.932,-6.9704,-6.9794,-6.9647,-6.902,-6.9352,-6.9446,-6.8292,-6.8017,0.0,0.0,0.0,-6.9155,-6.9889,0.0,-6.9926,0.0,-7.033,0.0,0.0,0.0,0.0,0.0,0.0,0.0,0.0,0.0,0.0,-8.1165,-8.1128,-8.1454,-8.2251,-8.3084,-8.399,-8.5004,-8.7141,-8.8734,-8.9748,-9.0328,-9.0618,-9.0537,-9.0295,-9.0048,-8.9917,-8.9628,-8.935,-8.8963,-8.8571,-8.7564,-8.6137,-8.5496,-8.3841,-8.17,-8.1404,-8.1624,-8.1976,-4.5956,-4.5237,-4.4754,-4.4812,-4.6943,-4.9838,-5.338,-5.4693,-5.5864,-5.7504,-5.8289,-5.9387,-6.111,-6.2314,-6.3399,-6.427,-6.5635,-6.6085,-6.5303,0.0,-6.4496,-6.5186,-5.9019,-5.6297,-5.7743,-5.3046,-5.0164,-4.9279,-4.9317,-4.8894,-4.8086,-4.9779,-5.1087,-5.22,-5.6611,-6.0061,-6.2845,-6.724,-7.0241,-7.2187,-7.2982,-7.3511,-7.3881,0.0,-7.4754,-7.4735,-7.3891,0.0,0.0,-7.4911,-7.4969,0.0,0.0,0.0,-7.2814,-7.3435,-7.1908,-7.0257,-7.1064,-7.066,-7.0386,-7.1672,-7.2011,-7.2011,-7.1974,-7.1974,-7.1413,-6.9265,-6.8862,-6.8641,-6.7907,-6.8385,-6.8421,-6.6916,-6.8605,0.0,0.0,-6.9119,0.0,0.0,0.0,0.0,0.0,0.0,0.0,0.0,0.0,0.0,-8.1237,-8.1128,-8.1454,-8.2251,-8.3084,-8.4243,-8.5837,-8.743,-8.8988,-9.0545,-9.0581,-9.0537,-9.0295,-9.0084,-8.9881,-8.9628,-8.9371,-8.8856,-8.8178,-8.8963,-8.8136,-8.6429,-8.6172,-8.5344,-8.4224,-8.3232,-8.259,-8.2362,-4.6108,-4.6289,-4.6699,-4.7274,-4.9114,-5.1679,-5.5169,-5.6411,-5.7328,0.0,-5.963,0.0,0.0,-6.3572,-6.4624,0.0,0.0,-6.682,-6.711,-6.6413,0.0,-6.5618,-6.0764,-5.8088,-5.8088,-5.3716,-5.1316,-5.1048,-4.9933,-4.9817,-5.0625,-5.0664,-5.2318,-5.5374,-5.8279,-6.1994,-6.6182,-6.8291,-7.1336,-7.4658,0.0,-7.5217,-7.5426,0.0,0.0,-7.5579,-7.4771,-7.5028,0.0,-7.5125,-7.5308,-7.5639,-7.5125,-7.4941,-7.4904,-7.4588,-7.3927,0.0,0.0,0.0,-7.259,-7.3074,-7.3167,-7.3019,-7.2503,-7.2392,-7.2042,-7.0753,-7.0073,-6.9449,-6.8641,-6.8715,-6.8715,-6.8201,-6.8311,-6.8495,0.0,-6.8769,0.0,0.0,0.0,0.0,0.0,0.0,0.0,0.0,0.0,0.0,0.0,-8.0332,-8.0694,-8.1491,-8.2287,-8.3483,-8.5076,-8.6163,-8.772,-8.9785,-8.9662,-8.987,-9.0295,-8.9881,-8.9713,-8.9628,-8.9407,-8.9178,-8.8928,-8.9213,-8.8058,-8.6234,-8.6118,-8.4998,-8.341,-8.2737,-8.251,-8.2346,-4.7038,-4.7182,-4.7663,-4.856,-5.0697,-5.3388,-5.6532,0.0,0.0,0.0,-6.1379,0.0,-6.4674,0.0,-6.5947,0.0,-6.7535,-6.7852,-6.838,-6.8258,0.0,-6.7752,-6.4057,-6.2042,-6.208,-5.7412,-5.4809,-5.4583,-5.2605,-5.1895,-5.2356,-5.2433,-5.4087,-5.7088,-5.9281,-6.2971,-6.7526,-6.87,-7.1162,-7.4253,0.0,-7.5144,0.0,0.0,-7.6276,-7.6925,0.0,-7.6093,-7.646,-7.5946,-7.6093,-7.646,-7.5946,-7.5909,-7.6019,-7.5469,-7.5139,-7.4918,-7.4918,-7.4515,0.0,-7.4732,-7.4863,0.0,-7.4199,-7.3831,-7.3369,-7.2369,-7.1284,-7.0477,-7.022,-6.9963,-6.9743,-6.9743,-6.9082,-6.8531,0.0,-6.8182,0.0,0.0,0.0,0.0,0.0,0.0,0.0,0.0,0.0,0.0,0.0,0.0,-8.0585,-8.1092,-8.1889,-8.2939,-8.4243,-8.5619,-8.7213,-8.8909,-8.9328,-8.9708,-9.0048,-8.9713,-8.9543,-8.9457,-8.9407,-8.932,-8.932,-8.8899,-8.7923,-8.6616,-8.582,-8.4577,-8.3265,-8.2623,-8.2445,-8.2491,-4.885,-4.8304,-4.8102,-4.9043,-5.1951,-5.5044,0.0,0.0,-6.0106,0.0,-6.3521,-6.4955,-6.729,-6.7348,-6.7564,-6.845,-6.9068,-6.9387,-6.9387,-7.0216,0.0,0.0,-6.8709,-6.7735,-6.9253,-6.3691,-6.0353,-5.9585,-5.7043,-5.5049,-5.3626,-5.5164,-5.6395,-5.7396,-5.9819,-6.3138,-6.6962,-6.847,-6.9975,-7.1505,-7.2312,-7.3597,-7.5249,-7.6827,-7.799,-7.8762,-7.7733,-7.7378,-7.7378,-7.7341,-7.7304,-7.7304,-7.7304,-7.679,-7.6166,-7.6166,-7.5616,-7.5028,-7.5028,-7.4992,-7.5257,-7.6551,0.0,0.0,0.0,0.0,-7.5365,-7.4044,-7.2569,-7.1725,-7.2422,-7.1908,-7.1358,-7.1358,-7.0697,-6.954,-6.7891,-6.7468,-6.7846,0.0,0.0,0.0,0.0,0.0,0.0,0.0,0.0,0.0,0.0,0.0,-8.1128,-8.1165,-8.1853,-8.2613,-8.341,-8.5801,-8.7239,-8.7877,-8.9465,-9.0012,-8.9628,-8.9628,-8.9457,-8.932,-8.932,-8.932,-8.9233,-8.8108,-8.7702,-8.7421,-8.5309,-8.4291,-8.3859,-8.2737,-8.2491,-8.278,-5.139,-5.2436,-5.3867,-5.6046,-5.6657,-5.7465,0.0,0.0,0.0,0.0,-6.558,-6.7307,-6.9376,-6.9574,-7.0126,-7.165,-7.1937,0.0,0.0,0.0,0.0,-7.2673,-7.0069,-6.8801,-6.9291,-6.42,-6.1723,-6.2235,-5.9119,-5.805,-5.8858,-5.8627,-5.9665,-6.1704,-6.2358,-6.5161,-6.9411,-6.9265,-7.0694,-7.3156,-7.3964,-7.5676,0.0,0.0,-7.9412,-7.9572,-7.8614,-7.8259,-7.8185,-7.7524,-7.7304,-7.7304,-7.7304,-7.7194,-7.7011,-7.7011,-7.6864,-7.6717,-7.6717,-7.6276,-7.5896,-7.6199,-7.6295,-7.6295,0.0,0.0,0.0,0.0,-7.4698,-7.3854,-7.345,-7.2716,-7.2202,-7.2202,-7.1427,-7.049,-6.9409,-6.9034,-6.9223,-7.0181,0.0,0.0,0.0,0.0,0.0,0.0,0.0,0.0,0.0,0.0,0.0,-8.1961,-8.1599,-8.178,-8.2577,-8.4202,-8.5675,-8.7047,-8.8311,-8.9139,-8.9592,-8.9457,-8.932,-8.932,-8.932,-8.932,-8.9233,-8.8108,-8.7196,-8.642,-8.4998,-8.3975,-8.3153,-8.2753,-8.3095,-8.3836,-5.4521,-5.6245,-5.7955,-5.9421,0.0,0.0,-6.1905,-6.3188,0.0,-6.6936,-6.7966,0.0,-7.1487,-7.1274,-7.1642,-7.3399,-7.3514,0.0,-7.3017,0.0,0.0,-7.3017,-7.1947,-7.1598,-7.2013,-6.8174,0.0,-6.5329,-6.2798,-6.1296,-6.0819,-6.105,-6.2127,-6.3935,-6.5051,-6.7722,-7.1367,-7.1551,-7.2547,-7.4127,-7.4669,-7.6631,0.0,-7.9276,-7.9533,-7.9816,-7.9312,-7.8883,-7.8516,-7.8038,-7.8112,-7.8405,-7.8405,-7.8405,-7.8332,-7.7965,-7.7892,-7.7818,-7.7414,-7.7268,-7.7194,-7.7194,-7.7451,-7.7708,-7.7708,-7.7157,-7.6754,0.0,-7.5983,-7.4992,0.0,0.0,-7.4478,-7.4147,-7.3003,-7.175,-7.0427,-7.0105,-7.0048,-7.0484,-7.1122,0.0,0.0,0.0,0.0,0.0,0.0,0.0,0.0,0.0,0.0,-8.1744,-8.2034,-8.2142,-8.2142,-8.4669,-8.6102,-8.6441,-8.8135,-8.9113,-8.9457,-8.9014,-8.8963,-8.9285,-8.8928,-8.8963,-8.9198,-8.7609,-8.6616,-8.5921,-8.4413,-8.3597,-8.3302,-8.3268,-8.3642,-8.4264,-5.7703,-5.9608,-6.0939,-6.1056,-6.3071,0.0,0.0,-6.5517,0.0,-6.9876,0.0,-7.1054,-7.3289,-7.2709,-7.2864,-7.4545,0.0,-7.4354,-7.3552,-7.4966,-7.508,-7.3399,-7.4087,-7.4736,-7.5157,-7.3046,-7.0808,-6.8454,-6.6929,-6.4744,-6.2012,-6.3358,-6.4436,-6.5359,-6.759,-7.0026,-7.2584,-7.4076,-7.4644,-7.4582,-7.5043,-7.7011,-7.958,-7.8993,-7.9176,-7.98,-7.991,-7.936,-7.8626,-7.8846,-7.9286,-7.98,-7.991,-7.9874,-7.9653,-7.8956,-7.8772,-7.8589,-7.7855,-7.8185,-7.8772,-7.8772,-7.9176,-7.9653,-7.9764,-7.8589,-7.7745,-7.8589,-7.7047,-7.5946,0.0,0.0,-7.6913,-7.6289,-7.4738,-7.313,-7.1769,-7.1332,-7.1174,-7.0987,0.0,0.0,0.0,0.0,0.0,0.0,0.0,0.0,0.0,0.0,0.0,-8.1273,-8.2505,0.0,-8.2319,0.0,-8.7061,-8.644,-8.8398,-8.9314,-8.9142,-8.8535,-8.8571,-8.9106,-8.8535,-8.8642,-8.911,-8.7004,-8.5955,-8.5618,-8.3825,-8.3367,-8.3723,-8.4225,-8.4328,-8.4426,-5.9645,-6.1865,-6.3828,-6.457,-6.6199,-6.7624,-6.8312,-6.8522,-6.895,-6.9864,-7.1123,-7.2495,-7.391,-7.4537,-7.5501,-7.7182,-7.7335,0.0,0.0,0.0,0.0,-7.5119,-7.5844,-7.5386,-7.3476,-7.3079,-7.1995,0.0,-6.9299,-6.8586,-6.8129,-6.7705,-6.7975,-6.8821,-6.9283,-7.0337,-7.1996,-7.3838,0.0,-7.4948,-7.6374,-7.7671,-7.8883,-7.9396,-7.9653,-7.9874,-8.0534,-7.9837,-7.8809,-8.0131,-8.0241,-7.991,-8.0571,-8.0314,-7.9764,-7.9617,-7.958,-7.9543,-7.9396,-7.947,-7.958,-7.958,-7.9176,-7.8993,-7.9653,-7.9066,-7.8589,-7.9396,-7.9213,-7.8809,-7.8442,0.0,0.0,0.0,-7.5395,-7.4577,-7.5479,-7.4978,-7.4478,-7.4283,-7.4971,-7.537,0.0,0.0,0.0,0.0,0.0,0.0,0.0,0.0,0.0,0.0,-8.1563,0.0,0.0,0.0,-8.5661,-8.8016,-8.8277,-8.8371,-8.8321,-8.8856,-8.8821,-8.8321,-8.8856,-8.9178,-8.911,-8.7004,-8.5233,-8.3892,-8.3874,-8.4151,-8.4626,-8.4971,-8.5106,-8.5106,-6.3473,-6.5052,-6.6678,-6.8005,-6.888,0.0,0.0,-7.1,0.0,-7.2157,-7.2715,-7.3775,-7.5705,-7.6156,-7.693,-7.8555,-7.8773,-7.8463,-7.7411,-7.7755,-7.7449,-7.6188,-7.5653,-7.5042,-7.4316,-7.4312,-7.3341,-7.1321,0.0,-7.2131,-7.1014,-7.1475,-7.1668,-7.1706,-7.2534,-7.3252,-7.399,0.0,0.0,-7.651,-7.8012,-7.8846,-7.9286,-8.0131,-8.0424,-8.0534,-8.1342,-8.1379,-8.1232,-8.2003,-8.2003,-8.1746,-8.2113,-8.1709,-8.0938,-8.0534,-8.0424,-8.0314,-7.991,-8.0094,-8.0424,-8.0424,-8.0461,-8.0571,-8.0938,-8.0424,-7.9837,-7.98,-7.947,-7.9176,-7.905,-7.8793,0.0,0.0,0.0,-7.6956,-7.7159,-7.6439,-7.5798,-7.5732,-7.642,-7.6782,0.0,0.0,0.0,0.0,0.0,0.0,0.0,0.0,0.0,0.0,0.0,0.0,0.0,0.0,0.0,-8.7634,-8.8407,-8.85,-8.8107,-8.85,-8.8464,-8.8107,-8.85,-8.8508,-8.8072,-8.6164,-8.4377,-8.3146,-8.402,-8.4398,-8.4543,-8.5133,-8.5268,-8.5268,-6.6862,-6.7937,-6.9098,-7.0465,-7.1097,0.0,-7.2088,-7.2862,-7.3609,-7.4233,-7.4334,-7.5171,-7.7442,-7.773,-7.8331,-7.9702,-8.0093,-7.9851,-7.8899,-7.8634,-7.8061,-7.7029,-7.573,-7.5157,-7.5462,-7.5501,-7.4576,0.0,0.0,-7.3875,-7.1409,-7.3476,-7.4322,-7.4063,-7.5349,0.0,0.0,0.0,-7.7871,-7.7917,-7.9401,-7.9889,-7.9874,-8.0498,-8.0975,-8.1379,-8.215,-8.3067,-8.3911,-8.3911,-8.3691,-8.3398,-8.3398,-8.2913,-8.2233,-8.148,-8.136,-8.1276,-8.0525,-8.0755,-8.1269,-8.1269,-8.1599,-8.2003,-8.215,-8.1562,-8.0865,-8.0388,-7.9653,-7.9297,-7.9938,-8.0194,0.0,0.0,0.0,0.0,-7.8862,-7.7824,-7.714,-7.7072,-7.776,-7.8122,-7.7796,0.0,0.0,0.0,0.0,0.0,-8.3736,0.0,0.0,0.0,0.0,-8.4361,-8.455,0.0,-8.7562,0.0,-8.8357,-8.8464,-8.7857,-8.8,-8.8,-8.7857,-8.8214,-8.778,-8.6776,-8.5468,-8.4024,-8.2965,-8.4235,-8.4543,-8.449,-8.5073,-8.5268,-8.5268,-6.7734,-6.9283,-7.0504,-7.066,0.0,0.0,-7.3181,-7.3758,-7.4236,-7.4149,-7.5405,-7.6845,-7.8171,-7.9223,-8.027,-8.1459,-8.182,-8.1815,-8.1499,-8.0697,-7.9551,-7.7946,-7.7717,-7.6953,-7.5539,-7.5501,-7.5417,0.0,0.0,-7.1773,-6.8751,-7.2063,-7.4341,0.0,0.0,0.0,0.0,-7.8128,-7.8389,-7.8183,-7.9874,-8.0244,-7.98,-7.9874,-8.0828,-8.2186,-8.2994,-8.4278,-8.5563,-8.5563,-8.4609,-8.3398,-8.3398,-8.3161,-8.2793,-8.227,-8.2449,-8.2682,-8.2159,-8.2039,-8.2076,-8.2076,-8.1599,-8.1305,-8.2039,-8.1562,-8.1195,-8.1819,-8.1342,-8.0947,-8.1586,-7.9779,-7.9238,0.0,0.0,0.0,0.0,-8.083,-7.978,-7.9571,-8.0295,-8.0187,0.0,0.0,0.0,0.0,-8.3845,0.0,0.0,0.0,0.0,-8.4569,0.0,-8.5111,-8.7232,-8.5749,0.0,-8.907,-8.775,-8.7108,-8.7036,-8.775,-8.7679,-8.7108,-8.8571,-8.791,-8.5751,-8.5713,-8.4856,-8.3616,-8.4398,-8.4868,-8.5203,-8.5268,-8.5268,-8.5268,0.0,0.0,0.0,0.0,0.0,0.0,0.0,-7.5113,-7.6126,-7.6559,-7.6591,-7.7157,-7.8657,-8.0157,-8.1407,-8.2207,-8.2844,-8.3094,-8.2851,-8.1877,-8.0735,-7.9551,-7.8022,-7.6685,-7.5539,-7.5501,-7.5497,0.0,0.0,0.0,-7.4397,-7.631,0.0,0.0,0.0,-7.7743,-7.8637,-7.9084,-7.9759,-8.0568,-8.0562,-8.0693,-8.0861,-8.1556,-8.2449,-8.3596,-8.4928,-8.5815,-8.6195,-8.5715,-8.4903,-8.4058,-8.3581,-8.3006,-8.2497,-8.2251,-8.2343,-8.2434,-8.2251,-8.2186,-8.2186,-8.2186,-8.1966,-8.1782,-8.2113,-8.1929,-8.1672,-8.1525,-8.1232,-8.102,-8.0984,-8.1021,-8.1245,0.0,0.0,0.0,0.0,-8.0763,-8.0148,-8.0585,-8.0911,-8.0875,0.0,0.0,0.0,0.0,0.0,0.0,-8.745,-8.5987,0.0,-8.7797,0.0,-8.5159,-8.7861,-8.6621,-8.6858,-8.8571,-8.8428,-8.8107,-8.7643,-8.8464,-8.8223,-8.703,-8.6881,-8.6059,-8.4682,-8.4371,-8.415,-8.3966,-8.4836,-8.5166,-8.5268,-8.5268,-8.5268,-8.5268,-7.1897,0.0,-7.2573,0.0,-7.4187,-7.4952,-7.5241,-7.6457,-7.7687,-7.8564,-7.8183,-7.8481,-8.0046,-8.1636,-8.2767,-8.3294,-8.3977,-8.4224,-8.3856,-8.286,-8.1879,-8.0926,-7.9169,0.0,-7.6647,-7.6379,-7.6147,-7.591,-7.6777,0.0,0.0,-7.6754,0.0,0.0,-7.816,-7.8818,-8.0121,-8.0273,-8.1051,-8.2119,-8.12,-8.1393,-8.2219,-8.2873,-8.3988,-8.5371,-8.6527,-8.6937,-8.6728,-8.5946,-8.5237,-8.4606,-8.3576,-8.3187,-8.3016,-8.2866,-8.3016,-8.3224,-8.2929,-8.2655,-8.2407,-8.2251,-8.2186,-8.2186,-8.2186,-8.2186,-8.2113,-8.1782,-8.1644,-8.1549,-8.1501,-8.2085,-8.2454,-8.196,0.0,0.0,0.0,-8.0766,-8.0801,-8.2318,-8.2287,-8.2323,-8.2791,-8.5215,0.0,0.0,0.0,0.0,-8.8173,-8.7084,0.0,0.0,0.0,0.0,0.0,-8.7179,-8.7286,-8.8107,-8.8678,-8.8642,-8.8107,-8.8678,-8.8473,-8.7539,-8.6118,-8.5233,-8.4523,-8.3887,-8.3829,-8.4264,-8.5009,-8.5268,-8.5268,-8.5268,-8.5268,-8.5268,-7.207,-7.2642,-7.3275,-7.3315,-7.4669,-7.606,-7.6958,-7.7762,-7.8603,-7.9461,-8.0319,-8.1399,-8.2798,-8.3983,-8.4777,-8.5036,-8.5342,-8.5274,-8.4735,-8.3901,-8.3,0.0,0.0,-8.0964,-7.9283,-7.8404,-7.7564,-7.6685,0.0,0.0,-7.0592,-7.0762,-7.3405,-7.8088,-7.8088,-7.9471,-8.1767,-8.1767,-8.1911,-8.2165,-8.1607,-8.2383,-8.3795,-8.3321,-8.4984,-8.7527,-8.7565,-8.7565,-8.736,-8.6534,-8.5746,-8.4813,-8.3467,-8.3919,-8.4942,-8.4456,-8.5033,-8.5685,-8.4571,-8.3626,-8.2853,-8.2343,-8.2186,-8.2186,-8.2186,-8.2186,-8.2406,-8.3214,-8.3228,-8.3244,-8.384,-8.257,-8.192,-8.3519,0.0,0.0,0.0,-8.1742,-8.2211,-8.5343,-8.5081,-8.5264,-8.6738,0.0,0.0,0.0,0.0,0.0,0.0,0.0,0.0,-8.6477,-8.6163,0.0,-8.73,-8.7014,-8.7286,-8.8107,-8.8107,-8.8107,-8.8107,-8.8107,-8.824,-8.8416,-8.71,-8.6096,-8.5405,-8.4754,-8.4369,-8.4264,-8.5009,-8.5268,-8.5268,-8.5268,-8.5268,-8.5268,-7.4627,-7.4809,-7.4993,-7.4993,-7.6425,-7.7667,-7.7954,-7.919,-8.0197,-8.0517,-8.2304,-8.3722,-8.4189,-8.454,-8.5025,0.0,-8.6155,-8.6399,0.0,-8.523,-8.4146,-8.3,-8.2391,-8.1483,-8.0124,-8.043,-8.0468,-8.02,0.0,0.0,0.0,-7.6863,-7.8053,-8.062,-8.062,-8.1078,-8.1843,-8.2378,-8.2339,-8.199,-8.2581,-8.3385,-8.4328,-8.5496,-8.687,-8.8142,-8.8142,-8.7802,-8.7147,-8.6316,-8.5863,-8.5636,-8.5185,-8.5056,-8.5086,-8.4925,-8.5086,-8.5079,-8.3748,-8.3217,-8.2853,-8.2343,-8.2497,-8.2769,-8.2769,-8.3176,-8.3719,-8.4088,-8.4071,-8.3902,-8.3986,-8.3444,-8.3084,-8.3556,-8.294,0.0,-8.3121,-8.2505,-8.2323,-8.3334,-8.2686,-8.2686,0.0,-8.5264,0.0,0.0,0.0,0.0,0.0,0.0,0.0,0.0,-8.6859,0.0,-8.8621,-8.8,-8.8107,-8.8928,-8.8928,-8.8928,-8.8928,-8.8543,-8.7642,-8.6252,-8.5994,-8.5077,-8.4005,-8.4128,-8.4511,-8.4944,-8.5203,-8.5268,-8.5268,-8.5268,-8.5268,-8.5268,-7.5735,-7.5813,-7.6008,-7.6672,-7.7681,-7.8611,-7.9287,-8.0257,-8.107,-8.1435,-8.3146,-8.4427,-8.4771,-8.4802,0.0,-8.6405,-8.6533,-8.6514,-8.6433,-8.5447,-8.4514,-8.3702,-8.3055,-8.2247,-8.1248,0.0,0.0,-8.1421,-8.1154,-8.0733,-8.0083,-7.9891,-8.0197,-8.085,-8.1194,-8.1499,-8.1843,-8.234,-8.2416,-8.2302,-8.315,-8.4187,-8.5433,-8.7103,-8.815,-8.8745,-8.8745,-8.8022,-8.7034,-8.6805,-8.6539,-8.6349,-8.6691,-8.6548,-8.6188,-8.5952,-8.5813,-8.5523,-8.4433,-8.3732,-8.3169,-8.2647,-8.2769,-8.2994,-8.2994,-8.3626,-8.4299,-8.4522,-8.4625,-8.4673,-8.4861,-8.4464,-8.4064,-8.3917,-8.37,-8.3483,-8.3483,-8.3048,-8.3194,-8.4354,0.0,0.0,0.0,-8.5372,0.0,0.0,0.0,0.0,0.0,0.0,0.0,-8.7718,-8.6478,0.0,-8.7964,-8.8071,-8.8357,-8.8856,-8.9178,-8.932,-8.932,-8.8721,-8.748,-8.565,-8.5536,-8.4811,-8.3682,-8.4031,-8.462,-8.5268,-8.5268,-8.5268,-8.5268,-8.5268,-8.5268,-8.5268,-7.5891,-7.6125,0.0,0.0,-7.8624,0.0,-8.0849,-8.1083,-8.1396,-8.2176,-8.2996,-8.3816,-8.4636,-8.4753,-8.5442,-8.7,0.0,0.0,0.0,-8.4731,-8.4142,-8.3962,-8.3683,-8.321,-8.2526,-8.2298,-8.1716,-8.0805,-8.1461,-8.1003,-7.9474,-8.0162,-8.0162,-7.9589,-8.0277,-8.1079,-8.1881,-8.1881,-8.234,-8.3104,-8.3492,-8.4948,-8.7037,-8.8129,-8.8873,-8.9294,-8.9179,-8.8148,-8.7001,-8.7766,-8.7536,-8.7116,-8.7842,-8.811,-8.7951,-8.7369,-8.697,-8.665,-8.6062,-8.4945,-8.3832,-8.3227,-8.3148,-8.3223,-8.326,-8.3892,-8.4508,-8.4772,-8.5069,-8.5517,-8.6319,-8.5592,-8.4825,-8.4825,-8.4208,-8.3701,-8.3664,-8.3591,-8.4646,0.0,0.0,0.0,0.0,-8.774,-8.6557,0.0,0.0,0.0,0.0,0.0,-8.8015,-8.4574,-8.5359,-8.5823,-8.5894,-8.7393,-8.8178,-8.8178,-8.8963,-8.932,-8.9198,-8.8596,-8.7644,-8.639,-8.5709,-8.5102,-8.4432,-8.4341,-8.4685,-8.5268,-8.5268,-8.5268,-8.5268,-8.5268,-8.5268,-8.5268,0.0,0.0,-7.9912,-8.0302,-8.0927,-8.1513,-8.1942,-8.1981,-8.2059,-8.2254,-8.2996,-8.3582,-8.3777,-8.4401,-8.4941,-8.5364,-8.5207,-8.5075,-8.499,-8.4171,-8.3831,-8.4181,-8.3504,-8.3203,-8.3336,-8.3226,-8.2655,-8.1537,-8.169,-8.1614,-8.1194,-8.0735,-8.1079,-8.2111,-8.169,-8.1958,-8.2722,-8.2722,-8.3219,-8.4098,-8.5429,-8.6729,-8.7918,-8.8748,-8.921,-8.9141,-8.7842,-8.7575,-8.7727,-8.7269,-8.7842,-8.8644,-8.8224,-8.811,-8.7957,-8.7146,-8.6844,-8.6535,-8.5341,-8.4732,-8.439,-8.3832,-8.4492,-8.5474,-8.6065,-8.647,-8.6797,-8.7031,-8.6549,-8.6317,-8.7053,-8.6738,-8.6349,-8.6349,-8.6203,-8.5952,-8.5368,-8.4786,-8.468,0.0,-8.4681,-8.4498,-8.57,-8.533,-8.5583,0.0,0.0,0.0,0.0,-8.6144,-8.5311,-8.3718,-8.5074,-8.6073,-8.6644,-8.8214,-8.9035,-8.9035,-8.9213,-8.911,-8.8632,-8.7515,-8.6498,-8.5743,-8.5023,-8.4551,-8.4374,-8.4842,-8.5138,-8.5268,-8.5268,-8.5268,-8.5268,-8.5268,-8.5268,-8.5268,-8.0146,-8.0693,-8.1122,-8.1513,-8.1981,-8.2293,-8.2293,-8.2293,-8.2293,-8.2293,-8.2684,-8.3074,-8.3465,-8.3582,-8.3972,-8.4714,-8.4441,-8.4356,-8.4778,-8.3997,-8.3818,-8.4518,-8.3597,-8.3308,-8.3811,-8.3316,-8.2824,-8.2454,-8.2378,-8.2149,-8.1805,-8.1308,-8.1385,-8.1843,-8.1805,-8.2264,-8.3028,-8.341,-8.4289,-8.555,-8.6887,-8.7689,-8.8186,-8.8988,-8.8835,-8.811,-8.7575,-8.746,-8.7536,-8.7842,-8.8568,-8.9179,-8.8339,-8.811,-8.7842,-8.6581,-8.6199,-8.6044,-8.5262,-8.4892,-8.4741,-8.4832,-8.5431,-8.6189,-8.7023,-8.7575,-8.7893,-8.7711,-8.7221,-8.6917,-8.7188,-8.709,-8.6815,-8.6536,-8.6712,-8.6642,-8.6024,-8.5511,0.0,-8.5257,-8.4859,-8.475,-8.5221,-8.4958,-8.5359,-8.6534,0.0,0.0,-8.5423,-8.4342,-8.3772,-8.3932,-8.5145,-8.6002,-8.6394,-8.7964,-8.8749,-8.8749,-8.8845,-8.881,-8.8416,-8.6908,-8.5892,-8.5479,-8.4754,-8.4369,-8.4264,-8.4976,-8.5268,-8.5268,-8.5268,-8.5268,-8.5268,-8.5268,-8.5268,-8.5268,-8.0927,-8.1278,-8.1591,-8.2332,-8.2489,-8.2489,-8.2489,-8.2371,-8.2293,-8.2293,-8.2293,-8.2567,-8.323,-8.2723,-8.2879,-8.4284,-8.3855,-8.3855,-8.4753,-8.4128,-8.4011,-8.4753,-8.3937,-8.3686,-8.4165,-8.3062,-8.2708,-8.3058,-8.2797,-8.2378,-8.1843,-8.1843,-8.1499,-8.0964,-8.1805,-8.2607,-8.341,-8.4289,-8.5626,-8.7231,-8.7842,-8.8148,-8.8339,-8.8759,-8.811,-8.7078,-8.7689,-8.7575,-8.7384,-8.8835,-8.9409,-8.9332,-8.8377,-8.811,-8.7766,-8.6008,-8.5511,-8.5511,-8.5511,-8.5148,-8.4992,-8.5911,-8.6252,-8.6556,-8.7353,-8.8056,-8.8469,-8.7845,-8.7525,-8.7313,-8.7415,-8.7188,-8.6995,-8.6939,-8.7112,-8.7146,-8.679,0.0,-8.6235,-8.6235,-8.6235,-8.6199,-8.6014,-8.5789,-8.5411,-8.496,-8.4155,-8.3558,0.0,-8.2754,-8.3111,-8.4753,-8.5324,-8.5787,-8.6144,-8.7572,-8.8285,-8.8285,-8.8402,-8.8416,-8.8108,-8.6286,-8.5441,-8.5355,-8.459,-8.4314,-8.4426,-8.5041,-8.5268,-8.5268,-8.5268,-8.5268,-8.5268,-8.5268,-8.5268,-8.53,-8.2059,-8.2645,-8.3152,-8.3308,-8.3308,-8.3308,-8.3308,-8.2723,-8.2293,-8.2293,-8.2293,-8.2332,-8.2489,-8.2371,-8.2411,-8.2684,-8.3191,-8.3855,-8.4753,-8.4675,-8.4675,-8.4792,-8.4622,-8.4522,-8.4435,-8.3149,-8.2526,-8.2545,-8.1618,-8.1448,-8.2061,-8.1915,-8.2185,-8.2797,-8.3563,-8.4365,-8.5167,-8.6046,-8.7384,-8.8874,-8.8301,-8.8492,-8.8988,-8.7689,-8.7498,-8.7804,-8.7231,-8.7842,-8.895,-8.9218,-8.9791,-9.0135,-8.8606,-8.811,-8.7766,-8.6008,-8.5511,-8.5511,-8.5511,-8.5471,-8.5581,-8.6459,-8.7222,-8.7989,-8.879,-8.9239,-8.9476,-8.9238,-8.8196,-8.7635,-8.8616,-8.8227,-8.8567,-9.1148,-8.9945,-8.9218,-9.0629,0.0,-8.7865,-8.7865,-8.7865,-8.7498,-8.6655,-8.6384,-8.557,-8.4083,-8.3629,-8.3477,-8.3397,-8.3254,-8.3932,-8.5573,-8.5074,-8.5752,-8.7714,-8.8642,-8.9106,-8.9142,-8.865,-8.7923,-8.6776,-8.5241,-8.464,-8.4573,-8.3824,-8.4031,-8.5138,-8.5235,-8.5268,-8.5268,-8.5268,-8.5268,-8.5268,-8.5268,-8.5268,-8.5365,-8.2293,-8.2957,-8.3504,-8.3504,-8.3504,-8.3504,-8.3504,-8.2801,-8.2293,-8.2293,-8.2293,-8.2293,-8.2293,-8.2293,-8.2489,-8.2918,-8.3738,-8.4558,-8.5456,-8.5495,-8.5729,-8.6197,-8.5768,-8.4941,-8.3778,-8.3462,-8.2999,-8.241,-8.234,-8.2452,-8.2748,-8.3173,-8.3522,-8.3906,-8.5208,-8.6162,-8.6963,-8.7804,-8.8606,-8.9256,-8.8912,-8.8415,-8.7918,-8.7613,-8.746,-8.746,-8.7995,-8.8644,-8.937,-8.9829,-8.9982,-8.9676,-8.8492,-8.7766,-8.7154,-8.5893,-8.5511,-8.5511,-8.5511,-8.5855,-8.6428,-8.7269,-8.8148,-8.8988,-8.9829,-9.0116,-9.0121,-8.9897,-8.9039,-8.8446,-8.8934,-8.9048,-8.9451,-9.055,-9.0094,0.0,-9.0331,-8.9459,-8.8688,-8.8227,-8.8462,-8.8135,-8.6836,-8.6405,-8.5661,-8.4434,-8.4201,-8.4039,-8.4039,-8.4467,-8.5038,-8.5787,-8.6251,-8.6787,-8.7465,-8.8678,-8.9106,-8.8678,-8.8329,-8.7515,-8.6518,-8.5162,-8.4589,-8.4452,-8.3918,-8.4328,-8.5268,-8.5268,-8.5268,-8.5268,-8.5268,-8.5268,-8.5268,-8.5268,-8.5268,-8.5397,-8.2567,-8.323,-8.3855,-8.405,-8.3933,-8.3816,-8.3816,-8.2957,-8.2293,-8.2293,-8.2293,-8.2293,-8.2293,-8.2293,-8.2567,-8.3152,-8.4206,-8.5065,-8.5768,-8.6197,-8.6705,-8.7368,-8.6542,-8.5379,-8.3831,-8.4025,-8.3712,-8.2883,-8.3398,-8.3779,-8.4028,-8.4656,-8.5087,-8.5435,-8.693,-8.7886,-8.8494,-8.9256,-8.96,-8.9561,-8.9179,-8.8377,-8.7422,-8.7689,-8.7613,-8.7575,-8.8835,-8.9447,-8.9714,-9.0364,-9.002,-8.9179,-8.8339,-8.7498,-8.6658,-8.5779,-8.5511,-8.5511,-8.5511,-8.6161,-8.7001,-8.788,-8.8683,-8.9523,-9.0402,-9.0551,-9.0508,-9.025,-8.9627,-8.9205,-8.9361,-8.9816,-9.0229,-9.0685,0.0,-9.0823,-9.0889,-9.0463,-8.9892,-8.9273,-8.9239,-8.8727,-8.7322,-8.6477,-8.5759,-8.489,-8.4835,-8.4895,-8.4895,-8.5645,-8.6144,-8.6323,-8.7465,-8.7786,-8.7179,-8.8607,-8.8999,-8.8392,-8.7987,-8.7231,-8.6187,-8.5108,-8.4504,-8.4215,-8.4081,-8.4361,-8.5041,-8.5041,-8.5041,-8.5041,-8.5203,-8.5268,-8.5268,-8.5268,-8.5268,-8.5397,-8.3347,-8.4167,-8.4948,-8.5768,-8.5221,-8.4714,-8.4714,-8.3347,-8.2293,-8.2293,-8.2293,-8.2293,-8.2293,-8.2293,-8.2332,-8.2371,-8.3855,-8.4831,-8.4909,-8.6392,-8.7329,-8.7407,-8.6566,-8.602,-8.5878,-8.4935,-8.4426,-8.4338,-8.4023,-8.4649,-8.6169,-8.6005,-8.6726,-8.8226,-8.896,-8.9341,-8.9456,-9.0176,-9.0517,-9.0364,-8.8797,-8.8568,-8.895,-8.746,-8.7842,-8.9141,-8.9256,-8.9829,-9.0517,-9.0593,-9.002,-8.9179,-8.8339,-8.7498,-8.6658,-8.5779,-8.5511,-8.5511,-8.5511,-8.6161,-8.7001,-8.788,-8.8683,-8.9523,-9.0402,-9.0508,-9.0383,-9.025,-8.9578,-8.9393,-9.0714,-9.0502,-9.1301,-9.4961,0.0,0.0,-9.5442,-9.3898,-9.2439,-9.2373,-9.106,-8.9679,-8.8653,-8.7083,-8.5678,-8.4681,-8.5288,-8.5716,-8.5716,-8.643,-8.7143,-8.7893,-8.8036,-8.8071,-8.8,-8.8892,-8.9285,-8.9213,-8.8234,-8.6908,-8.531,-8.4892,-8.4159,-8.3317,-8.3227,-8.3648,-8.4296,-8.4296,-8.4296,-8.4361,-8.5009,-8.5268,-8.5268,-8.5268,-8.5268,-8.5336,-8.2576,-8.3359,-8.4217,-8.5116,-8.4597,-8.4206,-8.4714,-8.3386,-8.2293,-8.2293,-8.2293,-8.2293,-8.2293,-8.2293,-8.2293,-8.2293,-8.3347,-8.3972,-8.3972,-8.5104,-8.6041,-8.6588,-8.6269,-8.5605,-8.4519,-8.4637,-8.4629,-8.452,-8.5416,-8.6418,-8.7475,-8.8295,-8.8938,-8.9465,-9.0071,-9.03,-9.0176,-9.0478,-9.0287,-8.9752,-8.9103,-8.8721,-8.853,-8.8415,-8.8759,-8.937,-8.9905,-9.0326,-9.0593,-9.0593,-8.9676,-8.8492,-8.8186,-8.7116,-8.5932,-8.5588,-8.5511,-8.5626,-8.6161,-8.6925,-8.7689,-8.8033,-8.9103,-9.0211,-9.0517,-9.0508,-9.034,-9.025,-9.0314,-9.0524,-9.1041,-9.1761,-9.2753,-9.4287,0.0,-9.3648,-9.4586,-9.3995,-9.2865,-9.1348,-9.0839,-8.9714,-8.7348,-8.6818,-8.6228,-8.5395,-8.6037,-8.6465,-8.6465,-8.7215,-8.8,-8.8821,-8.8856,-8.8856,-8.8856,-8.9178,-8.932,-8.932,-8.7738,-8.6593,-8.5752,-8.4935,-8.4268,-8.3843,-8.4296,-8.4393,-8.4231,-8.4685,-8.462,-8.4264,-8.5009,-8.5268,-8.5268,-8.5268,-8.5591,-8.5983,-8.2366,-8.2944,-8.3638,-8.4531,-8.402,-8.3667,-8.428,-8.3118,-8.2217,-8.2299,-8.2276,-8.2242,-8.2293,-8.2293,-8.2293,-8.2293,-8.3035,-8.3504,-8.3504,-8.4323,-8.5065,-8.5651,-8.5416,-8.4714,-8.3543,-8.4089,-8.4451,-8.4579,-8.5975,-8.7347,-8.8593,-8.9547,-9.013,-9.0466,-9.0825,-9.0877,-9.0635,-9.0593,-9.0249,-8.9676,-8.9409,-8.9141,-8.8912,-8.9179,-8.9485,-8.9791,-9.0402,-9.0593,-9.0593,-9.0593,-8.9485,-8.811,-8.811,-8.6887,-8.5511,-8.5511,-8.5702,-8.6046,-8.6658,-8.7613,-8.8492,-8.8492,-8.9561,-9.0593,-9.0551,-9.0427,-9.0295,-9.0159,-9.0751,-9.1291,-9.142,-9.2633,-9.3656,-9.3921,-9.406,-9.401,-9.3784,-9.3747,-9.2967,-9.0943,-9.0372,-8.9194,-8.6919,-8.6593,-8.6358,-8.5823,-8.6715,-8.7393,-8.7643,-8.8178,-8.8749,-8.9285,-8.932,-8.932,-8.932,-8.932,-8.932,-8.932,-8.7386,-8.6432,-8.6161,-8.4997,-8.4337,-8.4231,-8.4717,-8.4652,-8.4231,-8.4749,-8.4652,-8.4264,-8.5009,-8.5268,-8.5268,-8.5268,-8.5468,-8.5663,-8.3003,-8.318,-8.3442,-8.4337,-8.3761,-8.3249,-8.3391,-8.2534,-8.1993,-8.2276,-8.2184,-8.2148,-8.2266,-8.2293,-8.2293,-8.2293,-8.3035,-8.3504,-8.3504,-8.4284,-8.4792,-8.4792,-8.3972,-8.3504,-8.3504,-8.3504,-8.3933,-8.4792,-8.5476,-8.7131,-8.9572,-8.9392,-9.0055,-9.1406,-9.1258,-9.1024,-9.0719,-9.0635,-9.0593,-9.0517,-8.9676,-8.9829,-9.0517,-8.9638,-8.9867,-9.0593,-9.0593,-9.0593,-9.0593,-9.0593,-8.9485,-8.811,-8.8071,-8.6887,-8.5511,-8.5511,-8.6123,-8.681,-8.681,-8.8033,-8.9294,-8.9294,-8.9944,-9.0551,-9.0427,-9.0295,-9.0159,-9.0067,-9.0608,-9.1344,-9.214,-9.3012,-9.3846,-9.4679,-9.4793,-9.449,-9.3694,-9.358,-9.3137,-9.2043,-8.9906,-8.8391,-8.8019,-8.6692,-8.5823,-8.5823,-8.7251,-8.8464,-8.9285,-8.932,-8.932,-8.932,-8.932,-8.932,-8.932,-8.932,-8.932,-8.9233,-8.7386,-8.6432,-8.6196,-8.5031,-8.4337,-8.4199,-8.4199,-8.4199,-8.4199,-8.4199,-8.4199,-8.4264,-8.5009,-8.5268,-8.5268,-8.53,-8.4764,-8.392,-8.2095,-8.2156,-8.2456,-8.3428,-8.2871,-8.2518,-8.317,-8.2491,-8.1945,-8.1998,-8.2032,-8.2032,-8.209,-8.2136,-8.2186,-8.2223,-8.2456,-8.2604,-8.2645,-8.2918,-8.3035,-8.3035,-8.3347,-8.323,-8.2684,-8.3191,-8.3933,-8.4792,-8.6215,-8.7603,-8.9008,-8.9971,-9.0596,-9.0923,-9.1321,-9.1284,-9.0912,-9.0875,-9.08,-9.0593,-9.0326,-9.0364,-9.0593,-9.0326,-9.0364,-9.0593,-9.0593,-9.0593,-9.0593,-9.0593,-8.9485,-8.788,-8.6658,-8.5932,-8.5626,-8.6237,-8.6619,-8.7078,-8.8224,-8.8912,-8.9179,-8.8606,-8.9561,-9.0398,-8.9664,-8.9876,-9.0159,-9.0067,-9.1063,-9.2026,-9.2254,-9.3467,-9.4528,-9.4755,-9.4338,-9.3846,-9.3618,-9.305,-9.2073,-9.0264,-8.9161,-8.7899,-8.6427,-8.6433,-8.6573,-8.6573,-8.8036,-8.907,-8.932,-8.932,-8.932,-8.932,-8.932,-8.932,-8.932,-8.932,-8.8775,-8.7853,-8.6736,-8.6019,-8.5493,-8.4662,-8.4511,-8.4944,-8.4944,-8.4685,-8.4231,-8.4749,-8.4652,-8.4264,-8.5009,-8.5268,-8.5142,-8.4187,-8.4237,-8.4582,-8.162,-8.162,-8.1809,-8.2417,-8.2087,-8.1926,-8.252,-8.2129,-8.1803,-8.1894,-8.1906,-8.1928,-8.1987,-8.207,-8.211,-8.2136,-8.2448,-8.2654,-8.2718,-8.3066,-8.3257,-8.3308,-8.4089,-8.3972,-8.2801,-8.323,-8.4089,-8.5299,-8.6353,-8.7525,-8.8735,-8.9582,-9.022,-9.0729,-9.1096,-9.1256,-9.1181,-9.1181,-9.1018,-9.0761,-9.0761,-9.0719,-9.0593,-9.0593,-9.0593,-9.0593,-9.0593,-9.0593,-9.0593,-9.0593,-8.9485,-8.7842,-8.6467,-8.6008,-8.6199,-8.7078,-8.7536,-8.8033,-8.9027,-8.9561,-8.9561,-8.8377,-8.9329,-9.0165,-8.8853,-8.933,-8.9999,-8.9555,-9.0976,-9.2292,-9.2292,-9.3656,-9.4679,-9.4376,-9.3921,-9.3353,-9.2709,-9.2039,-9.0955,-8.9048,-8.8211,-8.7219,-8.5685,-8.6378,-8.7179,-8.7821,-8.8749,-8.932,-8.932,-8.932,-8.932,-8.932,-8.932,-8.932,-8.932,-8.8899,-8.8164,-8.7221,-8.6506,-8.5824,-8.5216,-8.4543,-8.4588,-8.5268,-8.5268,-8.5041,-8.4652,-8.5106,-8.5041,-8.4685,-8.5106,-8.5268,-8.5174,-8.3955,-8.3786,-8.4044,-8.1504,-8.1504,-8.1504,-8.1504,-8.1504,-8.1562,-8.1659,-8.1575,-8.1608,-8.1843,-8.182,-8.1836,-8.1948,-8.2016,-8.2031,-8.1976,-8.2803,-8.3354,-8.3515,-8.4257,-8.4764,-8.4888,-8.559,-8.5317,-8.3867,-8.3861,-8.4636,-8.6236,-8.6236,-8.7056,-8.8696,-8.8635,-8.9337,-9.0647,-9.0729,-9.1018,-9.1434,-9.1511,-9.1338,-9.1052,-9.1018,-9.0838,-9.0635,-9.0593,-9.0593,-9.0593,-9.0593,-9.0593,-9.0593,-9.0517,-8.9485,-8.8071,-8.7192,-8.6925,-8.7116,-8.7957,-8.8721,-8.9332,-8.9409,-8.9944,-9.0096,-8.8492,-8.9134,-8.9692,-8.8004,-8.8783,-8.9669,-8.8891,-9.0624,-9.2329,-9.2405,-9.3732,-9.4528,-9.3732,-9.3504,-9.2936,-9.1306,-9.0788,-8.9984,-8.8339,-8.7313,-8.6461,-8.5536,-8.6378,-8.7572,-8.9178,-8.932,-8.932,-8.932,-8.932,-8.932,-8.932,-8.932,-8.932,-8.932,-8.8199,-8.7515,-8.71,-8.6405,-8.5784,-8.4986,-8.4487,-8.462,-8.5203,-8.5268,-8.5268,-8.5268,-8.5268,-8.5268,-8.5268,-8.5268,-8.5268,-8.5239,-8.4105,-8.342,-8.2734,-8.1504,-8.1504,-8.1504,-8.1504,-8.1504,-8.1528,-8.1562,-8.1514,-8.1528,-8.1585,-8.163,-8.1635,-8.1695,-8.1738,-8.1809,-8.1842,-8.2757,-8.3607,-8.4296,-8.4536,-8.4932,-8.5643,-8.5175,-8.5422,-8.6444,-8.6537,-8.6744,-8.7134,-8.7134,-8.7642,-8.8696,-8.8635,-8.9145,-9.0105,-9.0807,-9.0992,-9.0818,-9.1583,-9.1694,-9.1368,-9.1121,-9.0947,-9.0875,-9.0679,-9.0593,-9.0593,-9.0593,-9.0593,-9.0517,-8.9829,-8.9332,-8.8912,-8.8071,-8.7804,-8.7995,-8.8797,-8.9179,-8.9447,-9.0135,-8.9982,-8.9291,-8.8214,-8.8129,-8.8004,-8.6932,-8.7908,-8.9137,-8.9497,-9.1003,-9.2519,-9.3201,-9.4111,-9.4528,-9.3732,-9.3012,-9.2216,-9.123,-9.0259,-8.9307,-8.8265,-8.7313,-8.6461,-8.5536,-8.6378,-8.7572,-8.9178,-8.932,-8.932,-8.932,-8.932,-8.932,-8.932,-8.932,-8.932,-8.932,-8.8199,-8.7248,-8.644,-8.5993,-8.5083,-8.3649,-8.4582,-8.4814,-8.4458,-8.5041,-8.5268,-8.5268,-8.5268,-8.5268,-8.5268,-8.5268,-8.5268,-8.508,-8.3036,-8.245,-8.2653,-8.1504,-8.1504,-8.1504,-8.1504,-8.1504,-8.1504,-8.1504,-8.1504,-8.1504,-8.1504,-8.1553,-8.16,-8.16,-8.1669,-8.191,-8.2377,-8.322,-8.4143,-8.5107,-8.5937,-8.6424,-8.6503,-8.69,-8.7342,-8.7877,-8.7929,-8.7766,-8.7407,-8.7787,-8.8217,-8.8696,-8.9079,-8.9719,-9.0559,-9.1418,-9.1937,-9.2104,-9.2588,-9.2618,-9.2251,-9.1666,-9.1277,-9.0982,-9.0839,-9.0719,-9.0593,-9.0593,-9.0593,-9.0478,-8.96,-8.9294,-8.9218,-8.8797,-8.8683,-8.8835,-8.9676,-8.9944,-9.002,-9.0478,-8.9982,-8.9061,-8.8138,-8.7514,-8.6894,-8.5931,-8.7285,-8.8824,-8.9146,-9.0851,-9.2557,-9.3429,-9.3921,-9.3908,-9.2971,-9.2152,-9.132,-9.0231,-8.9582,-8.8804,-8.7609,-8.6948,-8.6429,-8.6225,-8.6561,-8.7572,-8.9178,-8.932,-8.932,-8.932,-8.932,-8.932,-8.932,-8.9023,-8.9023,-8.932,-8.7515,-8.6739,-8.6952,-8.6105,-8.4821,-8.3227,-8.4296,-8.4555,-8.4231,-8.462,-8.4944,-8.5268,-8.5268,-8.5268,-8.5268,-8.5268,-8.4889,-8.4056,-8.2696,-8.2018,-8.1542,-8.1504,-8.1504,-8.1504,-8.1504,-8.1504,-8.1504,-8.1504,-8.1504,-8.1504,-8.1504,-8.1553,-8.1577,-8.1577,-8.1624,-8.204,-8.2975,-8.3656,-8.4495,-8.5711,-8.7131,-8.7788,-8.7425,-8.8635,-8.9072,-8.8501,-8.8322,-8.8021,-8.7592,-8.8278,-8.8705,-8.8909,-8.9678,-9.0445,-9.1241,-9.2108,-9.2783,-9.3263,-9.3587,-9.3453,-9.2987,-9.2208,-9.1554,-9.1087,-9.1018,-9.0839,-9.0593,-9.0593,-9.0593,-9.0478,-8.9791,-8.9523,-8.9523,-8.9523,-8.9523,-8.9676,-9.0402,-9.0593,-9.0593,-9.0593,-8.9982,-8.9061,-8.8095,-8.7128,-8.6203,-8.5196,-8.6662,-8.8312,-8.8729,-9.0548,-9.2405,-9.3391,-9.358,-9.3175,-9.1892,-9.1331,-9.0561,-8.916,-8.8842,-8.8302,-8.6948,-8.6355,-8.6267,-8.6835,-8.6894,-8.7572,-8.9178,-8.932,-8.932,-8.932,-8.932,-8.932,-8.932,-8.8899,-8.8721,-8.9023,-8.6755,-8.6267,-8.7496,-8.622,-8.4903,-8.3512,-8.394,-8.4199,-8.4199,-8.4328,-8.4717,-8.5268,-8.5268,-8.5268,-8.5268,-8.5268,-8.4347,-8.3007,-8.2543,-8.1482,-8.0294,-8.1504,-8.1504,-8.1504,-8.1504,-8.1504,-8.1504,-8.1504,-8.1504,-8.1504,-8.1504,-8.1504,-8.1504,-8.1504,-8.1528,-8.1901,-8.2863,-8.3116,-8.3947,-8.5524,-8.6026,-8.6853,-8.817,-8.7741,-8.7788,-8.8494,-8.7649,-8.7585,-8.8334,-8.8514,-8.8984,-8.9724,-8.993,-9.0445,-9.1241,-9.2124,-9.2091,-9.1547,-9.3064,-9.3224,-9.2464,-9.2074,-9.1694,-9.1397,-9.1082,-9.0839,-9.0593,-9.0593,-9.0593,-9.0593,-9.0478,-9.044,-9.044,-9.044,-9.044,-9.044,-9.0593,-9.0593,-9.0593,-9.0593,-8.9859,-8.8896,-8.7927,-8.704,-8.607,-8.5136,-8.5697,-8.7061,-8.9184,-9.051,-9.1723,-9.3315,-9.358,-9.2985,-9.1174,-9.0835,-9.0351,-8.916,-8.8302,-8.7544,-8.688,-8.5652,-8.5345,-8.6751,-8.6894,-8.7572,-8.9178,-8.932,-8.932,-8.932,-8.932,-8.932,-8.932,-8.9233,-8.881,-8.7923,-8.7275,-8.6571,-8.6008,-8.5483,-8.5046,-8.4471,-8.429,-8.4199,-8.4231,-8.4847,-8.5203,-8.5268,-8.5268,-8.5268,-8.5268,-8.5268,-8.4347,-8.2874,-8.141,-8.0609,-8.0294,-8.1504,-8.1504,-8.1504,-8.1504,-8.1504,-8.1504,-8.1504,-8.1504,-8.1504,-8.1504,-8.1504,-8.1504,-8.1504,-8.1504,-8.1877,-8.284,-8.348,-8.434,-8.5598,-8.6728,-8.7477,-8.7702,-8.7819,-8.7837,-8.7798,-8.7331,-8.7565,-8.8501,-8.9037,-8.9487,-8.9921,-9.0911,-9.1585,-9.1968,-9.2834,-9.2958,-9.2585,-9.3387,-9.347,-9.3093,-9.2432,-9.1933,-9.1455,-9.1338,-9.0985,-9.0593,-9.0593,-9.0593,-9.0593,-9.0593,-9.0593,-9.0593,-9.0593,-9.0593,-9.0593,-9.0593,-9.0593,-9.0551,-9.0508,-8.9816,-8.8853,-8.7839,-8.7293,-8.6594,-8.5204,-8.5924,-8.7251,-8.8805,-9.0548,-9.1988,-9.2746,-9.2758,-9.2171,-9.0696,-9.0039,-8.946,-8.8607,-8.8316,-8.7709,-8.6603,-8.5381,-8.5216,-8.6751,-8.6894,-8.7572,-8.9178,-8.932,-8.932,-8.932,-8.932,-8.932,-8.932,-8.8757,-8.8143,-8.7445,-8.6678,-8.6175,-8.5671,-8.4951,-8.4543,-8.4478,-8.4199,-8.4199,-8.4231,-8.4523,-8.4911,-8.5268,-8.5268,-8.5041,-8.456,-8.3866,-8.2559,-8.1012,-7.9872,-7.9781,-8.0294]}]]